<?xml version="1.0" encoding="UTF-8"?>
<gpx version="1.1" creator="GPSBabel - http://www.gpsbabel.org" xmlns="http://www.topografix.com/GPX/1/1" xmlns:xsi="http://www.w3.org/2001/XMLSchema-instance" xmlns:wptx1="http://www.garmin.com/xmlschemas/WaypointExtension/v1" xmlns:gpxtrx="http://www.garmin.com/xmlschemas/GpxExtensions/v3" xmlns:gpxtpx="http://www.garmin.com/xmlschemas/TrackPointExtension/v1" xmlns:gpxx="http://www.garmin.com/xmlschemas/GpxExtensions/v3" xmlns:trp="http://www.garmin.com/xmlschemas/TripExtensions/v1" xmlns:adv="http://www.garmin.com/xmlschemas/AdventuresExtensions/v1" xmlns:prs="http://www.garmin.com/xmlschemas/PressureExtension/v1" xmlns:tmd="http://www.garmin.com/xmlschemas/TripMetaDataExtensions/v1" xmlns:vptm="http://www.garmin.com/xmlschemas/ViaPointTransportationModeExtensions/v1" xmlns:ctx="http://www.garmin.com/xmlschemas/CreationTimeExtension/v1" xmlns:gpxacc="http://www.garmin.com/xmlschemas/AccelerationExtension/v1" xmlns:gpxpx="http://www.garmin.com/xmlschemas/PowerExtension/v1" xmlns:vidx1="http://www.garmin.com/xmlschemas/VideoExtension/v1" xmlns:twonav="http://twonav.com/twonav">
  <metadata>
    <time>2025-04-13T06:40:37.111Z</time>
    <bounds minlat="45.732697000" minlon="5.608742000" maxlat="45.803255000" maxlon="5.641769000"/>
  </metadata>
  <trk>
    <name>randogps1-499</name>
    <extensions>
      <line xmlns="http://www.topografix.com/GPX/gpx_style/0/2">
        <width>4</width>
      </line>
      <gpxx:TrackExtension>
        <gpxx:DisplayColor>DarkMagenta</gpxx:DisplayColor>
      </gpxx:TrackExtension>
      <twonav:TwoNavExtension>
        <twonav:activity>4</twonav:activity>
        <twonav:terrain>0</twonav:terrain>
      </twonav:TwoNavExtension>
    </extensions>
    <trkseg>
      <trkpt lat="45.732901000" lon="5.621149000">
        <ele>327.900000</ele>
        <time>2025-04-11T08:54:27Z</time>
      </trkpt>
      <trkpt lat="45.732896000" lon="5.621163000">
        <ele>324.700000</ele>
        <time>2025-04-11T08:54:37Z</time>
      </trkpt>
      <trkpt lat="45.732886000" lon="5.621179000">
        <ele>325.600000</ele>
        <time>2025-04-11T08:54:46Z</time>
      </trkpt>
      <trkpt lat="45.732862000" lon="5.621184000">
        <ele>325.600000</ele>
        <time>2025-04-11T08:54:55Z</time>
      </trkpt>
      <trkpt lat="45.732763000" lon="5.621132000">
        <ele>325.600000</ele>
        <time>2025-04-11T08:55:04Z</time>
      </trkpt>
      <trkpt lat="45.732697000" lon="5.621077000">
        <ele>327.900000</ele>
        <time>2025-04-11T08:55:14Z</time>
      </trkpt>
      <trkpt lat="45.732757000" lon="5.621012000">
        <ele>328.900000</ele>
        <time>2025-04-11T08:55:23Z</time>
      </trkpt>
      <trkpt lat="45.732831000" lon="5.620858000">
        <ele>329.400000</ele>
        <time>2025-04-11T08:55:32Z</time>
      </trkpt>
      <trkpt lat="45.732911000" lon="5.620734000">
        <ele>330.900000</ele>
        <time>2025-04-11T08:55:42Z</time>
      </trkpt>
      <trkpt lat="45.732952000" lon="5.620691000">
        <ele>331.100000</ele>
        <time>2025-04-11T08:55:51Z</time>
      </trkpt>
      <trkpt lat="45.732980000" lon="5.620652000">
        <ele>330.800000</ele>
        <time>2025-04-11T08:56:00Z</time>
      </trkpt>
      <trkpt lat="45.733087000" lon="5.620597000">
        <ele>331.300000</ele>
        <time>2025-04-11T08:56:09Z</time>
      </trkpt>
      <trkpt lat="45.733169000" lon="5.620533000">
        <ele>332.000000</ele>
        <time>2025-04-11T08:56:19Z</time>
      </trkpt>
      <trkpt lat="45.733232000" lon="5.620533000">
        <ele>331.900000</ele>
        <time>2025-04-11T08:56:28Z</time>
      </trkpt>
      <trkpt lat="45.733300000" lon="5.620568000">
        <ele>332.100000</ele>
        <time>2025-04-11T08:56:37Z</time>
      </trkpt>
      <trkpt lat="45.733373000" lon="5.620573000">
        <ele>331.900000</ele>
        <time>2025-04-11T08:56:47Z</time>
      </trkpt>
      <trkpt lat="45.733441000" lon="5.620584000">
        <ele>331.600000</ele>
        <time>2025-04-11T08:56:56Z</time>
      </trkpt>
      <trkpt lat="45.733486000" lon="5.620548000">
        <ele>331.800000</ele>
        <time>2025-04-11T08:57:05Z</time>
      </trkpt>
      <trkpt lat="45.733580000" lon="5.620531000">
        <ele>332.000000</ele>
        <time>2025-04-11T08:57:16Z</time>
      </trkpt>
      <trkpt lat="45.733636000" lon="5.620545000">
        <ele>332.300000</ele>
        <time>2025-04-11T08:57:26Z</time>
      </trkpt>
      <trkpt lat="45.733729000" lon="5.620538000">
        <ele>332.400000</ele>
        <time>2025-04-11T08:57:36Z</time>
      </trkpt>
      <trkpt lat="45.733808000" lon="5.620475000">
        <ele>332.800000</ele>
        <time>2025-04-11T08:57:45Z</time>
      </trkpt>
      <trkpt lat="45.733843000" lon="5.620424000">
        <ele>333.300000</ele>
        <time>2025-04-11T08:57:54Z</time>
      </trkpt>
      <trkpt lat="45.733922000" lon="5.620359000">
        <ele>333.800000</ele>
        <time>2025-04-11T08:58:04Z</time>
      </trkpt>
      <trkpt lat="45.733983000" lon="5.620280000">
        <ele>333.300000</ele>
        <time>2025-04-11T08:58:13Z</time>
      </trkpt>
      <trkpt lat="45.734021000" lon="5.620208000">
        <ele>334.900000</ele>
        <time>2025-04-11T08:58:22Z</time>
      </trkpt>
      <trkpt lat="45.734089000" lon="5.620113000">
        <ele>336.800000</ele>
        <time>2025-04-11T08:58:32Z</time>
      </trkpt>
      <trkpt lat="45.734184000" lon="5.620033000">
        <ele>338.400000</ele>
        <time>2025-04-11T08:58:42Z</time>
      </trkpt>
      <trkpt lat="45.734218000" lon="5.619954000">
        <ele>338.800000</ele>
        <time>2025-04-11T08:58:52Z</time>
      </trkpt>
      <trkpt lat="45.734298000" lon="5.619855000">
        <ele>339.700000</ele>
        <time>2025-04-11T08:59:02Z</time>
      </trkpt>
      <trkpt lat="45.734368000" lon="5.619792000">
        <ele>340.200000</ele>
        <time>2025-04-11T08:59:12Z</time>
      </trkpt>
      <trkpt lat="45.734450000" lon="5.619695000">
        <ele>342.500000</ele>
        <time>2025-04-11T08:59:22Z</time>
      </trkpt>
      <trkpt lat="45.734531000" lon="5.619604000">
        <ele>342.800000</ele>
        <time>2025-04-11T08:59:32Z</time>
      </trkpt>
      <trkpt lat="45.734632000" lon="5.619538000">
        <ele>343.100000</ele>
        <time>2025-04-11T08:59:42Z</time>
      </trkpt>
      <trkpt lat="45.734758000" lon="5.619478000">
        <ele>343.400000</ele>
        <time>2025-04-11T08:59:52Z</time>
      </trkpt>
      <trkpt lat="45.734836000" lon="5.619418000">
        <ele>344.600000</ele>
        <time>2025-04-11T09:00:02Z</time>
      </trkpt>
      <trkpt lat="45.734852000" lon="5.619392000">
        <ele>345.000000</ele>
        <time>2025-04-11T09:00:41Z</time>
      </trkpt>
      <trkpt lat="45.734860000" lon="5.619387000">
        <ele>343.700000</ele>
        <time>2025-04-11T09:00:50Z</time>
      </trkpt>
      <trkpt lat="45.734929000" lon="5.619327000">
        <ele>342.300000</ele>
        <time>2025-04-11T09:01:00Z</time>
      </trkpt>
      <trkpt lat="45.735096000" lon="5.619193000">
        <ele>341.100000</ele>
        <time>2025-04-11T09:01:30Z</time>
      </trkpt>
      <trkpt lat="45.735169000" lon="5.619148000">
        <ele>341.100000</ele>
        <time>2025-04-11T09:01:39Z</time>
      </trkpt>
      <trkpt lat="45.735299000" lon="5.619135000">
        <ele>340.600000</ele>
        <time>2025-04-11T09:01:49Z</time>
      </trkpt>
      <trkpt lat="45.735388000" lon="5.619073000">
        <ele>340.100000</ele>
        <time>2025-04-11T09:01:58Z</time>
      </trkpt>
      <trkpt lat="45.735460000" lon="5.618989000">
        <ele>341.000000</ele>
        <time>2025-04-11T09:02:07Z</time>
      </trkpt>
      <trkpt lat="45.735548000" lon="5.618897000">
        <ele>343.500000</ele>
        <time>2025-04-11T09:02:17Z</time>
      </trkpt>
      <trkpt lat="45.735632000" lon="5.618800000">
        <ele>344.300000</ele>
        <time>2025-04-11T09:02:26Z</time>
      </trkpt>
      <trkpt lat="45.735710000" lon="5.618733000">
        <ele>343.200000</ele>
        <time>2025-04-11T09:02:35Z</time>
      </trkpt>
      <trkpt lat="45.735819000" lon="5.618580000">
        <ele>339.100000</ele>
        <time>2025-04-11T09:02:45Z</time>
      </trkpt>
      <trkpt lat="45.735889000" lon="5.618456000">
        <ele>339.600000</ele>
        <time>2025-04-11T09:02:55Z</time>
      </trkpt>
      <trkpt lat="45.735979000" lon="5.618264000">
        <ele>338.600000</ele>
        <time>2025-04-11T09:03:05Z</time>
      </trkpt>
      <trkpt lat="45.735999000" lon="5.618130000">
        <ele>338.700000</ele>
        <time>2025-04-11T09:03:15Z</time>
      </trkpt>
      <trkpt lat="45.736100000" lon="5.618125000">
        <ele>339.700000</ele>
        <time>2025-04-11T09:03:25Z</time>
      </trkpt>
      <trkpt lat="45.736194000" lon="5.618096000">
        <ele>339.200000</ele>
        <time>2025-04-11T09:03:35Z</time>
      </trkpt>
      <trkpt lat="45.736311000" lon="5.618053000">
        <ele>339.700000</ele>
        <time>2025-04-11T09:03:45Z</time>
      </trkpt>
      <trkpt lat="45.736404000" lon="5.618038000">
        <ele>338.900000</ele>
        <time>2025-04-11T09:03:54Z</time>
      </trkpt>
      <trkpt lat="45.736503000" lon="5.617983000">
        <ele>336.500000</ele>
        <time>2025-04-11T09:04:03Z</time>
      </trkpt>
      <trkpt lat="45.736628000" lon="5.617976000">
        <ele>338.400000</ele>
        <time>2025-04-11T09:04:13Z</time>
      </trkpt>
      <trkpt lat="45.736738000" lon="5.617912000">
        <ele>339.900000</ele>
        <time>2025-04-11T09:04:23Z</time>
      </trkpt>
      <trkpt lat="45.736846000" lon="5.617843000">
        <ele>339.600000</ele>
        <time>2025-04-11T09:04:33Z</time>
      </trkpt>
      <trkpt lat="45.736960000" lon="5.617788000">
        <ele>336.400000</ele>
        <time>2025-04-11T09:04:43Z</time>
      </trkpt>
      <trkpt lat="45.737056000" lon="5.617732000">
        <ele>337.900000</ele>
        <time>2025-04-11T09:04:53Z</time>
      </trkpt>
      <trkpt lat="45.737138000" lon="5.617727000">
        <ele>340.200000</ele>
        <time>2025-04-11T09:05:02Z</time>
      </trkpt>
      <trkpt lat="45.737215000" lon="5.617677000">
        <ele>339.600000</ele>
        <time>2025-04-11T09:05:11Z</time>
      </trkpt>
      <trkpt lat="45.737330000" lon="5.617647000">
        <ele>339.400000</ele>
        <time>2025-04-11T09:05:21Z</time>
      </trkpt>
      <trkpt lat="45.737443000" lon="5.617600000">
        <ele>340.000000</ele>
        <time>2025-04-11T09:05:30Z</time>
      </trkpt>
      <trkpt lat="45.737559000" lon="5.617585000">
        <ele>340.500000</ele>
        <time>2025-04-11T09:05:39Z</time>
      </trkpt>
      <trkpt lat="45.737657000" lon="5.617588000">
        <ele>339.800000</ele>
        <time>2025-04-11T09:05:49Z</time>
      </trkpt>
      <trkpt lat="45.737776000" lon="5.617558000">
        <ele>338.400000</ele>
        <time>2025-04-11T09:05:58Z</time>
      </trkpt>
      <trkpt lat="45.737872000" lon="5.617537000">
        <ele>338.300000</ele>
        <time>2025-04-11T09:06:07Z</time>
      </trkpt>
      <trkpt lat="45.737993000" lon="5.617488000">
        <ele>339.800000</ele>
        <time>2025-04-11T09:06:17Z</time>
      </trkpt>
      <trkpt lat="45.738086000" lon="5.617501000">
        <ele>341.100000</ele>
        <time>2025-04-11T09:06:27Z</time>
      </trkpt>
      <trkpt lat="45.738201000" lon="5.617421000">
        <ele>341.600000</ele>
        <time>2025-04-11T09:06:37Z</time>
      </trkpt>
      <trkpt lat="45.738294000" lon="5.617391000">
        <ele>341.500000</ele>
        <time>2025-04-11T09:06:46Z</time>
      </trkpt>
      <trkpt lat="45.738398000" lon="5.617380000">
        <ele>342.300000</ele>
        <time>2025-04-11T09:06:55Z</time>
      </trkpt>
      <trkpt lat="45.738619000" lon="5.617333000">
        <ele>340.900000</ele>
        <time>2025-04-11T09:07:14Z</time>
      </trkpt>
      <trkpt lat="45.738729000" lon="5.617314000">
        <ele>340.200000</ele>
        <time>2025-04-11T09:07:23Z</time>
      </trkpt>
      <trkpt lat="45.738829000" lon="5.617266000">
        <ele>339.900000</ele>
        <time>2025-04-11T09:07:33Z</time>
      </trkpt>
      <trkpt lat="45.738959000" lon="5.617222000">
        <ele>339.900000</ele>
        <time>2025-04-11T09:07:43Z</time>
      </trkpt>
      <trkpt lat="45.739064000" lon="5.617206000">
        <ele>339.200000</ele>
        <time>2025-04-11T09:07:53Z</time>
      </trkpt>
      <trkpt lat="45.739157000" lon="5.617173000">
        <ele>340.000000</ele>
        <time>2025-04-11T09:08:02Z</time>
      </trkpt>
      <trkpt lat="45.739250000" lon="5.617114000">
        <ele>340.500000</ele>
        <time>2025-04-11T09:08:11Z</time>
      </trkpt>
      <trkpt lat="45.739352000" lon="5.617067000">
        <ele>340.500000</ele>
        <time>2025-04-11T09:08:21Z</time>
      </trkpt>
      <trkpt lat="45.739460000" lon="5.617035000">
        <ele>341.300000</ele>
        <time>2025-04-11T09:08:30Z</time>
      </trkpt>
      <trkpt lat="45.739580000" lon="5.616959000">
        <ele>341.400000</ele>
        <time>2025-04-11T09:08:39Z</time>
      </trkpt>
      <trkpt lat="45.739677000" lon="5.616916000">
        <ele>338.700000</ele>
        <time>2025-04-11T09:08:49Z</time>
      </trkpt>
      <trkpt lat="45.739752000" lon="5.616866000">
        <ele>338.800000</ele>
        <time>2025-04-11T09:08:58Z</time>
      </trkpt>
      <trkpt lat="45.739851000" lon="5.616783000">
        <ele>340.100000</ele>
        <time>2025-04-11T09:09:07Z</time>
      </trkpt>
      <trkpt lat="45.739961000" lon="5.616729000">
        <ele>340.400000</ele>
        <time>2025-04-11T09:09:17Z</time>
      </trkpt>
      <trkpt lat="45.740063000" lon="5.616645000">
        <ele>342.000000</ele>
        <time>2025-04-11T09:09:27Z</time>
      </trkpt>
      <trkpt lat="45.740173000" lon="5.616581000">
        <ele>342.800000</ele>
        <time>2025-04-11T09:09:37Z</time>
      </trkpt>
      <trkpt lat="45.740277000" lon="5.616527000">
        <ele>340.700000</ele>
        <time>2025-04-11T09:09:47Z</time>
      </trkpt>
      <trkpt lat="45.740383000" lon="5.616445000">
        <ele>337.900000</ele>
        <time>2025-04-11T09:09:57Z</time>
      </trkpt>
      <trkpt lat="45.740477000" lon="5.616351000">
        <ele>339.700000</ele>
        <time>2025-04-11T09:10:07Z</time>
      </trkpt>
      <trkpt lat="45.740552000" lon="5.616295000">
        <ele>340.700000</ele>
        <time>2025-04-11T09:10:17Z</time>
      </trkpt>
      <trkpt lat="45.740659000" lon="5.616227000">
        <ele>340.900000</ele>
        <time>2025-04-11T09:10:26Z</time>
      </trkpt>
      <trkpt lat="45.740756000" lon="5.616181000">
        <ele>340.300000</ele>
        <time>2025-04-11T09:10:35Z</time>
      </trkpt>
      <trkpt lat="45.740845000" lon="5.616099000">
        <ele>339.900000</ele>
        <time>2025-04-11T09:10:45Z</time>
      </trkpt>
      <trkpt lat="45.740927000" lon="5.616039000">
        <ele>340.400000</ele>
        <time>2025-04-11T09:10:55Z</time>
      </trkpt>
      <trkpt lat="45.741051000" lon="5.615974000">
        <ele>341.100000</ele>
        <time>2025-04-11T09:11:05Z</time>
      </trkpt>
      <trkpt lat="45.741150000" lon="5.615920000">
        <ele>340.400000</ele>
        <time>2025-04-11T09:11:14Z</time>
      </trkpt>
      <trkpt lat="45.741243000" lon="5.615862000">
        <ele>340.500000</ele>
        <time>2025-04-11T09:11:23Z</time>
      </trkpt>
      <trkpt lat="45.741346000" lon="5.615805000">
        <ele>341.300000</ele>
        <time>2025-04-11T09:11:33Z</time>
      </trkpt>
      <trkpt lat="45.741446000" lon="5.615762000">
        <ele>341.800000</ele>
        <time>2025-04-11T09:11:42Z</time>
      </trkpt>
      <trkpt lat="45.741544000" lon="5.615724000">
        <ele>342.100000</ele>
        <time>2025-04-11T09:11:51Z</time>
      </trkpt>
      <trkpt lat="45.741678000" lon="5.615680000">
        <ele>342.200000</ele>
        <time>2025-04-11T09:12:01Z</time>
      </trkpt>
      <trkpt lat="45.741800000" lon="5.615647000">
        <ele>341.700000</ele>
        <time>2025-04-11T09:12:11Z</time>
      </trkpt>
      <trkpt lat="45.741866000" lon="5.615671000">
        <ele>343.000000</ele>
        <time>2025-04-11T09:12:21Z</time>
      </trkpt>
      <trkpt lat="45.741983000" lon="5.615678000">
        <ele>342.100000</ele>
        <time>2025-04-11T09:12:31Z</time>
      </trkpt>
      <trkpt lat="45.742120000" lon="5.615655000">
        <ele>341.300000</ele>
        <time>2025-04-11T09:12:41Z</time>
      </trkpt>
      <trkpt lat="45.742328000" lon="5.615689000">
        <ele>343.300000</ele>
        <time>2025-04-11T09:13:01Z</time>
      </trkpt>
      <trkpt lat="45.742444000" lon="5.615691000">
        <ele>342.800000</ele>
        <time>2025-04-11T09:13:11Z</time>
      </trkpt>
      <trkpt lat="45.742552000" lon="5.615714000">
        <ele>342.300000</ele>
        <time>2025-04-11T09:13:21Z</time>
      </trkpt>
      <trkpt lat="45.742676000" lon="5.615723000">
        <ele>342.200000</ele>
        <time>2025-04-11T09:13:31Z</time>
      </trkpt>
      <trkpt lat="45.742805000" lon="5.615685000">
        <ele>341.800000</ele>
        <time>2025-04-11T09:13:41Z</time>
      </trkpt>
      <trkpt lat="45.742915000" lon="5.615597000">
        <ele>341.300000</ele>
        <time>2025-04-11T09:13:51Z</time>
      </trkpt>
      <trkpt lat="45.743113000" lon="5.615510000">
        <ele>342.800000</ele>
        <time>2025-04-11T09:14:11Z</time>
      </trkpt>
      <trkpt lat="45.743213000" lon="5.615435000">
        <ele>342.400000</ele>
        <time>2025-04-11T09:14:20Z</time>
      </trkpt>
      <trkpt lat="45.743300000" lon="5.615404000">
        <ele>342.700000</ele>
        <time>2025-04-11T09:14:29Z</time>
      </trkpt>
      <trkpt lat="45.743412000" lon="5.615350000">
        <ele>343.000000</ele>
        <time>2025-04-11T09:14:38Z</time>
      </trkpt>
      <trkpt lat="45.743482000" lon="5.615209000">
        <ele>344.100000</ele>
        <time>2025-04-11T09:14:48Z</time>
      </trkpt>
      <trkpt lat="45.743541000" lon="5.615189000">
        <ele>345.000000</ele>
        <time>2025-04-11T09:14:57Z</time>
      </trkpt>
      <trkpt lat="45.743624000" lon="5.615201000">
        <ele>345.000000</ele>
        <time>2025-04-11T09:15:06Z</time>
      </trkpt>
      <trkpt lat="45.743718000" lon="5.615227000">
        <ele>344.900000</ele>
        <time>2025-04-11T09:15:16Z</time>
      </trkpt>
      <trkpt lat="45.743819000" lon="5.615230000">
        <ele>344.800000</ele>
        <time>2025-04-11T09:15:26Z</time>
      </trkpt>
      <trkpt lat="45.743924000" lon="5.615278000">
        <ele>344.700000</ele>
        <time>2025-04-11T09:15:36Z</time>
      </trkpt>
      <trkpt lat="45.744041000" lon="5.615256000">
        <ele>344.400000</ele>
        <time>2025-04-11T09:15:45Z</time>
      </trkpt>
      <trkpt lat="45.744157000" lon="5.615218000">
        <ele>348.200000</ele>
        <time>2025-04-11T09:15:54Z</time>
      </trkpt>
      <trkpt lat="45.744267000" lon="5.615213000">
        <ele>348.000000</ele>
        <time>2025-04-11T09:16:04Z</time>
      </trkpt>
      <trkpt lat="45.744359000" lon="5.615150000">
        <ele>345.700000</ele>
        <time>2025-04-11T09:16:13Z</time>
      </trkpt>
      <trkpt lat="45.744432000" lon="5.615125000">
        <ele>342.300000</ele>
        <time>2025-04-11T09:16:22Z</time>
      </trkpt>
      <trkpt lat="45.744512000" lon="5.615069000">
        <ele>339.900000</ele>
        <time>2025-04-11T09:16:32Z</time>
      </trkpt>
      <trkpt lat="45.744599000" lon="5.615047000">
        <ele>341.500000</ele>
        <time>2025-04-11T09:16:42Z</time>
      </trkpt>
      <trkpt lat="45.744833000" lon="5.614951000">
        <ele>339.700000</ele>
        <time>2025-04-11T09:17:02Z</time>
      </trkpt>
      <trkpt lat="45.744916000" lon="5.614880000">
        <ele>338.100000</ele>
        <time>2025-04-11T09:17:12Z</time>
      </trkpt>
      <trkpt lat="45.745162000" lon="5.614695000">
        <ele>336.700000</ele>
        <time>2025-04-11T09:17:32Z</time>
      </trkpt>
      <trkpt lat="45.745276000" lon="5.614622000">
        <ele>340.700000</ele>
        <time>2025-04-11T09:17:42Z</time>
      </trkpt>
      <trkpt lat="45.745361000" lon="5.614547000">
        <ele>340.900000</ele>
        <time>2025-04-11T09:17:52Z</time>
      </trkpt>
      <trkpt lat="45.745476000" lon="5.614461000">
        <ele>341.000000</ele>
        <time>2025-04-11T09:18:02Z</time>
      </trkpt>
      <trkpt lat="45.745574000" lon="5.614400000">
        <ele>340.100000</ele>
        <time>2025-04-11T09:18:12Z</time>
      </trkpt>
      <trkpt lat="45.745650000" lon="5.614350000">
        <ele>339.100000</ele>
        <time>2025-04-11T09:18:22Z</time>
      </trkpt>
      <trkpt lat="45.745763000" lon="5.614291000">
        <ele>338.700000</ele>
        <time>2025-04-11T09:18:32Z</time>
      </trkpt>
      <trkpt lat="45.745871000" lon="5.614244000">
        <ele>339.300000</ele>
        <time>2025-04-11T09:18:41Z</time>
      </trkpt>
      <trkpt lat="45.745995000" lon="5.614216000">
        <ele>338.800000</ele>
        <time>2025-04-11T09:18:51Z</time>
      </trkpt>
      <trkpt lat="45.746086000" lon="5.614174000">
        <ele>339.500000</ele>
        <time>2025-04-11T09:19:00Z</time>
      </trkpt>
      <trkpt lat="45.746195000" lon="5.614142000">
        <ele>338.700000</ele>
        <time>2025-04-11T09:19:10Z</time>
      </trkpt>
      <trkpt lat="45.746307000" lon="5.614098000">
        <ele>338.100000</ele>
        <time>2025-04-11T09:19:19Z</time>
      </trkpt>
      <trkpt lat="45.746395000" lon="5.614085000">
        <ele>337.400000</ele>
        <time>2025-04-11T09:19:28Z</time>
      </trkpt>
      <trkpt lat="45.746522000" lon="5.614108000">
        <ele>338.100000</ele>
        <time>2025-04-11T09:19:38Z</time>
      </trkpt>
      <trkpt lat="45.746613000" lon="5.614050000">
        <ele>337.400000</ele>
        <time>2025-04-11T09:19:47Z</time>
      </trkpt>
      <trkpt lat="45.746805000" lon="5.614007000">
        <ele>339.200000</ele>
        <time>2025-04-11T09:20:06Z</time>
      </trkpt>
      <trkpt lat="45.746904000" lon="5.613950000">
        <ele>340.600000</ele>
        <time>2025-04-11T09:20:15Z</time>
      </trkpt>
      <trkpt lat="45.747010000" lon="5.613965000">
        <ele>342.100000</ele>
        <time>2025-04-11T09:20:24Z</time>
      </trkpt>
      <trkpt lat="45.747087000" lon="5.613950000">
        <ele>342.600000</ele>
        <time>2025-04-11T09:20:34Z</time>
      </trkpt>
      <trkpt lat="45.747180000" lon="5.613920000">
        <ele>343.100000</ele>
        <time>2025-04-11T09:20:43Z</time>
      </trkpt>
      <trkpt lat="45.747334000" lon="5.613895000">
        <ele>344.800000</ele>
        <time>2025-04-11T09:20:52Z</time>
      </trkpt>
      <trkpt lat="45.747433000" lon="5.613873000">
        <ele>345.500000</ele>
        <time>2025-04-11T09:21:02Z</time>
      </trkpt>
      <trkpt lat="45.747553000" lon="5.613878000">
        <ele>345.500000</ele>
        <time>2025-04-11T09:21:12Z</time>
      </trkpt>
      <trkpt lat="45.747704000" lon="5.613824000">
        <ele>347.200000</ele>
        <time>2025-04-11T09:21:22Z</time>
      </trkpt>
      <trkpt lat="45.747793000" lon="5.613810000">
        <ele>348.600000</ele>
        <time>2025-04-11T09:21:31Z</time>
      </trkpt>
      <trkpt lat="45.747878000" lon="5.613741000">
        <ele>348.800000</ele>
        <time>2025-04-11T09:21:40Z</time>
      </trkpt>
      <trkpt lat="45.747963000" lon="5.613694000">
        <ele>347.100000</ele>
        <time>2025-04-11T09:21:49Z</time>
      </trkpt>
      <trkpt lat="45.748078000" lon="5.613653000">
        <ele>345.900000</ele>
        <time>2025-04-11T09:21:59Z</time>
      </trkpt>
      <trkpt lat="45.748236000" lon="5.613601000">
        <ele>343.500000</ele>
        <time>2025-04-11T09:22:08Z</time>
      </trkpt>
      <trkpt lat="45.748321000" lon="5.613548000">
        <ele>343.800000</ele>
        <time>2025-04-11T09:22:17Z</time>
      </trkpt>
      <trkpt lat="45.748447000" lon="5.613535000">
        <ele>344.500000</ele>
        <time>2025-04-11T09:22:27Z</time>
      </trkpt>
      <trkpt lat="45.748629000" lon="5.613472000">
        <ele>346.900000</ele>
        <time>2025-04-11T09:22:45Z</time>
      </trkpt>
      <trkpt lat="45.748718000" lon="5.613464000">
        <ele>346.200000</ele>
        <time>2025-04-11T09:22:55Z</time>
      </trkpt>
      <trkpt lat="45.748797000" lon="5.613420000">
        <ele>347.000000</ele>
        <time>2025-04-11T09:23:04Z</time>
      </trkpt>
      <trkpt lat="45.748880000" lon="5.613324000">
        <ele>345.500000</ele>
        <time>2025-04-11T09:23:13Z</time>
      </trkpt>
      <trkpt lat="45.748963000" lon="5.613306000">
        <ele>342.200000</ele>
        <time>2025-04-11T09:23:22Z</time>
      </trkpt>
      <trkpt lat="45.749105000" lon="5.613310000">
        <ele>340.700000</ele>
        <time>2025-04-11T09:23:32Z</time>
      </trkpt>
      <trkpt lat="45.749232000" lon="5.613252000">
        <ele>342.100000</ele>
        <time>2025-04-11T09:23:41Z</time>
      </trkpt>
      <trkpt lat="45.749305000" lon="5.613249000">
        <ele>341.800000</ele>
        <time>2025-04-11T09:23:50Z</time>
      </trkpt>
      <trkpt lat="45.749371000" lon="5.613223000">
        <ele>341.300000</ele>
        <time>2025-04-11T09:23:59Z</time>
      </trkpt>
      <trkpt lat="45.749515000" lon="5.613216000">
        <ele>341.700000</ele>
        <time>2025-04-11T09:24:09Z</time>
      </trkpt>
      <trkpt lat="45.749662000" lon="5.613156000">
        <ele>341.100000</ele>
        <time>2025-04-11T09:24:19Z</time>
      </trkpt>
      <trkpt lat="45.749774000" lon="5.613115000">
        <ele>340.300000</ele>
        <time>2025-04-11T09:24:29Z</time>
      </trkpt>
      <trkpt lat="45.749884000" lon="5.613061000">
        <ele>339.300000</ele>
        <time>2025-04-11T09:24:39Z</time>
      </trkpt>
      <trkpt lat="45.750129000" lon="5.612959000">
        <ele>335.800000</ele>
        <time>2025-04-11T09:24:59Z</time>
      </trkpt>
      <trkpt lat="45.750230000" lon="5.612927000">
        <ele>336.800000</ele>
        <time>2025-04-11T09:25:09Z</time>
      </trkpt>
      <trkpt lat="45.750305000" lon="5.612908000">
        <ele>338.800000</ele>
        <time>2025-04-11T09:25:18Z</time>
      </trkpt>
      <trkpt lat="45.750401000" lon="5.612877000">
        <ele>338.200000</ele>
        <time>2025-04-11T09:25:28Z</time>
      </trkpt>
      <trkpt lat="45.750493000" lon="5.612841000">
        <ele>339.100000</ele>
        <time>2025-04-11T09:25:38Z</time>
      </trkpt>
      <trkpt lat="45.750604000" lon="5.612792000">
        <ele>340.000000</ele>
        <time>2025-04-11T09:25:48Z</time>
      </trkpt>
      <trkpt lat="45.750704000" lon="5.612741000">
        <ele>341.200000</ele>
        <time>2025-04-11T09:25:58Z</time>
      </trkpt>
      <trkpt lat="45.750822000" lon="5.612731000">
        <ele>342.900000</ele>
        <time>2025-04-11T09:26:08Z</time>
      </trkpt>
      <trkpt lat="45.750923000" lon="5.612682000">
        <ele>343.000000</ele>
        <time>2025-04-11T09:26:18Z</time>
      </trkpt>
      <trkpt lat="45.751019000" lon="5.612596000">
        <ele>344.800000</ele>
        <time>2025-04-11T09:26:28Z</time>
      </trkpt>
      <trkpt lat="45.751040000" lon="5.612426000">
        <ele>342.200000</ele>
        <time>2025-04-11T09:26:38Z</time>
      </trkpt>
      <trkpt lat="45.751071000" lon="5.612351000">
        <ele>342.100000</ele>
        <time>2025-04-11T09:26:48Z</time>
      </trkpt>
      <trkpt lat="45.751076000" lon="5.612287000">
        <ele>343.100000</ele>
        <time>2025-04-11T09:26:58Z</time>
      </trkpt>
      <trkpt lat="45.751096000" lon="5.612156000">
        <ele>344.300000</ele>
        <time>2025-04-11T09:27:07Z</time>
      </trkpt>
      <trkpt lat="45.751159000" lon="5.612016000">
        <ele>344.400000</ele>
        <time>2025-04-11T09:27:16Z</time>
      </trkpt>
      <trkpt lat="45.751235000" lon="5.611914000">
        <ele>346.300000</ele>
        <time>2025-04-11T09:27:26Z</time>
      </trkpt>
      <trkpt lat="45.751306000" lon="5.611863000">
        <ele>347.800000</ele>
        <time>2025-04-11T09:27:35Z</time>
      </trkpt>
      <trkpt lat="45.751362000" lon="5.611844000">
        <ele>348.500000</ele>
        <time>2025-04-11T09:27:44Z</time>
      </trkpt>
      <trkpt lat="45.751467000" lon="5.611787000">
        <ele>349.300000</ele>
        <time>2025-04-11T09:27:54Z</time>
      </trkpt>
      <trkpt lat="45.751609000" lon="5.611704000">
        <ele>351.100000</ele>
        <time>2025-04-11T09:28:04Z</time>
      </trkpt>
      <trkpt lat="45.751710000" lon="5.611638000">
        <ele>356.500000</ele>
        <time>2025-04-11T09:28:14Z</time>
      </trkpt>
      <trkpt lat="45.751815000" lon="5.611559000">
        <ele>359.700000</ele>
        <time>2025-04-11T09:28:24Z</time>
      </trkpt>
      <trkpt lat="45.751879000" lon="5.611483000">
        <ele>360.100000</ele>
        <time>2025-04-11T09:28:34Z</time>
      </trkpt>
      <trkpt lat="45.751905000" lon="5.611409000">
        <ele>359.800000</ele>
        <time>2025-04-11T09:28:43Z</time>
      </trkpt>
      <trkpt lat="45.752000000" lon="5.611337000">
        <ele>359.600000</ele>
        <time>2025-04-11T09:28:52Z</time>
      </trkpt>
      <trkpt lat="45.752087000" lon="5.611275000">
        <ele>362.300000</ele>
        <time>2025-04-11T09:29:02Z</time>
      </trkpt>
      <trkpt lat="45.752217000" lon="5.611222000">
        <ele>362.100000</ele>
        <time>2025-04-11T09:29:12Z</time>
      </trkpt>
      <trkpt lat="45.752310000" lon="5.611240000">
        <ele>362.900000</ele>
        <time>2025-04-11T09:29:22Z</time>
      </trkpt>
      <trkpt lat="45.752421000" lon="5.611211000">
        <ele>362.700000</ele>
        <time>2025-04-11T09:29:32Z</time>
      </trkpt>
      <trkpt lat="45.752465000" lon="5.611253000">
        <ele>362.200000</ele>
        <time>2025-04-11T09:29:42Z</time>
      </trkpt>
      <trkpt lat="45.752511000" lon="5.611282000">
        <ele>363.400000</ele>
        <time>2025-04-11T09:29:51Z</time>
      </trkpt>
      <trkpt lat="45.752623000" lon="5.611329000">
        <ele>363.600000</ele>
        <time>2025-04-11T09:30:01Z</time>
      </trkpt>
      <trkpt lat="45.752712000" lon="5.611359000">
        <ele>364.100000</ele>
        <time>2025-04-11T09:30:11Z</time>
      </trkpt>
      <trkpt lat="45.752826000" lon="5.611365000">
        <ele>364.600000</ele>
        <time>2025-04-11T09:30:20Z</time>
      </trkpt>
      <trkpt lat="45.752930000" lon="5.611377000">
        <ele>365.300000</ele>
        <time>2025-04-11T09:30:29Z</time>
      </trkpt>
      <trkpt lat="45.753035000" lon="5.611341000">
        <ele>365.100000</ele>
        <time>2025-04-11T09:30:39Z</time>
      </trkpt>
      <trkpt lat="45.753155000" lon="5.611351000">
        <ele>364.600000</ele>
        <time>2025-04-11T09:30:48Z</time>
      </trkpt>
      <trkpt lat="45.753376000" lon="5.611347000">
        <ele>363.300000</ele>
        <time>2025-04-11T09:31:07Z</time>
      </trkpt>
      <trkpt lat="45.753487000" lon="5.611322000">
        <ele>364.100000</ele>
        <time>2025-04-11T09:31:16Z</time>
      </trkpt>
      <trkpt lat="45.753589000" lon="5.611316000">
        <ele>363.200000</ele>
        <time>2025-04-11T09:31:25Z</time>
      </trkpt>
      <trkpt lat="45.753700000" lon="5.611321000">
        <ele>363.100000</ele>
        <time>2025-04-11T09:31:35Z</time>
      </trkpt>
      <trkpt lat="45.753822000" lon="5.611302000">
        <ele>363.900000</ele>
        <time>2025-04-11T09:31:45Z</time>
      </trkpt>
      <trkpt lat="45.753944000" lon="5.611302000">
        <ele>364.400000</ele>
        <time>2025-04-11T09:31:55Z</time>
      </trkpt>
      <trkpt lat="45.754032000" lon="5.611320000">
        <ele>365.100000</ele>
        <time>2025-04-11T09:32:04Z</time>
      </trkpt>
      <trkpt lat="45.754148000" lon="5.611306000">
        <ele>362.600000</ele>
        <time>2025-04-11T09:32:13Z</time>
      </trkpt>
      <trkpt lat="45.754253000" lon="5.611365000">
        <ele>363.900000</ele>
        <time>2025-04-11T09:32:23Z</time>
      </trkpt>
      <trkpt lat="45.754362000" lon="5.611368000">
        <ele>364.300000</ele>
        <time>2025-04-11T09:32:32Z</time>
      </trkpt>
      <trkpt lat="45.754456000" lon="5.611357000">
        <ele>363.800000</ele>
        <time>2025-04-11T09:32:41Z</time>
      </trkpt>
      <trkpt lat="45.754579000" lon="5.611332000">
        <ele>362.500000</ele>
        <time>2025-04-11T09:32:51Z</time>
      </trkpt>
      <trkpt lat="45.754704000" lon="5.611320000">
        <ele>363.700000</ele>
        <time>2025-04-11T09:33:00Z</time>
      </trkpt>
      <trkpt lat="45.754799000" lon="5.611321000">
        <ele>364.500000</ele>
        <time>2025-04-11T09:33:09Z</time>
      </trkpt>
      <trkpt lat="45.754894000" lon="5.611358000">
        <ele>364.800000</ele>
        <time>2025-04-11T09:33:19Z</time>
      </trkpt>
      <trkpt lat="45.755023000" lon="5.611390000">
        <ele>365.300000</ele>
        <time>2025-04-11T09:33:29Z</time>
      </trkpt>
      <trkpt lat="45.755146000" lon="5.611418000">
        <ele>365.300000</ele>
        <time>2025-04-11T09:33:39Z</time>
      </trkpt>
      <trkpt lat="45.755250000" lon="5.611448000">
        <ele>365.400000</ele>
        <time>2025-04-11T09:33:49Z</time>
      </trkpt>
      <trkpt lat="45.755358000" lon="5.611470000">
        <ele>364.600000</ele>
        <time>2025-04-11T09:33:59Z</time>
      </trkpt>
      <trkpt lat="45.755578000" lon="5.611465000">
        <ele>368.700000</ele>
        <time>2025-04-11T09:34:19Z</time>
      </trkpt>
      <trkpt lat="45.755693000" lon="5.611369000">
        <ele>370.100000</ele>
        <time>2025-04-11T09:34:29Z</time>
      </trkpt>
      <trkpt lat="45.755695000" lon="5.611318000">
        <ele>368.100000</ele>
        <time>2025-04-11T09:34:39Z</time>
      </trkpt>
      <trkpt lat="45.755821000" lon="5.611343000">
        <ele>373.900000</ele>
        <time>2025-04-11T09:34:49Z</time>
      </trkpt>
      <trkpt lat="45.755930000" lon="5.611255000">
        <ele>374.900000</ele>
        <time>2025-04-11T09:34:59Z</time>
      </trkpt>
      <trkpt lat="45.756024000" lon="5.611188000">
        <ele>375.300000</ele>
        <time>2025-04-11T09:35:09Z</time>
      </trkpt>
      <trkpt lat="45.756140000" lon="5.611116000">
        <ele>374.700000</ele>
        <time>2025-04-11T09:35:19Z</time>
      </trkpt>
      <trkpt lat="45.756363000" lon="5.611037000">
        <ele>375.200000</ele>
        <time>2025-04-11T09:35:39Z</time>
      </trkpt>
      <trkpt lat="45.756393000" lon="5.611068000">
        <ele>374.300000</ele>
        <time>2025-04-11T09:35:49Z</time>
      </trkpt>
      <trkpt lat="45.756410000" lon="5.611172000">
        <ele>376.300000</ele>
        <time>2025-04-11T09:35:59Z</time>
      </trkpt>
      <trkpt lat="45.756388000" lon="5.611255000">
        <ele>375.600000</ele>
        <time>2025-04-11T09:36:09Z</time>
      </trkpt>
      <trkpt lat="45.756369000" lon="5.611361000">
        <ele>372.100000</ele>
        <time>2025-04-11T09:36:19Z</time>
      </trkpt>
      <trkpt lat="45.756350000" lon="5.611491000">
        <ele>369.800000</ele>
        <time>2025-04-11T09:36:28Z</time>
      </trkpt>
      <trkpt lat="45.756290000" lon="5.611552000">
        <ele>368.100000</ele>
        <time>2025-04-11T09:36:37Z</time>
      </trkpt>
      <trkpt lat="45.756246000" lon="5.611650000">
        <ele>368.600000</ele>
        <time>2025-04-11T09:36:47Z</time>
      </trkpt>
      <trkpt lat="45.756248000" lon="5.611731000">
        <ele>368.900000</ele>
        <time>2025-04-11T09:36:56Z</time>
      </trkpt>
      <trkpt lat="45.756274000" lon="5.611830000">
        <ele>366.800000</ele>
        <time>2025-04-11T09:37:05Z</time>
      </trkpt>
      <trkpt lat="45.756347000" lon="5.611935000">
        <ele>362.400000</ele>
        <time>2025-04-11T09:37:15Z</time>
      </trkpt>
      <trkpt lat="45.756409000" lon="5.612020000">
        <ele>361.600000</ele>
        <time>2025-04-11T09:37:24Z</time>
      </trkpt>
      <trkpt lat="45.756526000" lon="5.612192000">
        <ele>358.300000</ele>
        <time>2025-04-11T09:37:43Z</time>
      </trkpt>
      <trkpt lat="45.756599000" lon="5.612281000">
        <ele>355.900000</ele>
        <time>2025-04-11T09:37:52Z</time>
      </trkpt>
      <trkpt lat="45.756631000" lon="5.612357000">
        <ele>355.400000</ele>
        <time>2025-04-11T09:38:01Z</time>
      </trkpt>
      <trkpt lat="45.756703000" lon="5.612466000">
        <ele>356.600000</ele>
        <time>2025-04-11T09:38:11Z</time>
      </trkpt>
      <trkpt lat="45.756785000" lon="5.612559000">
        <ele>356.400000</ele>
        <time>2025-04-11T09:38:21Z</time>
      </trkpt>
      <trkpt lat="45.756848000" lon="5.612653000">
        <ele>353.100000</ele>
        <time>2025-04-11T09:38:31Z</time>
      </trkpt>
      <trkpt lat="45.756896000" lon="5.612775000">
        <ele>353.500000</ele>
        <time>2025-04-11T09:38:41Z</time>
      </trkpt>
      <trkpt lat="45.756985000" lon="5.612891000">
        <ele>351.300000</ele>
        <time>2025-04-11T09:38:51Z</time>
      </trkpt>
      <trkpt lat="45.757052000" lon="5.612975000">
        <ele>349.600000</ele>
        <time>2025-04-11T09:39:00Z</time>
      </trkpt>
      <trkpt lat="45.757129000" lon="5.613119000">
        <ele>349.500000</ele>
        <time>2025-04-11T09:39:09Z</time>
      </trkpt>
      <trkpt lat="45.757200000" lon="5.613257000">
        <ele>349.400000</ele>
        <time>2025-04-11T09:39:19Z</time>
      </trkpt>
      <trkpt lat="45.757220000" lon="5.613373000">
        <ele>348.600000</ele>
        <time>2025-04-11T09:39:29Z</time>
      </trkpt>
      <trkpt lat="45.757240000" lon="5.613521000">
        <ele>347.500000</ele>
        <time>2025-04-11T09:39:39Z</time>
      </trkpt>
      <trkpt lat="45.757344000" lon="5.613586000">
        <ele>346.600000</ele>
        <time>2025-04-11T09:39:48Z</time>
      </trkpt>
      <trkpt lat="45.757544000" lon="5.613509000">
        <ele>347.700000</ele>
        <time>2025-04-11T09:40:07Z</time>
      </trkpt>
      <trkpt lat="45.757643000" lon="5.613499000">
        <ele>349.600000</ele>
        <time>2025-04-11T09:40:16Z</time>
      </trkpt>
      <trkpt lat="45.757725000" lon="5.613482000">
        <ele>351.500000</ele>
        <time>2025-04-11T09:40:25Z</time>
      </trkpt>
      <trkpt lat="45.757855000" lon="5.613430000">
        <ele>351.600000</ele>
        <time>2025-04-11T09:40:44Z</time>
      </trkpt>
      <trkpt lat="45.757974000" lon="5.613363000">
        <ele>350.400000</ele>
        <time>2025-04-11T09:40:53Z</time>
      </trkpt>
      <trkpt lat="45.758090000" lon="5.613360000">
        <ele>352.900000</ele>
        <time>2025-04-11T09:41:03Z</time>
      </trkpt>
      <trkpt lat="45.758197000" lon="5.613328000">
        <ele>353.700000</ele>
        <time>2025-04-11T09:41:13Z</time>
      </trkpt>
      <trkpt lat="45.758411000" lon="5.613240000">
        <ele>354.900000</ele>
        <time>2025-04-11T09:41:32Z</time>
      </trkpt>
      <trkpt lat="45.758477000" lon="5.613207000">
        <ele>356.200000</ele>
        <time>2025-04-11T09:41:41Z</time>
      </trkpt>
      <trkpt lat="45.758612000" lon="5.613127000">
        <ele>356.300000</ele>
        <time>2025-04-11T09:41:51Z</time>
      </trkpt>
      <trkpt lat="45.758706000" lon="5.613129000">
        <ele>355.500000</ele>
        <time>2025-04-11T09:42:01Z</time>
      </trkpt>
      <trkpt lat="45.758763000" lon="5.613172000">
        <ele>357.500000</ele>
        <time>2025-04-11T09:42:11Z</time>
      </trkpt>
      <trkpt lat="45.758851000" lon="5.613216000">
        <ele>357.300000</ele>
        <time>2025-04-11T09:42:20Z</time>
      </trkpt>
      <trkpt lat="45.758952000" lon="5.613287000">
        <ele>358.500000</ele>
        <time>2025-04-11T09:42:29Z</time>
      </trkpt>
      <trkpt lat="45.759048000" lon="5.613337000">
        <ele>357.700000</ele>
        <time>2025-04-11T09:42:39Z</time>
      </trkpt>
      <trkpt lat="45.759137000" lon="5.613368000">
        <ele>357.600000</ele>
        <time>2025-04-11T09:42:49Z</time>
      </trkpt>
      <trkpt lat="45.759261000" lon="5.613437000">
        <ele>357.400000</ele>
        <time>2025-04-11T09:42:59Z</time>
      </trkpt>
      <trkpt lat="45.759364000" lon="5.613477000">
        <ele>356.600000</ele>
        <time>2025-04-11T09:43:09Z</time>
      </trkpt>
      <trkpt lat="45.759404000" lon="5.613489000">
        <ele>356.900000</ele>
        <time>2025-04-11T09:43:37Z</time>
      </trkpt>
      <trkpt lat="45.759507000" lon="5.613515000">
        <ele>357.400000</ele>
        <time>2025-04-11T09:43:47Z</time>
      </trkpt>
      <trkpt lat="45.759598000" lon="5.613601000">
        <ele>358.200000</ele>
        <time>2025-04-11T09:43:57Z</time>
      </trkpt>
      <trkpt lat="45.759684000" lon="5.613630000">
        <ele>359.400000</ele>
        <time>2025-04-11T09:44:07Z</time>
      </trkpt>
      <trkpt lat="45.759811000" lon="5.613647000">
        <ele>359.800000</ele>
        <time>2025-04-11T09:44:16Z</time>
      </trkpt>
      <trkpt lat="45.759883000" lon="5.613628000">
        <ele>359.600000</ele>
        <time>2025-04-11T09:44:25Z</time>
      </trkpt>
      <trkpt lat="45.760020000" lon="5.613672000">
        <ele>359.700000</ele>
        <time>2025-04-11T09:44:35Z</time>
      </trkpt>
      <trkpt lat="45.760072000" lon="5.613834000">
        <ele>359.000000</ele>
        <time>2025-04-11T09:44:45Z</time>
      </trkpt>
      <trkpt lat="45.760106000" lon="5.613899000">
        <ele>357.300000</ele>
        <time>2025-04-11T09:44:55Z</time>
      </trkpt>
      <trkpt lat="45.760093000" lon="5.614087000">
        <ele>360.000000</ele>
        <time>2025-04-11T09:45:05Z</time>
      </trkpt>
      <trkpt lat="45.760090000" lon="5.614238000">
        <ele>360.900000</ele>
        <time>2025-04-11T09:45:15Z</time>
      </trkpt>
      <trkpt lat="45.760068000" lon="5.614412000">
        <ele>360.600000</ele>
        <time>2025-04-11T09:45:25Z</time>
      </trkpt>
      <trkpt lat="45.760022000" lon="5.614537000">
        <ele>361.200000</ele>
        <time>2025-04-11T09:45:35Z</time>
      </trkpt>
      <trkpt lat="45.759954000" lon="5.614632000">
        <ele>360.800000</ele>
        <time>2025-04-11T09:45:44Z</time>
      </trkpt>
      <trkpt lat="45.759905000" lon="5.614791000">
        <ele>359.100000</ele>
        <time>2025-04-11T09:45:53Z</time>
      </trkpt>
      <trkpt lat="45.759912000" lon="5.614939000">
        <ele>356.300000</ele>
        <time>2025-04-11T09:46:03Z</time>
      </trkpt>
      <trkpt lat="45.759857000" lon="5.615028000">
        <ele>356.000000</ele>
        <time>2025-04-11T09:46:13Z</time>
      </trkpt>
      <trkpt lat="45.759773000" lon="5.615152000">
        <ele>355.000000</ele>
        <time>2025-04-11T09:46:23Z</time>
      </trkpt>
      <trkpt lat="45.759713000" lon="5.615288000">
        <ele>354.600000</ele>
        <time>2025-04-11T09:46:33Z</time>
      </trkpt>
      <trkpt lat="45.759633000" lon="5.615422000">
        <ele>352.200000</ele>
        <time>2025-04-11T09:46:43Z</time>
      </trkpt>
      <trkpt lat="45.759556000" lon="5.615534000">
        <ele>353.300000</ele>
        <time>2025-04-11T09:46:53Z</time>
      </trkpt>
      <trkpt lat="45.759510000" lon="5.615552000">
        <ele>353.800000</ele>
        <time>2025-04-11T09:47:03Z</time>
      </trkpt>
      <trkpt lat="45.759516000" lon="5.615638000">
        <ele>354.900000</ele>
        <time>2025-04-11T09:47:12Z</time>
      </trkpt>
      <trkpt lat="45.759545000" lon="5.615741000">
        <ele>357.100000</ele>
        <time>2025-04-11T09:47:21Z</time>
      </trkpt>
      <trkpt lat="45.759596000" lon="5.615887000">
        <ele>358.100000</ele>
        <time>2025-04-11T09:47:31Z</time>
      </trkpt>
      <trkpt lat="45.759649000" lon="5.616032000">
        <ele>358.800000</ele>
        <time>2025-04-11T09:47:41Z</time>
      </trkpt>
      <trkpt lat="45.759687000" lon="5.616155000">
        <ele>359.000000</ele>
        <time>2025-04-11T09:47:51Z</time>
      </trkpt>
      <trkpt lat="45.759727000" lon="5.616253000">
        <ele>360.400000</ele>
        <time>2025-04-11T09:47:59Z</time>
      </trkpt>
      <trkpt lat="45.759844000" lon="5.616456000">
        <ele>363.500000</ele>
        <time>2025-04-11T09:48:18Z</time>
      </trkpt>
      <trkpt lat="45.759920000" lon="5.616559000">
        <ele>363.100000</ele>
        <time>2025-04-11T09:48:28Z</time>
      </trkpt>
      <trkpt lat="45.759958000" lon="5.616645000">
        <ele>366.600000</ele>
        <time>2025-04-11T09:48:38Z</time>
      </trkpt>
      <trkpt lat="45.759976000" lon="5.616727000">
        <ele>368.500000</ele>
        <time>2025-04-11T09:48:48Z</time>
      </trkpt>
      <trkpt lat="45.759965000" lon="5.616775000">
        <ele>371.100000</ele>
        <time>2025-04-11T09:48:58Z</time>
      </trkpt>
      <trkpt lat="45.759880000" lon="5.616744000">
        <ele>374.000000</ele>
        <time>2025-04-11T09:49:18Z</time>
      </trkpt>
      <trkpt lat="45.759839000" lon="5.616575000">
        <ele>378.700000</ele>
        <time>2025-04-11T09:49:28Z</time>
      </trkpt>
      <trkpt lat="45.759765000" lon="5.616746000">
        <ele>379.300000</ele>
        <time>2025-04-11T09:49:38Z</time>
      </trkpt>
      <trkpt lat="45.759770000" lon="5.616838000">
        <ele>374.400000</ele>
        <time>2025-04-11T09:49:48Z</time>
      </trkpt>
      <trkpt lat="45.759862000" lon="5.616980000">
        <ele>371.800000</ele>
        <time>2025-04-11T09:49:58Z</time>
      </trkpt>
      <trkpt lat="45.759880000" lon="5.617026000">
        <ele>374.200000</ele>
        <time>2025-04-11T09:50:08Z</time>
      </trkpt>
      <trkpt lat="45.759897000" lon="5.617108000">
        <ele>372.700000</ele>
        <time>2025-04-11T09:50:18Z</time>
      </trkpt>
      <trkpt lat="45.759954000" lon="5.617142000">
        <ele>373.900000</ele>
        <time>2025-04-11T09:50:27Z</time>
      </trkpt>
      <trkpt lat="45.759990000" lon="5.617225000">
        <ele>372.000000</ele>
        <time>2025-04-11T09:50:36Z</time>
      </trkpt>
      <trkpt lat="45.760034000" lon="5.617321000">
        <ele>375.000000</ele>
        <time>2025-04-11T09:50:46Z</time>
      </trkpt>
      <trkpt lat="45.760063000" lon="5.617421000">
        <ele>378.800000</ele>
        <time>2025-04-11T09:50:55Z</time>
      </trkpt>
      <trkpt lat="45.760116000" lon="5.617498000">
        <ele>383.000000</ele>
        <time>2025-04-11T09:51:04Z</time>
      </trkpt>
      <trkpt lat="45.760169000" lon="5.617535000">
        <ele>385.500000</ele>
        <time>2025-04-11T09:51:14Z</time>
      </trkpt>
      <trkpt lat="45.760201000" lon="5.617560000">
        <ele>387.800000</ele>
        <time>2025-04-11T09:51:23Z</time>
      </trkpt>
      <trkpt lat="45.760262000" lon="5.617618000">
        <ele>390.000000</ele>
        <time>2025-04-11T09:51:32Z</time>
      </trkpt>
      <trkpt lat="45.760286000" lon="5.617736000">
        <ele>390.700000</ele>
        <time>2025-04-11T09:51:42Z</time>
      </trkpt>
      <trkpt lat="45.760290000" lon="5.617750000">
        <ele>391.300000</ele>
        <time>2025-04-11T09:51:52Z</time>
      </trkpt>
      <trkpt lat="45.760271000" lon="5.617807000">
        <ele>393.700000</ele>
        <time>2025-04-11T09:52:02Z</time>
      </trkpt>
      <trkpt lat="45.760246000" lon="5.617893000">
        <ele>396.200000</ele>
        <time>2025-04-11T09:52:12Z</time>
      </trkpt>
      <trkpt lat="45.760248000" lon="5.617999000">
        <ele>396.100000</ele>
        <time>2025-04-11T09:52:31Z</time>
      </trkpt>
      <trkpt lat="45.760234000" lon="5.618027000">
        <ele>397.600000</ele>
        <time>2025-04-11T09:52:40Z</time>
      </trkpt>
      <trkpt lat="45.760220000" lon="5.618146000">
        <ele>397.000000</ele>
        <time>2025-04-11T09:52:59Z</time>
      </trkpt>
      <trkpt lat="45.760238000" lon="5.618217000">
        <ele>396.200000</ele>
        <time>2025-04-11T09:53:08Z</time>
      </trkpt>
      <trkpt lat="45.760244000" lon="5.618261000">
        <ele>396.200000</ele>
        <time>2025-04-11T09:53:18Z</time>
      </trkpt>
      <trkpt lat="45.760271000" lon="5.618341000">
        <ele>395.900000</ele>
        <time>2025-04-11T09:53:28Z</time>
      </trkpt>
      <trkpt lat="45.760292000" lon="5.618363000">
        <ele>395.700000</ele>
        <time>2025-04-11T09:53:37Z</time>
      </trkpt>
      <trkpt lat="45.760303000" lon="5.618378000">
        <ele>394.600000</ele>
        <time>2025-04-11T09:53:47Z</time>
      </trkpt>
      <trkpt lat="45.760330000" lon="5.618393000">
        <ele>391.800000</ele>
        <time>2025-04-11T09:54:07Z</time>
      </trkpt>
      <trkpt lat="45.760348000" lon="5.618418000">
        <ele>391.700000</ele>
        <time>2025-04-11T09:54:16Z</time>
      </trkpt>
      <trkpt lat="45.760398000" lon="5.618466000">
        <ele>395.800000</ele>
        <time>2025-04-11T09:54:25Z</time>
      </trkpt>
      <trkpt lat="45.760429000" lon="5.618490000">
        <ele>395.700000</ele>
        <time>2025-04-11T09:54:35Z</time>
      </trkpt>
      <trkpt lat="45.760449000" lon="5.618488000">
        <ele>391.500000</ele>
        <time>2025-04-11T09:54:44Z</time>
      </trkpt>
      <trkpt lat="45.760473000" lon="5.618540000">
        <ele>395.400000</ele>
        <time>2025-04-11T09:54:53Z</time>
      </trkpt>
      <trkpt lat="45.760489000" lon="5.618568000">
        <ele>392.600000</ele>
        <time>2025-04-11T09:55:03Z</time>
      </trkpt>
      <trkpt lat="45.760510000" lon="5.618626000">
        <ele>395.000000</ele>
        <time>2025-04-11T09:55:13Z</time>
      </trkpt>
      <trkpt lat="45.760524000" lon="5.618655000">
        <ele>392.000000</ele>
        <time>2025-04-11T09:55:23Z</time>
      </trkpt>
      <trkpt lat="45.760591000" lon="5.618653000">
        <ele>395.000000</ele>
        <time>2025-04-11T09:55:32Z</time>
      </trkpt>
      <trkpt lat="45.760606000" lon="5.618672000">
        <ele>394.900000</ele>
        <time>2025-04-11T09:55:41Z</time>
      </trkpt>
      <trkpt lat="45.760647000" lon="5.618703000">
        <ele>392.700000</ele>
        <time>2025-04-11T09:55:50Z</time>
      </trkpt>
      <trkpt lat="45.760715000" lon="5.618704000">
        <ele>392.500000</ele>
        <time>2025-04-11T09:56:00Z</time>
      </trkpt>
      <trkpt lat="45.760786000" lon="5.618661000">
        <ele>391.600000</ele>
        <time>2025-04-11T09:56:10Z</time>
      </trkpt>
      <trkpt lat="45.760828000" lon="5.618608000">
        <ele>395.300000</ele>
        <time>2025-04-11T09:56:19Z</time>
      </trkpt>
      <trkpt lat="45.760903000" lon="5.618589000">
        <ele>390.500000</ele>
        <time>2025-04-11T09:56:29Z</time>
      </trkpt>
      <trkpt lat="45.760919000" lon="5.618486000">
        <ele>391.600000</ele>
        <time>2025-04-11T09:56:38Z</time>
      </trkpt>
      <trkpt lat="45.760952000" lon="5.618416000">
        <ele>395.600000</ele>
        <time>2025-04-11T09:56:47Z</time>
      </trkpt>
      <trkpt lat="45.760968000" lon="5.618369000">
        <ele>394.300000</ele>
        <time>2025-04-11T09:56:57Z</time>
      </trkpt>
      <trkpt lat="45.760996000" lon="5.618347000">
        <ele>395.800000</ele>
        <time>2025-04-11T09:58:51Z</time>
      </trkpt>
      <trkpt lat="45.761004000" lon="5.618329000">
        <ele>395.700000</ele>
        <time>2025-04-11T10:00:28Z</time>
      </trkpt>
      <trkpt lat="45.761017000" lon="5.618318000">
        <ele>395.600000</ele>
        <time>2025-04-11T10:02:37Z</time>
      </trkpt>
      <trkpt lat="45.761030000" lon="5.618298000">
        <ele>396.100000</ele>
        <time>2025-04-11T10:02:47Z</time>
      </trkpt>
      <trkpt lat="45.761045000" lon="5.618291000">
        <ele>395.400000</ele>
        <time>2025-04-11T10:02:57Z</time>
      </trkpt>
      <trkpt lat="45.761062000" lon="5.618254000">
        <ele>396.900000</ele>
        <time>2025-04-11T10:03:07Z</time>
      </trkpt>
      <trkpt lat="45.761097000" lon="5.618238000">
        <ele>397.400000</ele>
        <time>2025-04-11T10:03:36Z</time>
      </trkpt>
      <trkpt lat="45.761102000" lon="5.618233000">
        <ele>397.700000</ele>
        <time>2025-04-11T10:03:45Z</time>
      </trkpt>
      <trkpt lat="45.761152000" lon="5.618211000">
        <ele>395.800000</ele>
        <time>2025-04-11T10:04:05Z</time>
      </trkpt>
      <trkpt lat="45.761237000" lon="5.618196000">
        <ele>395.100000</ele>
        <time>2025-04-11T10:04:15Z</time>
      </trkpt>
      <trkpt lat="45.761300000" lon="5.618181000">
        <ele>394.800000</ele>
        <time>2025-04-11T10:04:24Z</time>
      </trkpt>
      <trkpt lat="45.761346000" lon="5.618162000">
        <ele>395.200000</ele>
        <time>2025-04-11T10:04:33Z</time>
      </trkpt>
      <trkpt lat="45.761372000" lon="5.618143000">
        <ele>395.400000</ele>
        <time>2025-04-11T10:04:52Z</time>
      </trkpt>
      <trkpt lat="45.761473000" lon="5.618202000">
        <ele>395.400000</ele>
        <time>2025-04-11T10:05:01Z</time>
      </trkpt>
      <trkpt lat="45.761501000" lon="5.618221000">
        <ele>392.800000</ele>
        <time>2025-04-11T10:05:11Z</time>
      </trkpt>
      <trkpt lat="45.761554000" lon="5.618224000">
        <ele>395.500000</ele>
        <time>2025-04-11T10:05:20Z</time>
      </trkpt>
      <trkpt lat="45.761589000" lon="5.618235000">
        <ele>395.400000</ele>
        <time>2025-04-11T10:05:29Z</time>
      </trkpt>
      <trkpt lat="45.761633000" lon="5.618244000">
        <ele>391.100000</ele>
        <time>2025-04-11T10:05:39Z</time>
      </trkpt>
      <trkpt lat="45.761701000" lon="5.618235000">
        <ele>390.900000</ele>
        <time>2025-04-11T10:06:36Z</time>
      </trkpt>
      <trkpt lat="45.761757000" lon="5.618196000">
        <ele>396.200000</ele>
        <time>2025-04-11T10:09:41Z</time>
      </trkpt>
      <trkpt lat="45.761785000" lon="5.618189000">
        <ele>396.300000</ele>
        <time>2025-04-11T10:09:50Z</time>
      </trkpt>
      <trkpt lat="45.761837000" lon="5.618167000">
        <ele>394.000000</ele>
        <time>2025-04-11T10:10:00Z</time>
      </trkpt>
      <trkpt lat="45.761921000" lon="5.618165000">
        <ele>394.400000</ele>
        <time>2025-04-11T10:10:09Z</time>
      </trkpt>
      <trkpt lat="45.761988000" lon="5.618140000">
        <ele>395.100000</ele>
        <time>2025-04-11T10:10:18Z</time>
      </trkpt>
      <trkpt lat="45.762112000" lon="5.618079000">
        <ele>398.900000</ele>
        <time>2025-04-11T10:10:38Z</time>
      </trkpt>
      <trkpt lat="45.762170000" lon="5.618082000">
        <ele>399.200000</ele>
        <time>2025-04-11T10:10:48Z</time>
      </trkpt>
      <trkpt lat="45.762296000" lon="5.618112000">
        <ele>390.500000</ele>
        <time>2025-04-11T10:10:58Z</time>
      </trkpt>
      <trkpt lat="45.762336000" lon="5.618165000">
        <ele>390.200000</ele>
        <time>2025-04-11T10:11:08Z</time>
      </trkpt>
      <trkpt lat="45.762403000" lon="5.618171000">
        <ele>391.400000</ele>
        <time>2025-04-11T10:11:17Z</time>
      </trkpt>
      <trkpt lat="45.762465000" lon="5.618133000">
        <ele>400.500000</ele>
        <time>2025-04-11T10:11:26Z</time>
      </trkpt>
      <trkpt lat="45.762493000" lon="5.618056000">
        <ele>388.300000</ele>
        <time>2025-04-11T10:11:36Z</time>
      </trkpt>
      <trkpt lat="45.762615000" lon="5.618041000">
        <ele>402.600000</ele>
        <time>2025-04-11T10:12:04Z</time>
      </trkpt>
      <trkpt lat="45.762703000" lon="5.618056000">
        <ele>390.000000</ele>
        <time>2025-04-11T10:12:14Z</time>
      </trkpt>
      <trkpt lat="45.762794000" lon="5.618045000">
        <ele>389.000000</ele>
        <time>2025-04-11T10:12:24Z</time>
      </trkpt>
      <trkpt lat="45.762910000" lon="5.618093000">
        <ele>390.400000</ele>
        <time>2025-04-11T10:12:34Z</time>
      </trkpt>
      <trkpt lat="45.763004000" lon="5.618089000">
        <ele>405.600000</ele>
        <time>2025-04-11T10:12:44Z</time>
      </trkpt>
      <trkpt lat="45.763126000" lon="5.618124000">
        <ele>390.800000</ele>
        <time>2025-04-11T10:12:53Z</time>
      </trkpt>
      <trkpt lat="45.763189000" lon="5.618148000">
        <ele>392.300000</ele>
        <time>2025-04-11T10:13:02Z</time>
      </trkpt>
      <trkpt lat="45.763308000" lon="5.618160000">
        <ele>392.500000</ele>
        <time>2025-04-11T10:13:12Z</time>
      </trkpt>
      <trkpt lat="45.763434000" lon="5.618179000">
        <ele>393.100000</ele>
        <time>2025-04-11T10:13:22Z</time>
      </trkpt>
      <trkpt lat="45.763526000" lon="5.618203000">
        <ele>392.800000</ele>
        <time>2025-04-11T10:13:32Z</time>
      </trkpt>
      <trkpt lat="45.763622000" lon="5.618223000">
        <ele>393.500000</ele>
        <time>2025-04-11T10:13:41Z</time>
      </trkpt>
      <trkpt lat="45.763715000" lon="5.618269000">
        <ele>394.600000</ele>
        <time>2025-04-11T10:13:50Z</time>
      </trkpt>
      <trkpt lat="45.763778000" lon="5.618315000">
        <ele>399.100000</ele>
        <time>2025-04-11T10:14:00Z</time>
      </trkpt>
      <trkpt lat="45.763766000" lon="5.618333000">
        <ele>399.300000</ele>
        <time>2025-04-11T10:14:10Z</time>
      </trkpt>
      <trkpt lat="45.763774000" lon="5.618486000">
        <ele>399.700000</ele>
        <time>2025-04-11T10:14:20Z</time>
      </trkpt>
      <trkpt lat="45.763779000" lon="5.618612000">
        <ele>397.400000</ele>
        <time>2025-04-11T10:14:29Z</time>
      </trkpt>
      <trkpt lat="45.763834000" lon="5.618736000">
        <ele>394.200000</ele>
        <time>2025-04-11T10:14:38Z</time>
      </trkpt>
      <trkpt lat="45.763892000" lon="5.618814000">
        <ele>393.500000</ele>
        <time>2025-04-11T10:14:48Z</time>
      </trkpt>
      <trkpt lat="45.764000000" lon="5.618895000">
        <ele>392.000000</ele>
        <time>2025-04-11T10:14:57Z</time>
      </trkpt>
      <trkpt lat="45.764102000" lon="5.618963000">
        <ele>392.700000</ele>
        <time>2025-04-11T10:15:06Z</time>
      </trkpt>
      <trkpt lat="45.764195000" lon="5.618930000">
        <ele>391.600000</ele>
        <time>2025-04-11T10:15:16Z</time>
      </trkpt>
      <trkpt lat="45.764284000" lon="5.618896000">
        <ele>389.700000</ele>
        <time>2025-04-11T10:15:25Z</time>
      </trkpt>
      <trkpt lat="45.764375000" lon="5.618944000">
        <ele>388.600000</ele>
        <time>2025-04-11T10:15:34Z</time>
      </trkpt>
      <trkpt lat="45.764492000" lon="5.618970000">
        <ele>388.900000</ele>
        <time>2025-04-11T10:15:44Z</time>
      </trkpt>
      <trkpt lat="45.764509000" lon="5.618964000">
        <ele>388.000000</ele>
        <time>2025-04-11T10:15:53Z</time>
      </trkpt>
      <trkpt lat="45.764535000" lon="5.619026000">
        <ele>386.800000</ele>
        <time>2025-04-11T10:16:02Z</time>
      </trkpt>
      <trkpt lat="45.764571000" lon="5.619141000">
        <ele>386.700000</ele>
        <time>2025-04-11T10:16:12Z</time>
      </trkpt>
      <trkpt lat="45.764587000" lon="5.619241000">
        <ele>384.100000</ele>
        <time>2025-04-11T10:16:22Z</time>
      </trkpt>
      <trkpt lat="45.764709000" lon="5.619355000">
        <ele>382.100000</ele>
        <time>2025-04-11T10:16:32Z</time>
      </trkpt>
      <trkpt lat="45.764780000" lon="5.619381000">
        <ele>382.000000</ele>
        <time>2025-04-11T10:16:41Z</time>
      </trkpt>
      <trkpt lat="45.764808000" lon="5.619389000">
        <ele>382.300000</ele>
        <time>2025-04-11T10:16:50Z</time>
      </trkpt>
      <trkpt lat="45.764939000" lon="5.619373000">
        <ele>382.900000</ele>
        <time>2025-04-11T10:17:00Z</time>
      </trkpt>
      <trkpt lat="45.765040000" lon="5.619352000">
        <ele>383.000000</ele>
        <time>2025-04-11T10:17:09Z</time>
      </trkpt>
      <trkpt lat="45.765112000" lon="5.619254000">
        <ele>382.000000</ele>
        <time>2025-04-11T10:17:18Z</time>
      </trkpt>
      <trkpt lat="45.765201000" lon="5.619204000">
        <ele>382.600000</ele>
        <time>2025-04-11T10:17:28Z</time>
      </trkpt>
      <trkpt lat="45.765313000" lon="5.619131000">
        <ele>382.300000</ele>
        <time>2025-04-11T10:17:37Z</time>
      </trkpt>
      <trkpt lat="45.765401000" lon="5.619067000">
        <ele>383.100000</ele>
        <time>2025-04-11T10:17:46Z</time>
      </trkpt>
      <trkpt lat="45.765608000" lon="5.618974000">
        <ele>381.800000</ele>
        <time>2025-04-11T10:18:06Z</time>
      </trkpt>
      <trkpt lat="45.765671000" lon="5.619059000">
        <ele>380.500000</ele>
        <time>2025-04-11T10:18:16Z</time>
      </trkpt>
      <trkpt lat="45.765717000" lon="5.619073000">
        <ele>379.900000</ele>
        <time>2025-04-11T10:18:25Z</time>
      </trkpt>
      <trkpt lat="45.765820000" lon="5.619060000">
        <ele>378.800000</ele>
        <time>2025-04-11T10:18:34Z</time>
      </trkpt>
      <trkpt lat="45.765892000" lon="5.619055000">
        <ele>377.400000</ele>
        <time>2025-04-11T10:18:44Z</time>
      </trkpt>
      <trkpt lat="45.765935000" lon="5.619022000">
        <ele>377.700000</ele>
        <time>2025-04-11T10:18:54Z</time>
      </trkpt>
      <trkpt lat="45.766026000" lon="5.619025000">
        <ele>376.000000</ele>
        <time>2025-04-11T10:19:04Z</time>
      </trkpt>
      <trkpt lat="45.766092000" lon="5.619015000">
        <ele>373.500000</ele>
        <time>2025-04-11T10:19:14Z</time>
      </trkpt>
      <trkpt lat="45.766115000" lon="5.619061000">
        <ele>373.500000</ele>
        <time>2025-04-11T10:19:24Z</time>
      </trkpt>
      <trkpt lat="45.766147000" lon="5.619111000">
        <ele>372.000000</ele>
        <time>2025-04-11T10:19:33Z</time>
      </trkpt>
      <trkpt lat="45.766165000" lon="5.619190000">
        <ele>372.500000</ele>
        <time>2025-04-11T10:19:42Z</time>
      </trkpt>
      <trkpt lat="45.766170000" lon="5.619330000">
        <ele>370.900000</ele>
        <time>2025-04-11T10:19:52Z</time>
      </trkpt>
      <trkpt lat="45.766181000" lon="5.619384000">
        <ele>367.200000</ele>
        <time>2025-04-11T10:20:12Z</time>
      </trkpt>
      <trkpt lat="45.766183000" lon="5.619385000">
        <ele>366.300000</ele>
        <time>2025-04-11T10:20:22Z</time>
      </trkpt>
      <trkpt lat="45.766209000" lon="5.619333000">
        <ele>365.300000</ele>
        <time>2025-04-11T10:20:32Z</time>
      </trkpt>
      <trkpt lat="45.766244000" lon="5.619299000">
        <ele>366.700000</ele>
        <time>2025-04-11T10:20:41Z</time>
      </trkpt>
      <trkpt lat="45.766377000" lon="5.619325000">
        <ele>368.200000</ele>
        <time>2025-04-11T10:20:50Z</time>
      </trkpt>
      <trkpt lat="45.766446000" lon="5.619306000">
        <ele>368.300000</ele>
        <time>2025-04-11T10:21:00Z</time>
      </trkpt>
      <trkpt lat="45.766555000" lon="5.619298000">
        <ele>365.100000</ele>
        <time>2025-04-11T10:21:10Z</time>
      </trkpt>
      <trkpt lat="45.766677000" lon="5.619314000">
        <ele>359.900000</ele>
        <time>2025-04-11T10:21:20Z</time>
      </trkpt>
      <trkpt lat="45.766745000" lon="5.619317000">
        <ele>360.000000</ele>
        <time>2025-04-11T10:21:30Z</time>
      </trkpt>
      <trkpt lat="45.766843000" lon="5.619326000">
        <ele>360.600000</ele>
        <time>2025-04-11T10:21:40Z</time>
      </trkpt>
      <trkpt lat="45.766933000" lon="5.619282000">
        <ele>361.100000</ele>
        <time>2025-04-11T10:21:49Z</time>
      </trkpt>
      <trkpt lat="45.767037000" lon="5.619268000">
        <ele>360.800000</ele>
        <time>2025-04-11T10:21:58Z</time>
      </trkpt>
      <trkpt lat="45.767145000" lon="5.619229000">
        <ele>361.700000</ele>
        <time>2025-04-11T10:22:08Z</time>
      </trkpt>
      <trkpt lat="45.767222000" lon="5.619239000">
        <ele>363.200000</ele>
        <time>2025-04-11T10:22:17Z</time>
      </trkpt>
      <trkpt lat="45.767334000" lon="5.619203000">
        <ele>361.900000</ele>
        <time>2025-04-11T10:22:26Z</time>
      </trkpt>
      <trkpt lat="45.767534000" lon="5.619064000">
        <ele>364.800000</ele>
        <time>2025-04-11T10:22:46Z</time>
      </trkpt>
      <trkpt lat="45.767631000" lon="5.619003000">
        <ele>364.200000</ele>
        <time>2025-04-11T10:22:56Z</time>
      </trkpt>
      <trkpt lat="45.767738000" lon="5.618990000">
        <ele>362.900000</ele>
        <time>2025-04-11T10:23:05Z</time>
      </trkpt>
      <trkpt lat="45.767816000" lon="5.618998000">
        <ele>362.900000</ele>
        <time>2025-04-11T10:23:14Z</time>
      </trkpt>
      <trkpt lat="45.767879000" lon="5.619038000">
        <ele>361.900000</ele>
        <time>2025-04-11T10:23:24Z</time>
      </trkpt>
      <trkpt lat="45.767911000" lon="5.619095000">
        <ele>361.900000</ele>
        <time>2025-04-11T10:23:34Z</time>
      </trkpt>
      <trkpt lat="45.767931000" lon="5.619137000">
        <ele>362.800000</ele>
        <time>2025-04-11T10:23:44Z</time>
      </trkpt>
      <trkpt lat="45.768049000" lon="5.619233000">
        <ele>363.300000</ele>
        <time>2025-04-11T10:23:53Z</time>
      </trkpt>
      <trkpt lat="45.768188000" lon="5.619248000">
        <ele>362.000000</ele>
        <time>2025-04-11T10:24:02Z</time>
      </trkpt>
      <trkpt lat="45.768264000" lon="5.619217000">
        <ele>362.100000</ele>
        <time>2025-04-11T10:24:12Z</time>
      </trkpt>
      <trkpt lat="45.768364000" lon="5.619158000">
        <ele>362.500000</ele>
        <time>2025-04-11T10:24:22Z</time>
      </trkpt>
      <trkpt lat="45.768450000" lon="5.619118000">
        <ele>363.900000</ele>
        <time>2025-04-11T10:24:32Z</time>
      </trkpt>
      <trkpt lat="45.768552000" lon="5.619010000">
        <ele>362.500000</ele>
        <time>2025-04-11T10:24:42Z</time>
      </trkpt>
      <trkpt lat="45.768617000" lon="5.618935000">
        <ele>362.700000</ele>
        <time>2025-04-11T10:24:52Z</time>
      </trkpt>
      <trkpt lat="45.768695000" lon="5.618815000">
        <ele>362.000000</ele>
        <time>2025-04-11T10:25:02Z</time>
      </trkpt>
      <trkpt lat="45.768786000" lon="5.618741000">
        <ele>362.700000</ele>
        <time>2025-04-11T10:25:12Z</time>
      </trkpt>
      <trkpt lat="45.768854000" lon="5.618629000">
        <ele>362.700000</ele>
        <time>2025-04-11T10:25:21Z</time>
      </trkpt>
      <trkpt lat="45.768915000" lon="5.618502000">
        <ele>364.000000</ele>
        <time>2025-04-11T10:25:30Z</time>
      </trkpt>
      <trkpt lat="45.769010000" lon="5.618444000">
        <ele>366.300000</ele>
        <time>2025-04-11T10:25:40Z</time>
      </trkpt>
      <trkpt lat="45.769094000" lon="5.618418000">
        <ele>368.000000</ele>
        <time>2025-04-11T10:25:49Z</time>
      </trkpt>
      <trkpt lat="45.769258000" lon="5.618398000">
        <ele>368.600000</ele>
        <time>2025-04-11T10:26:08Z</time>
      </trkpt>
      <trkpt lat="45.769399000" lon="5.618403000">
        <ele>366.300000</ele>
        <time>2025-04-11T10:26:17Z</time>
      </trkpt>
      <trkpt lat="45.769404000" lon="5.618378000">
        <ele>364.300000</ele>
        <time>2025-04-11T10:27:45Z</time>
      </trkpt>
      <trkpt lat="45.769453000" lon="5.618359000">
        <ele>362.600000</ele>
        <time>2025-04-11T10:27:55Z</time>
      </trkpt>
      <trkpt lat="45.769458000" lon="5.618371000">
        <ele>362.600000</ele>
        <time>2025-04-11T10:28:04Z</time>
      </trkpt>
      <trkpt lat="45.769567000" lon="5.618381000">
        <ele>363.400000</ele>
        <time>2025-04-11T10:28:13Z</time>
      </trkpt>
      <trkpt lat="45.769691000" lon="5.618294000">
        <ele>365.400000</ele>
        <time>2025-04-11T10:28:23Z</time>
      </trkpt>
      <trkpt lat="45.769775000" lon="5.618202000">
        <ele>365.800000</ele>
        <time>2025-04-11T10:28:32Z</time>
      </trkpt>
      <trkpt lat="45.769863000" lon="5.618140000">
        <ele>367.000000</ele>
        <time>2025-04-11T10:28:41Z</time>
      </trkpt>
      <trkpt lat="45.769952000" lon="5.618039000">
        <ele>367.800000</ele>
        <time>2025-04-11T10:28:51Z</time>
      </trkpt>
      <trkpt lat="45.770037000" lon="5.617970000">
        <ele>369.800000</ele>
        <time>2025-04-11T10:29:01Z</time>
      </trkpt>
      <trkpt lat="45.770120000" lon="5.617918000">
        <ele>370.000000</ele>
        <time>2025-04-11T10:29:11Z</time>
      </trkpt>
      <trkpt lat="45.770204000" lon="5.617830000">
        <ele>370.700000</ele>
        <time>2025-04-11T10:29:21Z</time>
      </trkpt>
      <trkpt lat="45.770305000" lon="5.617616000">
        <ele>369.800000</ele>
        <time>2025-04-11T10:29:31Z</time>
      </trkpt>
      <trkpt lat="45.770367000" lon="5.617531000">
        <ele>367.500000</ele>
        <time>2025-04-11T10:29:40Z</time>
      </trkpt>
      <trkpt lat="45.770424000" lon="5.617414000">
        <ele>366.300000</ele>
        <time>2025-04-11T10:29:49Z</time>
      </trkpt>
      <trkpt lat="45.770501000" lon="5.617388000">
        <ele>368.200000</ele>
        <time>2025-04-11T10:29:59Z</time>
      </trkpt>
      <trkpt lat="45.770550000" lon="5.617310000">
        <ele>369.000000</ele>
        <time>2025-04-11T10:30:08Z</time>
      </trkpt>
      <trkpt lat="45.770588000" lon="5.617214000">
        <ele>369.200000</ele>
        <time>2025-04-11T10:30:17Z</time>
      </trkpt>
      <trkpt lat="45.770622000" lon="5.617078000">
        <ele>370.000000</ele>
        <time>2025-04-11T10:30:27Z</time>
      </trkpt>
      <trkpt lat="45.770657000" lon="5.616880000">
        <ele>371.300000</ele>
        <time>2025-04-11T10:30:36Z</time>
      </trkpt>
      <trkpt lat="45.770671000" lon="5.616736000">
        <ele>370.200000</ele>
        <time>2025-04-11T10:30:45Z</time>
      </trkpt>
      <trkpt lat="45.770704000" lon="5.616591000">
        <ele>371.300000</ele>
        <time>2025-04-11T10:30:55Z</time>
      </trkpt>
      <trkpt lat="45.770726000" lon="5.616314000">
        <ele>372.200000</ele>
        <time>2025-04-11T10:31:13Z</time>
      </trkpt>
      <trkpt lat="45.770740000" lon="5.616166000">
        <ele>373.100000</ele>
        <time>2025-04-11T10:31:23Z</time>
      </trkpt>
      <trkpt lat="45.770785000" lon="5.616037000">
        <ele>374.100000</ele>
        <time>2025-04-11T10:31:32Z</time>
      </trkpt>
      <trkpt lat="45.770805000" lon="5.615894000">
        <ele>374.600000</ele>
        <time>2025-04-11T10:31:41Z</time>
      </trkpt>
      <trkpt lat="45.770833000" lon="5.615725000">
        <ele>373.500000</ele>
        <time>2025-04-11T10:31:51Z</time>
      </trkpt>
      <trkpt lat="45.770832000" lon="5.615550000">
        <ele>373.700000</ele>
        <time>2025-04-11T10:32:01Z</time>
      </trkpt>
      <trkpt lat="45.770833000" lon="5.615412000">
        <ele>373.400000</ele>
        <time>2025-04-11T10:32:11Z</time>
      </trkpt>
      <trkpt lat="45.770845000" lon="5.615251000">
        <ele>373.100000</ele>
        <time>2025-04-11T10:32:20Z</time>
      </trkpt>
      <trkpt lat="45.770841000" lon="5.615116000">
        <ele>372.500000</ele>
        <time>2025-04-11T10:32:29Z</time>
      </trkpt>
      <trkpt lat="45.770894000" lon="5.614980000">
        <ele>371.400000</ele>
        <time>2025-04-11T10:32:39Z</time>
      </trkpt>
      <trkpt lat="45.770921000" lon="5.614929000">
        <ele>371.900000</ele>
        <time>2025-04-11T10:32:49Z</time>
      </trkpt>
      <trkpt lat="45.770960000" lon="5.614776000">
        <ele>374.800000</ele>
        <time>2025-04-11T10:32:59Z</time>
      </trkpt>
      <trkpt lat="45.771016000" lon="5.614655000">
        <ele>375.900000</ele>
        <time>2025-04-11T10:33:09Z</time>
      </trkpt>
      <trkpt lat="45.771072000" lon="5.614528000">
        <ele>376.700000</ele>
        <time>2025-04-11T10:33:19Z</time>
      </trkpt>
      <trkpt lat="45.771129000" lon="5.614404000">
        <ele>376.900000</ele>
        <time>2025-04-11T10:33:29Z</time>
      </trkpt>
      <trkpt lat="45.771188000" lon="5.614281000">
        <ele>376.400000</ele>
        <time>2025-04-11T10:33:39Z</time>
      </trkpt>
      <trkpt lat="45.771222000" lon="5.614251000">
        <ele>377.900000</ele>
        <time>2025-04-11T10:33:49Z</time>
      </trkpt>
      <trkpt lat="45.771222000" lon="5.614257000">
        <ele>378.800000</ele>
        <time>2025-04-11T10:33:59Z</time>
      </trkpt>
      <trkpt lat="45.771231000" lon="5.614265000">
        <ele>379.800000</ele>
        <time>2025-04-11T10:34:09Z</time>
      </trkpt>
      <trkpt lat="45.771263000" lon="5.614310000">
        <ele>378.500000</ele>
        <time>2025-04-11T10:34:19Z</time>
      </trkpt>
      <trkpt lat="45.771306000" lon="5.614384000">
        <ele>377.900000</ele>
        <time>2025-04-11T10:34:28Z</time>
      </trkpt>
      <trkpt lat="45.771392000" lon="5.614481000">
        <ele>376.600000</ele>
        <time>2025-04-11T10:34:37Z</time>
      </trkpt>
      <trkpt lat="45.771484000" lon="5.614606000">
        <ele>376.200000</ele>
        <time>2025-04-11T10:34:47Z</time>
      </trkpt>
      <trkpt lat="45.771559000" lon="5.614722000">
        <ele>375.000000</ele>
        <time>2025-04-11T10:34:57Z</time>
      </trkpt>
      <trkpt lat="45.771698000" lon="5.614963000">
        <ele>375.200000</ele>
        <time>2025-04-11T10:35:16Z</time>
      </trkpt>
      <trkpt lat="45.771779000" lon="5.615054000">
        <ele>376.100000</ele>
        <time>2025-04-11T10:35:25Z</time>
      </trkpt>
      <trkpt lat="45.771856000" lon="5.615175000">
        <ele>375.700000</ele>
        <time>2025-04-11T10:35:35Z</time>
      </trkpt>
      <trkpt lat="45.771907000" lon="5.615300000">
        <ele>374.500000</ele>
        <time>2025-04-11T10:35:44Z</time>
      </trkpt>
      <trkpt lat="45.771949000" lon="5.615391000">
        <ele>373.800000</ele>
        <time>2025-04-11T10:35:53Z</time>
      </trkpt>
      <trkpt lat="45.772026000" lon="5.615382000">
        <ele>374.200000</ele>
        <time>2025-04-11T10:36:03Z</time>
      </trkpt>
      <trkpt lat="45.772100000" lon="5.615466000">
        <ele>374.500000</ele>
        <time>2025-04-11T10:36:13Z</time>
      </trkpt>
      <trkpt lat="45.772166000" lon="5.615430000">
        <ele>371.900000</ele>
        <time>2025-04-11T10:36:23Z</time>
      </trkpt>
      <trkpt lat="45.772204000" lon="5.615381000">
        <ele>372.100000</ele>
        <time>2025-04-11T10:36:32Z</time>
      </trkpt>
      <trkpt lat="45.772186000" lon="5.615408000">
        <ele>375.600000</ele>
        <time>2025-04-11T10:41:55Z</time>
      </trkpt>
      <trkpt lat="45.772179000" lon="5.615496000">
        <ele>375.800000</ele>
        <time>2025-04-11T10:42:05Z</time>
      </trkpt>
      <trkpt lat="45.772205000" lon="5.615676000">
        <ele>374.700000</ele>
        <time>2025-04-11T10:42:15Z</time>
      </trkpt>
      <trkpt lat="45.772247000" lon="5.615734000">
        <ele>374.700000</ele>
        <time>2025-04-11T10:42:25Z</time>
      </trkpt>
      <trkpt lat="45.772232000" lon="5.615880000">
        <ele>376.700000</ele>
        <time>2025-04-11T10:42:35Z</time>
      </trkpt>
      <trkpt lat="45.772220000" lon="5.616027000">
        <ele>377.300000</ele>
        <time>2025-04-11T10:42:44Z</time>
      </trkpt>
      <trkpt lat="45.772226000" lon="5.616110000">
        <ele>377.300000</ele>
        <time>2025-04-11T10:42:53Z</time>
      </trkpt>
      <trkpt lat="45.772232000" lon="5.616285000">
        <ele>379.000000</ele>
        <time>2025-04-11T10:43:03Z</time>
      </trkpt>
      <trkpt lat="45.772281000" lon="5.616443000">
        <ele>380.500000</ele>
        <time>2025-04-11T10:43:12Z</time>
      </trkpt>
      <trkpt lat="45.772326000" lon="5.616569000">
        <ele>381.600000</ele>
        <time>2025-04-11T10:43:21Z</time>
      </trkpt>
      <trkpt lat="45.772395000" lon="5.616704000">
        <ele>382.400000</ele>
        <time>2025-04-11T10:43:31Z</time>
      </trkpt>
      <trkpt lat="45.772463000" lon="5.616895000">
        <ele>382.500000</ele>
        <time>2025-04-11T10:43:41Z</time>
      </trkpt>
      <trkpt lat="45.772521000" lon="5.616978000">
        <ele>382.100000</ele>
        <time>2025-04-11T10:43:51Z</time>
      </trkpt>
      <trkpt lat="45.772609000" lon="5.617085000">
        <ele>382.900000</ele>
        <time>2025-04-11T10:44:01Z</time>
      </trkpt>
      <trkpt lat="45.772661000" lon="5.617204000">
        <ele>384.000000</ele>
        <time>2025-04-11T10:44:11Z</time>
      </trkpt>
      <trkpt lat="45.772715000" lon="5.617301000">
        <ele>384.900000</ele>
        <time>2025-04-11T10:44:21Z</time>
      </trkpt>
      <trkpt lat="45.772780000" lon="5.617401000">
        <ele>385.500000</ele>
        <time>2025-04-11T10:44:31Z</time>
      </trkpt>
      <trkpt lat="45.772881000" lon="5.617493000">
        <ele>384.200000</ele>
        <time>2025-04-11T10:44:41Z</time>
      </trkpt>
      <trkpt lat="45.772977000" lon="5.617592000">
        <ele>384.500000</ele>
        <time>2025-04-11T10:44:51Z</time>
      </trkpt>
      <trkpt lat="45.773049000" lon="5.617688000">
        <ele>385.900000</ele>
        <time>2025-04-11T10:45:01Z</time>
      </trkpt>
      <trkpt lat="45.773124000" lon="5.617772000">
        <ele>386.600000</ele>
        <time>2025-04-11T10:45:11Z</time>
      </trkpt>
      <trkpt lat="45.773197000" lon="5.617847000">
        <ele>385.700000</ele>
        <time>2025-04-11T10:45:21Z</time>
      </trkpt>
      <trkpt lat="45.773279000" lon="5.617945000">
        <ele>386.300000</ele>
        <time>2025-04-11T10:45:31Z</time>
      </trkpt>
      <trkpt lat="45.773332000" lon="5.618037000">
        <ele>386.700000</ele>
        <time>2025-04-11T10:45:41Z</time>
      </trkpt>
      <trkpt lat="45.773400000" lon="5.618126000">
        <ele>388.400000</ele>
        <time>2025-04-11T10:45:52Z</time>
      </trkpt>
      <trkpt lat="45.773471000" lon="5.618214000">
        <ele>388.500000</ele>
        <time>2025-04-11T10:46:01Z</time>
      </trkpt>
      <trkpt lat="45.773541000" lon="5.618245000">
        <ele>390.500000</ele>
        <time>2025-04-11T10:46:10Z</time>
      </trkpt>
      <trkpt lat="45.773647000" lon="5.618309000">
        <ele>391.300000</ele>
        <time>2025-04-11T10:46:20Z</time>
      </trkpt>
      <trkpt lat="45.773733000" lon="5.618421000">
        <ele>392.600000</ele>
        <time>2025-04-11T10:46:30Z</time>
      </trkpt>
      <trkpt lat="45.773771000" lon="5.618558000">
        <ele>392.900000</ele>
        <time>2025-04-11T10:46:40Z</time>
      </trkpt>
      <trkpt lat="45.773812000" lon="5.618653000">
        <ele>392.600000</ele>
        <time>2025-04-11T10:46:49Z</time>
      </trkpt>
      <trkpt lat="45.773818000" lon="5.618781000">
        <ele>393.800000</ele>
        <time>2025-04-11T10:46:58Z</time>
      </trkpt>
      <trkpt lat="45.773878000" lon="5.618924000">
        <ele>393.800000</ele>
        <time>2025-04-11T10:47:08Z</time>
      </trkpt>
      <trkpt lat="45.773946000" lon="5.619031000">
        <ele>393.500000</ele>
        <time>2025-04-11T10:47:18Z</time>
      </trkpt>
      <trkpt lat="45.773976000" lon="5.619169000">
        <ele>393.900000</ele>
        <time>2025-04-11T10:47:28Z</time>
      </trkpt>
      <trkpt lat="45.774086000" lon="5.619454000">
        <ele>395.300000</ele>
        <time>2025-04-11T10:47:48Z</time>
      </trkpt>
      <trkpt lat="45.774133000" lon="5.619569000">
        <ele>396.600000</ele>
        <time>2025-04-11T10:47:57Z</time>
      </trkpt>
      <trkpt lat="45.774204000" lon="5.619683000">
        <ele>397.400000</ele>
        <time>2025-04-11T10:48:06Z</time>
      </trkpt>
      <trkpt lat="45.774256000" lon="5.619805000">
        <ele>397.700000</ele>
        <time>2025-04-11T10:48:16Z</time>
      </trkpt>
      <trkpt lat="45.774340000" lon="5.619826000">
        <ele>397.400000</ele>
        <time>2025-04-11T10:48:26Z</time>
      </trkpt>
      <trkpt lat="45.774369000" lon="5.619797000">
        <ele>397.400000</ele>
        <time>2025-04-11T10:48:36Z</time>
      </trkpt>
      <trkpt lat="45.774384000" lon="5.619824000">
        <ele>399.200000</ele>
        <time>2025-04-11T10:48:45Z</time>
      </trkpt>
      <trkpt lat="45.774447000" lon="5.619770000">
        <ele>396.900000</ele>
        <time>2025-04-11T10:48:54Z</time>
      </trkpt>
      <trkpt lat="45.774546000" lon="5.619788000">
        <ele>395.900000</ele>
        <time>2025-04-11T10:49:04Z</time>
      </trkpt>
      <trkpt lat="45.774608000" lon="5.619787000">
        <ele>397.600000</ele>
        <time>2025-04-11T10:49:42Z</time>
      </trkpt>
      <trkpt lat="45.774696000" lon="5.619728000">
        <ele>396.400000</ele>
        <time>2025-04-11T10:49:52Z</time>
      </trkpt>
      <trkpt lat="45.774778000" lon="5.619687000">
        <ele>397.000000</ele>
        <time>2025-04-11T10:50:02Z</time>
      </trkpt>
      <trkpt lat="45.774893000" lon="5.619648000">
        <ele>396.300000</ele>
        <time>2025-04-11T10:50:12Z</time>
      </trkpt>
      <trkpt lat="45.775005000" lon="5.619632000">
        <ele>396.000000</ele>
        <time>2025-04-11T10:50:22Z</time>
      </trkpt>
      <trkpt lat="45.775106000" lon="5.619593000">
        <ele>394.900000</ele>
        <time>2025-04-11T10:50:32Z</time>
      </trkpt>
      <trkpt lat="45.775203000" lon="5.619496000">
        <ele>391.800000</ele>
        <time>2025-04-11T10:50:42Z</time>
      </trkpt>
      <trkpt lat="45.775283000" lon="5.619461000">
        <ele>390.800000</ele>
        <time>2025-04-11T10:50:52Z</time>
      </trkpt>
      <trkpt lat="45.775383000" lon="5.619486000">
        <ele>393.100000</ele>
        <time>2025-04-11T10:51:01Z</time>
      </trkpt>
      <trkpt lat="45.775474000" lon="5.619399000">
        <ele>390.700000</ele>
        <time>2025-04-11T10:51:10Z</time>
      </trkpt>
      <trkpt lat="45.775581000" lon="5.619377000">
        <ele>389.300000</ele>
        <time>2025-04-11T10:51:20Z</time>
      </trkpt>
      <trkpt lat="45.775679000" lon="5.619424000">
        <ele>389.700000</ele>
        <time>2025-04-11T10:51:30Z</time>
      </trkpt>
      <trkpt lat="45.775769000" lon="5.619441000">
        <ele>388.900000</ele>
        <time>2025-04-11T10:51:40Z</time>
      </trkpt>
      <trkpt lat="45.775798000" lon="5.619432000">
        <ele>390.000000</ele>
        <time>2025-04-11T10:51:49Z</time>
      </trkpt>
      <trkpt lat="45.775968000" lon="5.619395000">
        <ele>390.100000</ele>
        <time>2025-04-11T10:51:58Z</time>
      </trkpt>
      <trkpt lat="45.776066000" lon="5.619450000">
        <ele>390.100000</ele>
        <time>2025-04-11T10:52:08Z</time>
      </trkpt>
      <trkpt lat="45.776167000" lon="5.619502000">
        <ele>389.200000</ele>
        <time>2025-04-11T10:52:17Z</time>
      </trkpt>
      <trkpt lat="45.776251000" lon="5.619550000">
        <ele>388.500000</ele>
        <time>2025-04-11T10:52:26Z</time>
      </trkpt>
      <trkpt lat="45.776364000" lon="5.619538000">
        <ele>387.600000</ele>
        <time>2025-04-11T10:52:36Z</time>
      </trkpt>
      <trkpt lat="45.776443000" lon="5.619598000">
        <ele>384.900000</ele>
        <time>2025-04-11T10:52:45Z</time>
      </trkpt>
      <trkpt lat="45.776550000" lon="5.619599000">
        <ele>384.300000</ele>
        <time>2025-04-11T10:52:54Z</time>
      </trkpt>
      <trkpt lat="45.776653000" lon="5.619562000">
        <ele>383.000000</ele>
        <time>2025-04-11T10:53:04Z</time>
      </trkpt>
      <trkpt lat="45.776792000" lon="5.619500000">
        <ele>382.300000</ele>
        <time>2025-04-11T10:53:14Z</time>
      </trkpt>
      <trkpt lat="45.776875000" lon="5.619456000">
        <ele>380.500000</ele>
        <time>2025-04-11T10:53:24Z</time>
      </trkpt>
      <trkpt lat="45.776960000" lon="5.619388000">
        <ele>379.500000</ele>
        <time>2025-04-11T10:53:34Z</time>
      </trkpt>
      <trkpt lat="45.777003000" lon="5.619333000">
        <ele>379.800000</ele>
        <time>2025-04-11T10:53:44Z</time>
      </trkpt>
      <trkpt lat="45.777008000" lon="5.619156000">
        <ele>379.500000</ele>
        <time>2025-04-11T10:53:54Z</time>
      </trkpt>
      <trkpt lat="45.777031000" lon="5.619062000">
        <ele>379.200000</ele>
        <time>2025-04-11T10:54:04Z</time>
      </trkpt>
      <trkpt lat="45.777028000" lon="5.618978000">
        <ele>378.600000</ele>
        <time>2025-04-11T10:54:13Z</time>
      </trkpt>
      <trkpt lat="45.777071000" lon="5.618847000">
        <ele>378.700000</ele>
        <time>2025-04-11T10:54:22Z</time>
      </trkpt>
      <trkpt lat="45.777099000" lon="5.618783000">
        <ele>378.900000</ele>
        <time>2025-04-11T10:54:32Z</time>
      </trkpt>
      <trkpt lat="45.777130000" lon="5.618647000">
        <ele>378.100000</ele>
        <time>2025-04-11T10:54:41Z</time>
      </trkpt>
      <trkpt lat="45.777182000" lon="5.618521000">
        <ele>378.300000</ele>
        <time>2025-04-11T10:54:50Z</time>
      </trkpt>
      <trkpt lat="45.777234000" lon="5.618360000">
        <ele>378.100000</ele>
        <time>2025-04-11T10:55:00Z</time>
      </trkpt>
      <trkpt lat="45.777232000" lon="5.618181000">
        <ele>376.600000</ele>
        <time>2025-04-11T10:55:09Z</time>
      </trkpt>
      <trkpt lat="45.777272000" lon="5.618050000">
        <ele>376.400000</ele>
        <time>2025-04-11T10:55:18Z</time>
      </trkpt>
      <trkpt lat="45.777322000" lon="5.617931000">
        <ele>376.900000</ele>
        <time>2025-04-11T10:55:28Z</time>
      </trkpt>
      <trkpt lat="45.777365000" lon="5.617770000">
        <ele>378.200000</ele>
        <time>2025-04-11T10:55:37Z</time>
      </trkpt>
      <trkpt lat="45.777378000" lon="5.617617000">
        <ele>379.800000</ele>
        <time>2025-04-11T10:55:46Z</time>
      </trkpt>
      <trkpt lat="45.777406000" lon="5.617483000">
        <ele>379.800000</ele>
        <time>2025-04-11T10:55:56Z</time>
      </trkpt>
      <trkpt lat="45.777429000" lon="5.617338000">
        <ele>377.100000</ele>
        <time>2025-04-11T10:56:06Z</time>
      </trkpt>
      <trkpt lat="45.777452000" lon="5.617148000">
        <ele>377.800000</ele>
        <time>2025-04-11T10:56:16Z</time>
      </trkpt>
      <trkpt lat="45.777500000" lon="5.616987000">
        <ele>378.500000</ele>
        <time>2025-04-11T10:56:26Z</time>
      </trkpt>
      <trkpt lat="45.777522000" lon="5.616821000">
        <ele>378.300000</ele>
        <time>2025-04-11T10:56:36Z</time>
      </trkpt>
      <trkpt lat="45.777571000" lon="5.616687000">
        <ele>378.600000</ele>
        <time>2025-04-11T10:56:46Z</time>
      </trkpt>
      <trkpt lat="45.777609000" lon="5.616550000">
        <ele>379.200000</ele>
        <time>2025-04-11T10:56:56Z</time>
      </trkpt>
      <trkpt lat="45.777671000" lon="5.616303000">
        <ele>379.800000</ele>
        <time>2025-04-11T10:57:14Z</time>
      </trkpt>
      <trkpt lat="45.777687000" lon="5.616124000">
        <ele>381.300000</ele>
        <time>2025-04-11T10:57:24Z</time>
      </trkpt>
      <trkpt lat="45.777670000" lon="5.616021000">
        <ele>382.700000</ele>
        <time>2025-04-11T10:57:33Z</time>
      </trkpt>
      <trkpt lat="45.777706000" lon="5.615920000">
        <ele>383.000000</ele>
        <time>2025-04-11T10:57:42Z</time>
      </trkpt>
      <trkpt lat="45.777695000" lon="5.615914000">
        <ele>381.700000</ele>
        <time>2025-04-11T10:57:52Z</time>
      </trkpt>
      <trkpt lat="45.777689000" lon="5.615880000">
        <ele>381.900000</ele>
        <time>2025-04-11T10:58:01Z</time>
      </trkpt>
      <trkpt lat="45.777701000" lon="5.615726000">
        <ele>383.300000</ele>
        <time>2025-04-11T10:58:10Z</time>
      </trkpt>
      <trkpt lat="45.777718000" lon="5.615545000">
        <ele>382.400000</ele>
        <time>2025-04-11T10:58:20Z</time>
      </trkpt>
      <trkpt lat="45.777733000" lon="5.615439000">
        <ele>382.600000</ele>
        <time>2025-04-11T10:58:29Z</time>
      </trkpt>
      <trkpt lat="45.777724000" lon="5.615355000">
        <ele>382.100000</ele>
        <time>2025-04-11T10:58:38Z</time>
      </trkpt>
      <trkpt lat="45.777740000" lon="5.615225000">
        <ele>383.000000</ele>
        <time>2025-04-11T10:58:48Z</time>
      </trkpt>
      <trkpt lat="45.777734000" lon="5.615144000">
        <ele>383.700000</ele>
        <time>2025-04-11T10:58:58Z</time>
      </trkpt>
      <trkpt lat="45.777733000" lon="5.615033000">
        <ele>383.700000</ele>
        <time>2025-04-11T10:59:08Z</time>
      </trkpt>
      <trkpt lat="45.777753000" lon="5.614881000">
        <ele>384.600000</ele>
        <time>2025-04-11T10:59:18Z</time>
      </trkpt>
      <trkpt lat="45.777839000" lon="5.614659000">
        <ele>387.600000</ele>
        <time>2025-04-11T10:59:38Z</time>
      </trkpt>
      <trkpt lat="45.777875000" lon="5.614500000">
        <ele>387.900000</ele>
        <time>2025-04-11T10:59:48Z</time>
      </trkpt>
      <trkpt lat="45.777924000" lon="5.614375000">
        <ele>390.700000</ele>
        <time>2025-04-11T10:59:57Z</time>
      </trkpt>
      <trkpt lat="45.777942000" lon="5.614192000">
        <ele>391.000000</ele>
        <time>2025-04-11T11:00:06Z</time>
      </trkpt>
      <trkpt lat="45.777981000" lon="5.614011000">
        <ele>389.000000</ele>
        <time>2025-04-11T11:00:16Z</time>
      </trkpt>
      <trkpt lat="45.778001000" lon="5.613860000">
        <ele>389.000000</ele>
        <time>2025-04-11T11:00:26Z</time>
      </trkpt>
      <trkpt lat="45.778050000" lon="5.613786000">
        <ele>391.100000</ele>
        <time>2025-04-11T11:00:36Z</time>
      </trkpt>
      <trkpt lat="45.778075000" lon="5.613807000">
        <ele>392.000000</ele>
        <time>2025-04-11T11:00:45Z</time>
      </trkpt>
      <trkpt lat="45.778080000" lon="5.613829000">
        <ele>391.200000</ele>
        <time>2025-04-11T11:00:54Z</time>
      </trkpt>
      <trkpt lat="45.778074000" lon="5.613825000">
        <ele>391.300000</ele>
        <time>2025-04-11T11:01:04Z</time>
      </trkpt>
      <trkpt lat="45.778070000" lon="5.613825000">
        <ele>391.500000</ele>
        <time>2025-04-11T11:01:14Z</time>
      </trkpt>
      <trkpt lat="45.778061000" lon="5.613806000">
        <ele>391.500000</ele>
        <time>2025-04-11T11:01:23Z</time>
      </trkpt>
      <trkpt lat="45.778065000" lon="5.613792000">
        <ele>391.200000</ele>
        <time>2025-04-11T11:01:33Z</time>
        <cmt>Fontaine</cmt>
        <desc>Fontaine</desc>
      </trkpt>
      <trkpt lat="45.778046000" lon="5.613757000">
        <ele>391.500000</ele>
        <time>2025-04-11T11:01:42Z</time>
      </trkpt>
      <trkpt lat="45.777985000" lon="5.613712000">
        <ele>390.600000</ele>
        <time>2025-04-11T11:01:52Z</time>
      </trkpt>
      <trkpt lat="45.777987000" lon="5.613682000">
        <ele>392.800000</ele>
        <time>2025-04-11T11:02:02Z</time>
      </trkpt>
      <trkpt lat="45.778012000" lon="5.613656000">
        <ele>394.000000</ele>
        <time>2025-04-11T11:02:11Z</time>
      </trkpt>
      <trkpt lat="45.778065000" lon="5.613532000">
        <ele>393.900000</ele>
        <time>2025-04-11T11:02:20Z</time>
      </trkpt>
      <trkpt lat="45.778141000" lon="5.613517000">
        <ele>393.700000</ele>
        <time>2025-04-11T11:02:29Z</time>
      </trkpt>
      <trkpt lat="45.778289000" lon="5.613588000">
        <ele>392.600000</ele>
        <time>2025-04-11T11:02:39Z</time>
      </trkpt>
      <trkpt lat="45.778378000" lon="5.613713000">
        <ele>393.500000</ele>
        <time>2025-04-11T11:02:49Z</time>
      </trkpt>
      <trkpt lat="45.778442000" lon="5.613781000">
        <ele>393.000000</ele>
        <time>2025-04-11T11:02:59Z</time>
      </trkpt>
      <trkpt lat="45.778523000" lon="5.613863000">
        <ele>391.900000</ele>
        <time>2025-04-11T11:03:08Z</time>
      </trkpt>
      <trkpt lat="45.778582000" lon="5.613941000">
        <ele>392.500000</ele>
        <time>2025-04-11T11:03:17Z</time>
      </trkpt>
      <trkpt lat="45.778489000" lon="5.614084000">
        <ele>393.200000</ele>
        <time>2025-04-11T11:03:27Z</time>
      </trkpt>
      <trkpt lat="45.778437000" lon="5.614203000">
        <ele>392.900000</ele>
        <time>2025-04-11T11:03:36Z</time>
      </trkpt>
      <trkpt lat="45.778416000" lon="5.614302000">
        <ele>392.900000</ele>
        <time>2025-04-11T11:03:45Z</time>
      </trkpt>
      <trkpt lat="45.778444000" lon="5.614460000">
        <ele>392.400000</ele>
        <time>2025-04-11T11:03:55Z</time>
      </trkpt>
      <trkpt lat="45.778539000" lon="5.614559000">
        <ele>388.900000</ele>
        <time>2025-04-11T11:04:04Z</time>
      </trkpt>
      <trkpt lat="45.778607000" lon="5.614620000">
        <ele>389.000000</ele>
        <time>2025-04-11T11:04:13Z</time>
      </trkpt>
      <trkpt lat="45.778721000" lon="5.614710000">
        <ele>388.800000</ele>
        <time>2025-04-11T11:04:23Z</time>
      </trkpt>
      <trkpt lat="45.778815000" lon="5.614774000">
        <ele>388.400000</ele>
        <time>2025-04-11T11:04:32Z</time>
      </trkpt>
      <trkpt lat="45.778907000" lon="5.614850000">
        <ele>387.900000</ele>
        <time>2025-04-11T11:04:41Z</time>
      </trkpt>
      <trkpt lat="45.778993000" lon="5.614911000">
        <ele>388.000000</ele>
        <time>2025-04-11T11:04:51Z</time>
      </trkpt>
      <trkpt lat="45.779070000" lon="5.614978000">
        <ele>387.900000</ele>
        <time>2025-04-11T11:05:00Z</time>
      </trkpt>
      <trkpt lat="45.779129000" lon="5.615061000">
        <ele>387.400000</ele>
        <time>2025-04-11T11:05:09Z</time>
      </trkpt>
      <trkpt lat="45.779322000" lon="5.615187000">
        <ele>386.400000</ele>
        <time>2025-04-11T11:05:28Z</time>
      </trkpt>
      <trkpt lat="45.779334000" lon="5.615211000">
        <ele>386.800000</ele>
        <time>2025-04-11T11:05:37Z</time>
      </trkpt>
      <trkpt lat="45.779395000" lon="5.615219000">
        <ele>387.000000</ele>
        <time>2025-04-11T11:05:47Z</time>
      </trkpt>
      <trkpt lat="45.779393000" lon="5.615214000">
        <ele>387.300000</ele>
        <time>2025-04-11T11:05:56Z</time>
      </trkpt>
      <trkpt lat="45.779394000" lon="5.615210000">
        <ele>386.200000</ele>
        <time>2025-04-11T11:06:05Z</time>
      </trkpt>
      <trkpt lat="45.779397000" lon="5.615210000">
        <ele>385.900000</ele>
        <time>2025-04-11T11:06:15Z</time>
      </trkpt>
      <trkpt lat="45.779436000" lon="5.615290000">
        <ele>383.900000</ele>
        <time>2025-04-11T11:06:25Z</time>
      </trkpt>
      <trkpt lat="45.779496000" lon="5.615328000">
        <ele>384.400000</ele>
        <time>2025-04-11T11:06:35Z</time>
      </trkpt>
      <trkpt lat="45.779576000" lon="5.615410000">
        <ele>384.300000</ele>
        <time>2025-04-11T11:06:44Z</time>
      </trkpt>
      <trkpt lat="45.779635000" lon="5.615453000">
        <ele>384.600000</ele>
        <time>2025-04-11T11:06:53Z</time>
      </trkpt>
      <trkpt lat="45.779728000" lon="5.615497000">
        <ele>384.800000</ele>
        <time>2025-04-11T11:07:03Z</time>
      </trkpt>
      <trkpt lat="45.779798000" lon="5.615533000">
        <ele>384.400000</ele>
        <time>2025-04-11T11:07:13Z</time>
      </trkpt>
      <trkpt lat="45.779918000" lon="5.615612000">
        <ele>384.400000</ele>
        <time>2025-04-11T11:07:22Z</time>
      </trkpt>
      <trkpt lat="45.780023000" lon="5.615687000">
        <ele>383.600000</ele>
        <time>2025-04-11T11:07:32Z</time>
      </trkpt>
      <trkpt lat="45.780095000" lon="5.615716000">
        <ele>383.400000</ele>
        <time>2025-04-11T11:07:42Z</time>
      </trkpt>
      <trkpt lat="45.780207000" lon="5.615754000">
        <ele>384.900000</ele>
        <time>2025-04-11T11:08:02Z</time>
      </trkpt>
      <trkpt lat="45.780209000" lon="5.615764000">
        <ele>385.800000</ele>
        <time>2025-04-11T11:08:11Z</time>
      </trkpt>
      <trkpt lat="45.780279000" lon="5.615829000">
        <ele>386.400000</ele>
        <time>2025-04-11T11:08:20Z</time>
      </trkpt>
      <trkpt lat="45.780376000" lon="5.615842000">
        <ele>386.800000</ele>
        <time>2025-04-11T11:08:30Z</time>
      </trkpt>
      <trkpt lat="45.780461000" lon="5.615881000">
        <ele>386.600000</ele>
        <time>2025-04-11T11:08:40Z</time>
      </trkpt>
      <trkpt lat="45.780536000" lon="5.615889000">
        <ele>386.000000</ele>
        <time>2025-04-11T11:08:50Z</time>
      </trkpt>
      <trkpt lat="45.780636000" lon="5.615970000">
        <ele>387.600000</ele>
        <time>2025-04-11T11:09:00Z</time>
      </trkpt>
      <trkpt lat="45.780736000" lon="5.616016000">
        <ele>387.200000</ele>
        <time>2025-04-11T11:09:10Z</time>
      </trkpt>
      <trkpt lat="45.780832000" lon="5.616050000">
        <ele>387.300000</ele>
        <time>2025-04-11T11:09:19Z</time>
      </trkpt>
      <trkpt lat="45.781010000" lon="5.616171000">
        <ele>387.500000</ele>
        <time>2025-04-11T11:09:38Z</time>
      </trkpt>
      <trkpt lat="45.781114000" lon="5.616162000">
        <ele>387.900000</ele>
        <time>2025-04-11T11:09:47Z</time>
      </trkpt>
      <trkpt lat="45.781236000" lon="5.616162000">
        <ele>387.600000</ele>
        <time>2025-04-11T11:09:56Z</time>
      </trkpt>
      <trkpt lat="45.781365000" lon="5.616144000">
        <ele>388.500000</ele>
        <time>2025-04-11T11:10:06Z</time>
      </trkpt>
      <trkpt lat="45.781468000" lon="5.616117000">
        <ele>388.100000</ele>
        <time>2025-04-11T11:10:16Z</time>
      </trkpt>
      <trkpt lat="45.781704000" lon="5.616122000">
        <ele>388.600000</ele>
        <time>2025-04-11T11:10:36Z</time>
      </trkpt>
      <trkpt lat="45.781814000" lon="5.616112000">
        <ele>390.300000</ele>
        <time>2025-04-11T11:10:46Z</time>
      </trkpt>
      <trkpt lat="45.781911000" lon="5.616082000">
        <ele>391.500000</ele>
        <time>2025-04-11T11:10:56Z</time>
      </trkpt>
      <trkpt lat="45.782019000" lon="5.616125000">
        <ele>391.200000</ele>
        <time>2025-04-11T11:11:06Z</time>
      </trkpt>
      <trkpt lat="45.782121000" lon="5.616125000">
        <ele>390.800000</ele>
        <time>2025-04-11T11:11:16Z</time>
      </trkpt>
      <trkpt lat="45.782305000" lon="5.616070000">
        <ele>392.500000</ele>
        <time>2025-04-11T11:11:35Z</time>
      </trkpt>
      <trkpt lat="45.782407000" lon="5.616036000">
        <ele>392.400000</ele>
        <time>2025-04-11T11:11:44Z</time>
      </trkpt>
      <trkpt lat="45.782509000" lon="5.615969000">
        <ele>395.100000</ele>
        <time>2025-04-11T11:11:54Z</time>
      </trkpt>
      <trkpt lat="45.782614000" lon="5.615923000">
        <ele>393.800000</ele>
        <time>2025-04-11T11:12:04Z</time>
      </trkpt>
      <trkpt lat="45.782702000" lon="5.615860000">
        <ele>392.400000</ele>
        <time>2025-04-11T11:12:14Z</time>
      </trkpt>
      <trkpt lat="45.782795000" lon="5.615809000">
        <ele>393.300000</ele>
        <time>2025-04-11T11:12:23Z</time>
      </trkpt>
      <trkpt lat="45.782811000" lon="5.615783000">
        <ele>394.600000</ele>
        <time>2025-04-11T11:12:32Z</time>
      </trkpt>
      <trkpt lat="45.782932000" lon="5.615698000">
        <ele>395.500000</ele>
        <time>2025-04-11T11:12:42Z</time>
      </trkpt>
      <trkpt lat="45.783123000" lon="5.615663000">
        <ele>398.900000</ele>
        <time>2025-04-11T11:13:00Z</time>
      </trkpt>
      <trkpt lat="45.783213000" lon="5.615658000">
        <ele>400.300000</ele>
        <time>2025-04-11T11:13:10Z</time>
      </trkpt>
      <trkpt lat="45.783337000" lon="5.615661000">
        <ele>400.800000</ele>
        <time>2025-04-11T11:13:20Z</time>
      </trkpt>
      <trkpt lat="45.783455000" lon="5.615589000">
        <ele>401.100000</ele>
        <time>2025-04-11T11:13:30Z</time>
      </trkpt>
      <trkpt lat="45.783571000" lon="5.615571000">
        <ele>400.300000</ele>
        <time>2025-04-11T11:13:40Z</time>
      </trkpt>
      <trkpt lat="45.783610000" lon="5.615585000">
        <ele>400.700000</ele>
        <time>2025-04-11T11:13:50Z</time>
      </trkpt>
      <trkpt lat="45.783720000" lon="5.615595000">
        <ele>400.700000</ele>
        <time>2025-04-11T11:13:59Z</time>
      </trkpt>
      <trkpt lat="45.783804000" lon="5.615586000">
        <ele>400.500000</ele>
        <time>2025-04-11T11:14:08Z</time>
      </trkpt>
      <trkpt lat="45.783916000" lon="5.615534000">
        <ele>400.200000</ele>
        <time>2025-04-11T11:14:18Z</time>
      </trkpt>
      <trkpt lat="45.784035000" lon="5.615556000">
        <ele>399.400000</ele>
        <time>2025-04-11T11:14:28Z</time>
      </trkpt>
      <trkpt lat="45.784152000" lon="5.615507000">
        <ele>400.300000</ele>
        <time>2025-04-11T11:14:38Z</time>
      </trkpt>
      <trkpt lat="45.784256000" lon="5.615440000">
        <ele>400.300000</ele>
        <time>2025-04-11T11:14:48Z</time>
      </trkpt>
      <trkpt lat="45.784354000" lon="5.615387000">
        <ele>400.400000</ele>
        <time>2025-04-11T11:14:58Z</time>
      </trkpt>
      <trkpt lat="45.784430000" lon="5.615328000">
        <ele>401.200000</ele>
        <time>2025-04-11T11:15:08Z</time>
      </trkpt>
      <trkpt lat="45.784529000" lon="5.615254000">
        <ele>402.000000</ele>
        <time>2025-04-11T11:15:18Z</time>
      </trkpt>
      <trkpt lat="45.784735000" lon="5.615067000">
        <ele>402.200000</ele>
        <time>2025-04-11T11:15:38Z</time>
      </trkpt>
      <trkpt lat="45.784840000" lon="5.614989000">
        <ele>403.100000</ele>
        <time>2025-04-11T11:15:48Z</time>
      </trkpt>
      <trkpt lat="45.784959000" lon="5.614947000">
        <ele>404.300000</ele>
        <time>2025-04-11T11:15:58Z</time>
      </trkpt>
      <trkpt lat="45.785077000" lon="5.614940000">
        <ele>404.100000</ele>
        <time>2025-04-11T11:16:08Z</time>
      </trkpt>
      <trkpt lat="45.785172000" lon="5.614929000">
        <ele>404.700000</ele>
        <time>2025-04-11T11:16:18Z</time>
      </trkpt>
      <trkpt lat="45.785277000" lon="5.614961000">
        <ele>404.400000</ele>
        <time>2025-04-11T11:16:27Z</time>
      </trkpt>
      <trkpt lat="45.785387000" lon="5.614964000">
        <ele>405.300000</ele>
        <time>2025-04-11T11:16:36Z</time>
      </trkpt>
      <trkpt lat="45.785496000" lon="5.614946000">
        <ele>406.100000</ele>
        <time>2025-04-11T11:16:46Z</time>
      </trkpt>
      <trkpt lat="45.785625000" lon="5.614948000">
        <ele>405.400000</ele>
        <time>2025-04-11T11:16:55Z</time>
      </trkpt>
      <trkpt lat="45.785708000" lon="5.614927000">
        <ele>405.400000</ele>
        <time>2025-04-11T11:17:04Z</time>
      </trkpt>
      <trkpt lat="45.785835000" lon="5.614902000">
        <ele>404.700000</ele>
        <time>2025-04-11T11:17:14Z</time>
      </trkpt>
      <trkpt lat="45.785942000" lon="5.614890000">
        <ele>405.800000</ele>
        <time>2025-04-11T11:17:23Z</time>
      </trkpt>
      <trkpt lat="45.786042000" lon="5.614852000">
        <ele>406.400000</ele>
        <time>2025-04-11T11:17:32Z</time>
      </trkpt>
      <trkpt lat="45.786157000" lon="5.614857000">
        <ele>406.700000</ele>
        <time>2025-04-11T11:17:42Z</time>
      </trkpt>
      <trkpt lat="45.786244000" lon="5.614856000">
        <ele>406.200000</ele>
        <time>2025-04-11T11:17:51Z</time>
      </trkpt>
      <trkpt lat="45.786351000" lon="5.614845000">
        <ele>406.200000</ele>
        <time>2025-04-11T11:18:00Z</time>
      </trkpt>
      <trkpt lat="45.786409000" lon="5.614851000">
        <ele>407.200000</ele>
        <time>2025-04-11T11:18:10Z</time>
      </trkpt>
      <trkpt lat="45.786410000" lon="5.614847000">
        <ele>407.000000</ele>
        <time>2025-04-11T11:21:19Z</time>
      </trkpt>
      <trkpt lat="45.786442000" lon="5.614847000">
        <ele>407.700000</ele>
        <time>2025-04-11T11:21:28Z</time>
      </trkpt>
      <trkpt lat="45.786470000" lon="5.614826000">
        <ele>407.500000</ele>
        <time>2025-04-11T11:21:38Z</time>
      </trkpt>
      <trkpt lat="45.786570000" lon="5.614830000">
        <ele>407.400000</ele>
        <time>2025-04-11T11:21:48Z</time>
      </trkpt>
      <trkpt lat="45.786712000" lon="5.614793000">
        <ele>407.200000</ele>
        <time>2025-04-11T11:21:58Z</time>
      </trkpt>
      <trkpt lat="45.786815000" lon="5.614784000">
        <ele>407.200000</ele>
        <time>2025-04-11T11:22:08Z</time>
      </trkpt>
      <trkpt lat="45.786916000" lon="5.614750000">
        <ele>408.200000</ele>
        <time>2025-04-11T11:22:18Z</time>
      </trkpt>
      <trkpt lat="45.787068000" lon="5.614768000">
        <ele>408.800000</ele>
        <time>2025-04-11T11:22:36Z</time>
      </trkpt>
      <trkpt lat="45.787166000" lon="5.614748000">
        <ele>409.000000</ele>
        <time>2025-04-11T11:22:46Z</time>
      </trkpt>
      <trkpt lat="45.787285000" lon="5.614759000">
        <ele>409.700000</ele>
        <time>2025-04-11T11:22:56Z</time>
      </trkpt>
      <trkpt lat="45.787395000" lon="5.614739000">
        <ele>410.200000</ele>
        <time>2025-04-11T11:23:06Z</time>
      </trkpt>
      <trkpt lat="45.787537000" lon="5.614723000">
        <ele>409.700000</ele>
        <time>2025-04-11T11:23:16Z</time>
      </trkpt>
      <trkpt lat="45.787646000" lon="5.614728000">
        <ele>410.900000</ele>
        <time>2025-04-11T11:23:26Z</time>
      </trkpt>
      <trkpt lat="45.787766000" lon="5.614737000">
        <ele>411.900000</ele>
        <time>2025-04-11T11:23:35Z</time>
      </trkpt>
      <trkpt lat="45.787863000" lon="5.614737000">
        <ele>413.300000</ele>
        <time>2025-04-11T11:23:44Z</time>
      </trkpt>
      <trkpt lat="45.787965000" lon="5.614764000">
        <ele>411.900000</ele>
        <time>2025-04-11T11:23:54Z</time>
      </trkpt>
      <trkpt lat="45.788011000" lon="5.614817000">
        <ele>412.500000</ele>
        <time>2025-04-11T11:24:03Z</time>
      </trkpt>
      <trkpt lat="45.788004000" lon="5.614840000">
        <ele>412.900000</ele>
        <time>2025-04-11T11:24:12Z</time>
      </trkpt>
      <trkpt lat="45.788082000" lon="5.614738000">
        <ele>412.600000</ele>
        <time>2025-04-11T11:24:32Z</time>
      </trkpt>
      <trkpt lat="45.788194000" lon="5.614687000">
        <ele>413.300000</ele>
        <time>2025-04-11T11:24:42Z</time>
      </trkpt>
      <trkpt lat="45.788327000" lon="5.614654000">
        <ele>413.100000</ele>
        <time>2025-04-11T11:24:52Z</time>
      </trkpt>
      <trkpt lat="45.788444000" lon="5.614596000">
        <ele>412.500000</ele>
        <time>2025-04-11T11:25:02Z</time>
      </trkpt>
      <trkpt lat="45.788533000" lon="5.614570000">
        <ele>412.500000</ele>
        <time>2025-04-11T11:25:11Z</time>
      </trkpt>
      <trkpt lat="45.788647000" lon="5.614565000">
        <ele>412.200000</ele>
        <time>2025-04-11T11:25:20Z</time>
      </trkpt>
      <trkpt lat="45.788760000" lon="5.614542000">
        <ele>411.900000</ele>
        <time>2025-04-11T11:25:30Z</time>
      </trkpt>
      <trkpt lat="45.788858000" lon="5.614476000">
        <ele>411.300000</ele>
        <time>2025-04-11T11:25:39Z</time>
      </trkpt>
      <trkpt lat="45.788970000" lon="5.614417000">
        <ele>409.800000</ele>
        <time>2025-04-11T11:25:48Z</time>
      </trkpt>
      <trkpt lat="45.789048000" lon="5.614399000">
        <ele>410.900000</ele>
        <time>2025-04-11T11:25:58Z</time>
      </trkpt>
      <trkpt lat="45.789159000" lon="5.614385000">
        <ele>410.700000</ele>
        <time>2025-04-11T11:26:08Z</time>
      </trkpt>
      <trkpt lat="45.789261000" lon="5.614364000">
        <ele>410.700000</ele>
        <time>2025-04-11T11:26:18Z</time>
      </trkpt>
      <trkpt lat="45.789369000" lon="5.614357000">
        <ele>410.700000</ele>
        <time>2025-04-11T11:26:28Z</time>
      </trkpt>
      <trkpt lat="45.789491000" lon="5.614390000">
        <ele>410.800000</ele>
        <time>2025-04-11T11:26:38Z</time>
      </trkpt>
      <trkpt lat="45.789621000" lon="5.614418000">
        <ele>411.900000</ele>
        <time>2025-04-11T11:26:48Z</time>
      </trkpt>
      <trkpt lat="45.789719000" lon="5.614475000">
        <ele>411.200000</ele>
        <time>2025-04-11T11:26:58Z</time>
      </trkpt>
      <trkpt lat="45.789814000" lon="5.614443000">
        <ele>411.100000</ele>
        <time>2025-04-11T11:27:08Z</time>
      </trkpt>
      <trkpt lat="45.789945000" lon="5.614459000">
        <ele>412.400000</ele>
        <time>2025-04-11T11:27:18Z</time>
      </trkpt>
      <trkpt lat="45.790035000" lon="5.614467000">
        <ele>413.900000</ele>
        <time>2025-04-11T11:27:28Z</time>
      </trkpt>
      <trkpt lat="45.790116000" lon="5.614531000">
        <ele>414.600000</ele>
        <time>2025-04-11T11:27:37Z</time>
      </trkpt>
      <trkpt lat="45.790178000" lon="5.614658000">
        <ele>415.000000</ele>
        <time>2025-04-11T11:27:47Z</time>
      </trkpt>
      <trkpt lat="45.790270000" lon="5.614798000">
        <ele>416.300000</ele>
        <time>2025-04-11T11:27:57Z</time>
      </trkpt>
      <trkpt lat="45.790329000" lon="5.614917000">
        <ele>417.000000</ele>
        <time>2025-04-11T11:28:07Z</time>
      </trkpt>
      <trkpt lat="45.790400000" lon="5.615079000">
        <ele>418.300000</ele>
        <time>2025-04-11T11:28:17Z</time>
      </trkpt>
      <trkpt lat="45.790469000" lon="5.615181000">
        <ele>420.200000</ele>
        <time>2025-04-11T11:28:27Z</time>
      </trkpt>
      <trkpt lat="45.790544000" lon="5.615339000">
        <ele>420.100000</ele>
        <time>2025-04-11T11:28:37Z</time>
      </trkpt>
      <trkpt lat="45.790641000" lon="5.615430000">
        <ele>421.600000</ele>
        <time>2025-04-11T11:28:47Z</time>
      </trkpt>
      <trkpt lat="45.790715000" lon="5.615519000">
        <ele>421.600000</ele>
        <time>2025-04-11T11:28:56Z</time>
      </trkpt>
      <trkpt lat="45.790841000" lon="5.615532000">
        <ele>420.600000</ele>
        <time>2025-04-11T11:29:05Z</time>
      </trkpt>
      <trkpt lat="45.790937000" lon="5.615524000">
        <ele>421.600000</ele>
        <time>2025-04-11T11:29:15Z</time>
      </trkpt>
      <trkpt lat="45.791035000" lon="5.615542000">
        <ele>421.800000</ele>
        <time>2025-04-11T11:29:24Z</time>
      </trkpt>
      <trkpt lat="45.791122000" lon="5.615552000">
        <ele>421.200000</ele>
        <time>2025-04-11T11:29:33Z</time>
      </trkpt>
      <trkpt lat="45.791215000" lon="5.615537000">
        <ele>422.500000</ele>
        <time>2025-04-11T11:29:43Z</time>
      </trkpt>
      <trkpt lat="45.791295000" lon="5.615552000">
        <ele>421.500000</ele>
        <time>2025-04-11T11:29:52Z</time>
      </trkpt>
      <trkpt lat="45.791397000" lon="5.615602000">
        <ele>421.400000</ele>
        <time>2025-04-11T11:30:01Z</time>
      </trkpt>
      <trkpt lat="45.791497000" lon="5.615596000">
        <ele>423.100000</ele>
        <time>2025-04-11T11:30:11Z</time>
      </trkpt>
      <trkpt lat="45.791629000" lon="5.615582000">
        <ele>420.800000</ele>
        <time>2025-04-11T11:30:21Z</time>
      </trkpt>
      <trkpt lat="45.791741000" lon="5.615575000">
        <ele>421.300000</ele>
        <time>2025-04-11T11:30:31Z</time>
      </trkpt>
      <trkpt lat="45.791851000" lon="5.615528000">
        <ele>421.300000</ele>
        <time>2025-04-11T11:30:40Z</time>
      </trkpt>
      <trkpt lat="45.791961000" lon="5.615507000">
        <ele>422.500000</ele>
        <time>2025-04-11T11:30:49Z</time>
      </trkpt>
      <trkpt lat="45.792051000" lon="5.615533000">
        <ele>421.300000</ele>
        <time>2025-04-11T11:30:59Z</time>
      </trkpt>
      <trkpt lat="45.792151000" lon="5.615532000">
        <ele>421.600000</ele>
        <time>2025-04-11T11:31:09Z</time>
      </trkpt>
      <trkpt lat="45.792257000" lon="5.615535000">
        <ele>422.000000</ele>
        <time>2025-04-11T11:31:19Z</time>
      </trkpt>
      <trkpt lat="45.792392000" lon="5.615488000">
        <ele>421.900000</ele>
        <time>2025-04-11T11:31:28Z</time>
      </trkpt>
      <trkpt lat="45.792515000" lon="5.615455000">
        <ele>419.700000</ele>
        <time>2025-04-11T11:31:37Z</time>
      </trkpt>
      <trkpt lat="45.792609000" lon="5.615374000">
        <ele>419.800000</ele>
        <time>2025-04-11T11:31:47Z</time>
      </trkpt>
      <trkpt lat="45.792681000" lon="5.615329000">
        <ele>418.400000</ele>
        <time>2025-04-11T11:31:56Z</time>
      </trkpt>
      <trkpt lat="45.792915000" lon="5.615155000">
        <ele>419.700000</ele>
        <time>2025-04-11T11:32:15Z</time>
      </trkpt>
      <trkpt lat="45.793010000" lon="5.615102000">
        <ele>419.500000</ele>
        <time>2025-04-11T11:32:24Z</time>
      </trkpt>
      <trkpt lat="45.793272000" lon="5.614818000">
        <ele>420.400000</ele>
        <time>2025-04-11T11:32:52Z</time>
      </trkpt>
      <trkpt lat="45.793335000" lon="5.614775000">
        <ele>420.700000</ele>
        <time>2025-04-11T11:33:01Z</time>
      </trkpt>
      <trkpt lat="45.793426000" lon="5.614675000">
        <ele>420.800000</ele>
        <time>2025-04-11T11:33:11Z</time>
      </trkpt>
      <trkpt lat="45.793458000" lon="5.614529000">
        <ele>421.800000</ele>
        <time>2025-04-11T11:33:21Z</time>
      </trkpt>
      <trkpt lat="45.793487000" lon="5.614356000">
        <ele>421.700000</ele>
        <time>2025-04-11T11:33:31Z</time>
      </trkpt>
      <trkpt lat="45.793533000" lon="5.614166000">
        <ele>424.500000</ele>
        <time>2025-04-11T11:33:41Z</time>
      </trkpt>
      <trkpt lat="45.793538000" lon="5.613971000">
        <ele>424.200000</ele>
        <time>2025-04-11T11:33:51Z</time>
      </trkpt>
      <trkpt lat="45.793530000" lon="5.613838000">
        <ele>423.800000</ele>
        <time>2025-04-11T11:34:00Z</time>
      </trkpt>
      <trkpt lat="45.793554000" lon="5.613676000">
        <ele>424.000000</ele>
        <time>2025-04-11T11:34:10Z</time>
      </trkpt>
      <trkpt lat="45.793611000" lon="5.613530000">
        <ele>421.900000</ele>
        <time>2025-04-11T11:34:20Z</time>
      </trkpt>
      <trkpt lat="45.793645000" lon="5.613415000">
        <ele>424.500000</ele>
        <time>2025-04-11T11:34:29Z</time>
      </trkpt>
      <trkpt lat="45.793718000" lon="5.613305000">
        <ele>425.400000</ele>
        <time>2025-04-11T11:34:38Z</time>
      </trkpt>
      <trkpt lat="45.793770000" lon="5.613186000">
        <ele>425.300000</ele>
        <time>2025-04-11T11:34:48Z</time>
      </trkpt>
      <trkpt lat="45.793806000" lon="5.613043000">
        <ele>426.100000</ele>
        <time>2025-04-11T11:34:57Z</time>
      </trkpt>
      <trkpt lat="45.793838000" lon="5.612946000">
        <ele>427.200000</ele>
        <time>2025-04-11T11:35:06Z</time>
      </trkpt>
      <trkpt lat="45.793880000" lon="5.612828000">
        <ele>429.600000</ele>
        <time>2025-04-11T11:35:16Z</time>
      </trkpt>
      <trkpt lat="45.794008000" lon="5.612532000">
        <ele>427.300000</ele>
        <time>2025-04-11T11:35:36Z</time>
      </trkpt>
      <trkpt lat="45.794051000" lon="5.612427000">
        <ele>428.000000</ele>
        <time>2025-04-11T11:35:45Z</time>
      </trkpt>
      <trkpt lat="45.794109000" lon="5.612377000">
        <ele>429.400000</ele>
        <time>2025-04-11T11:35:54Z</time>
      </trkpt>
      <trkpt lat="45.794161000" lon="5.612304000">
        <ele>430.600000</ele>
        <time>2025-04-11T11:36:04Z</time>
      </trkpt>
      <trkpt lat="45.794261000" lon="5.612213000">
        <ele>431.600000</ele>
        <time>2025-04-11T11:36:13Z</time>
      </trkpt>
      <trkpt lat="45.794349000" lon="5.612169000">
        <ele>434.400000</ele>
        <time>2025-04-11T11:36:22Z</time>
      </trkpt>
      <trkpt lat="45.794439000" lon="5.612161000">
        <ele>435.100000</ele>
        <time>2025-04-11T11:36:32Z</time>
      </trkpt>
      <trkpt lat="45.794494000" lon="5.612137000">
        <ele>436.900000</ele>
        <time>2025-04-11T11:36:42Z</time>
      </trkpt>
      <trkpt lat="45.794507000" lon="5.612126000">
        <ele>437.900000</ele>
        <time>2025-04-11T11:36:52Z</time>
      </trkpt>
      <trkpt lat="45.794579000" lon="5.612119000">
        <ele>437.100000</ele>
        <time>2025-04-11T11:37:02Z</time>
      </trkpt>
      <trkpt lat="45.794694000" lon="5.612128000">
        <ele>437.800000</ele>
        <time>2025-04-11T11:37:12Z</time>
      </trkpt>
      <trkpt lat="45.794811000" lon="5.612110000">
        <ele>440.700000</ele>
        <time>2025-04-11T11:37:21Z</time>
      </trkpt>
      <trkpt lat="45.794890000" lon="5.611962000">
        <ele>439.000000</ele>
        <time>2025-04-11T11:37:30Z</time>
      </trkpt>
      <trkpt lat="45.794939000" lon="5.611860000">
        <ele>439.800000</ele>
        <time>2025-04-11T11:37:40Z</time>
      </trkpt>
      <trkpt lat="45.795032000" lon="5.611816000">
        <ele>440.700000</ele>
        <time>2025-04-11T11:37:49Z</time>
      </trkpt>
      <trkpt lat="45.795110000" lon="5.611727000">
        <ele>442.600000</ele>
        <time>2025-04-11T11:37:58Z</time>
      </trkpt>
      <trkpt lat="45.795157000" lon="5.611630000">
        <ele>442.800000</ele>
        <time>2025-04-11T11:38:08Z</time>
      </trkpt>
      <trkpt lat="45.795171000" lon="5.611510000">
        <ele>442.400000</ele>
        <time>2025-04-11T11:38:17Z</time>
      </trkpt>
      <trkpt lat="45.795211000" lon="5.611378000">
        <ele>441.900000</ele>
        <time>2025-04-11T11:38:26Z</time>
      </trkpt>
      <trkpt lat="45.795233000" lon="5.611212000">
        <ele>442.000000</ele>
        <time>2025-04-11T11:38:36Z</time>
      </trkpt>
      <trkpt lat="45.795293000" lon="5.611073000">
        <ele>442.400000</ele>
        <time>2025-04-11T11:38:46Z</time>
      </trkpt>
      <trkpt lat="45.795340000" lon="5.610930000">
        <ele>439.600000</ele>
        <time>2025-04-11T11:38:56Z</time>
      </trkpt>
      <trkpt lat="45.795450000" lon="5.610698000">
        <ele>438.000000</ele>
        <time>2025-04-11T11:39:14Z</time>
      </trkpt>
      <trkpt lat="45.795521000" lon="5.610577000">
        <ele>436.200000</ele>
        <time>2025-04-11T11:39:24Z</time>
      </trkpt>
      <trkpt lat="45.795557000" lon="5.610502000">
        <ele>435.900000</ele>
        <time>2025-04-11T11:39:33Z</time>
      </trkpt>
      <trkpt lat="45.795625000" lon="5.610417000">
        <ele>434.900000</ele>
        <time>2025-04-11T11:39:43Z</time>
      </trkpt>
      <trkpt lat="45.795747000" lon="5.610333000">
        <ele>434.700000</ele>
        <time>2025-04-11T11:39:53Z</time>
      </trkpt>
      <trkpt lat="45.795835000" lon="5.610267000">
        <ele>435.600000</ele>
        <time>2025-04-11T11:40:03Z</time>
      </trkpt>
      <trkpt lat="45.795952000" lon="5.610125000">
        <ele>432.600000</ele>
        <time>2025-04-11T11:40:13Z</time>
      </trkpt>
      <trkpt lat="45.796021000" lon="5.610075000">
        <ele>433.500000</ele>
        <time>2025-04-11T11:40:22Z</time>
      </trkpt>
      <trkpt lat="45.796120000" lon="5.610065000">
        <ele>434.700000</ele>
        <time>2025-04-11T11:40:31Z</time>
      </trkpt>
      <trkpt lat="45.796260000" lon="5.609978000">
        <ele>437.700000</ele>
        <time>2025-04-11T11:40:51Z</time>
      </trkpt>
      <trkpt lat="45.796359000" lon="5.609929000">
        <ele>438.400000</ele>
        <time>2025-04-11T11:41:01Z</time>
      </trkpt>
      <trkpt lat="45.796629000" lon="5.609864000">
        <ele>439.900000</ele>
        <time>2025-04-11T11:41:21Z</time>
      </trkpt>
      <trkpt lat="45.796721000" lon="5.609836000">
        <ele>440.000000</ele>
        <time>2025-04-11T11:41:31Z</time>
      </trkpt>
      <trkpt lat="45.796818000" lon="5.609880000">
        <ele>442.300000</ele>
        <time>2025-04-11T11:41:41Z</time>
      </trkpt>
      <trkpt lat="45.796942000" lon="5.609859000">
        <ele>444.300000</ele>
        <time>2025-04-11T11:41:50Z</time>
      </trkpt>
      <trkpt lat="45.797033000" lon="5.609864000">
        <ele>442.100000</ele>
        <time>2025-04-11T11:41:59Z</time>
      </trkpt>
      <trkpt lat="45.797243000" lon="5.609895000">
        <ele>443.100000</ele>
        <time>2025-04-11T11:42:18Z</time>
      </trkpt>
      <trkpt lat="45.797413000" lon="5.609767000">
        <ele>437.800000</ele>
        <time>2025-04-11T11:42:27Z</time>
      </trkpt>
      <trkpt lat="45.797556000" lon="5.609724000">
        <ele>439.100000</ele>
        <time>2025-04-11T11:42:37Z</time>
      </trkpt>
      <trkpt lat="45.797633000" lon="5.609711000">
        <ele>438.600000</ele>
        <time>2025-04-11T11:42:47Z</time>
      </trkpt>
      <trkpt lat="45.797735000" lon="5.609672000">
        <ele>440.700000</ele>
        <time>2025-04-11T11:42:57Z</time>
      </trkpt>
      <trkpt lat="45.797806000" lon="5.609654000">
        <ele>441.000000</ele>
        <time>2025-04-11T11:43:06Z</time>
      </trkpt>
      <trkpt lat="45.797926000" lon="5.609606000">
        <ele>437.200000</ele>
        <time>2025-04-11T11:43:15Z</time>
      </trkpt>
      <trkpt lat="45.798004000" lon="5.609620000">
        <ele>435.800000</ele>
        <time>2025-04-11T11:43:25Z</time>
      </trkpt>
      <trkpt lat="45.798105000" lon="5.609655000">
        <ele>438.000000</ele>
        <time>2025-04-11T11:43:34Z</time>
      </trkpt>
      <trkpt lat="45.798204000" lon="5.609648000">
        <ele>435.500000</ele>
        <time>2025-04-11T11:43:43Z</time>
      </trkpt>
      <trkpt lat="45.798286000" lon="5.609637000">
        <ele>436.800000</ele>
        <time>2025-04-11T11:43:53Z</time>
      </trkpt>
      <trkpt lat="45.798307000" lon="5.609640000">
        <ele>436.900000</ele>
        <time>2025-04-11T11:44:02Z</time>
      </trkpt>
      <trkpt lat="45.798423000" lon="5.609625000">
        <ele>436.600000</ele>
        <time>2025-04-11T11:44:11Z</time>
      </trkpt>
      <trkpt lat="45.798547000" lon="5.609525000">
        <ele>436.500000</ele>
        <time>2025-04-11T11:44:21Z</time>
      </trkpt>
      <trkpt lat="45.798635000" lon="5.609557000">
        <ele>434.900000</ele>
        <time>2025-04-11T11:44:31Z</time>
      </trkpt>
      <trkpt lat="45.798711000" lon="5.609562000">
        <ele>434.500000</ele>
        <time>2025-04-11T11:44:41Z</time>
      </trkpt>
      <trkpt lat="45.798778000" lon="5.609562000">
        <ele>433.100000</ele>
        <time>2025-04-11T11:44:50Z</time>
      </trkpt>
      <trkpt lat="45.798799000" lon="5.609548000">
        <ele>430.800000</ele>
        <time>2025-04-11T11:44:59Z</time>
      </trkpt>
      <trkpt lat="45.798822000" lon="5.609507000">
        <ele>427.500000</ele>
        <time>2025-04-11T11:45:09Z</time>
      </trkpt>
      <trkpt lat="45.798937000" lon="5.609282000">
        <ele>423.300000</ele>
        <time>2025-04-11T11:45:19Z</time>
      </trkpt>
      <trkpt lat="45.798982000" lon="5.609238000">
        <ele>421.000000</ele>
        <time>2025-04-11T11:45:29Z</time>
      </trkpt>
      <trkpt lat="45.799025000" lon="5.609249000">
        <ele>420.100000</ele>
        <time>2025-04-11T11:45:38Z</time>
      </trkpt>
      <trkpt lat="45.799070000" lon="5.609312000">
        <ele>420.200000</ele>
        <time>2025-04-11T11:45:47Z</time>
      </trkpt>
      <trkpt lat="45.799151000" lon="5.609390000">
        <ele>418.800000</ele>
        <time>2025-04-11T11:45:57Z</time>
      </trkpt>
      <trkpt lat="45.799274000" lon="5.609516000">
        <ele>418.900000</ele>
        <time>2025-04-11T11:46:06Z</time>
      </trkpt>
      <trkpt lat="45.799340000" lon="5.609554000">
        <ele>419.800000</ele>
        <time>2025-04-11T11:46:16Z</time>
      </trkpt>
      <trkpt lat="45.799442000" lon="5.609648000">
        <ele>420.200000</ele>
        <time>2025-04-11T11:46:26Z</time>
      </trkpt>
      <trkpt lat="45.799530000" lon="5.609701000">
        <ele>421.200000</ele>
        <time>2025-04-11T11:46:35Z</time>
      </trkpt>
      <trkpt lat="45.799602000" lon="5.609782000">
        <ele>420.100000</ele>
        <time>2025-04-11T11:46:44Z</time>
      </trkpt>
      <trkpt lat="45.799707000" lon="5.609830000">
        <ele>421.800000</ele>
        <time>2025-04-11T11:46:53Z</time>
      </trkpt>
      <trkpt lat="45.799805000" lon="5.609817000">
        <ele>422.100000</ele>
        <time>2025-04-11T11:47:02Z</time>
      </trkpt>
      <trkpt lat="45.799849000" lon="5.609797000">
        <ele>423.300000</ele>
        <time>2025-04-11T11:47:11Z</time>
      </trkpt>
      <trkpt lat="45.799960000" lon="5.609730000">
        <ele>422.800000</ele>
        <time>2025-04-11T11:47:21Z</time>
      </trkpt>
      <trkpt lat="45.800005000" lon="5.609750000">
        <ele>425.000000</ele>
        <time>2025-04-11T11:47:39Z</time>
      </trkpt>
      <trkpt lat="45.800100000" lon="5.609760000">
        <ele>420.600000</ele>
        <time>2025-04-11T11:47:49Z</time>
      </trkpt>
      <trkpt lat="45.800301000" lon="5.609653000">
        <ele>420.600000</ele>
        <time>2025-04-11T11:47:58Z</time>
      </trkpt>
      <trkpt lat="45.800366000" lon="5.609517000">
        <ele>423.200000</ele>
        <time>2025-04-11T11:48:07Z</time>
      </trkpt>
      <trkpt lat="45.800400000" lon="5.609349000">
        <ele>423.200000</ele>
        <time>2025-04-11T11:48:17Z</time>
      </trkpt>
      <trkpt lat="45.800429000" lon="5.609142000">
        <ele>423.000000</ele>
        <time>2025-04-11T11:48:27Z</time>
      </trkpt>
      <trkpt lat="45.800418000" lon="5.608992000">
        <ele>422.900000</ele>
        <time>2025-04-11T11:48:37Z</time>
      </trkpt>
      <trkpt lat="45.800456000" lon="5.608886000">
        <ele>422.900000</ele>
        <time>2025-04-11T11:48:47Z</time>
      </trkpt>
      <trkpt lat="45.800535000" lon="5.608742000">
        <ele>422.500000</ele>
        <time>2025-04-11T11:48:57Z</time>
      </trkpt>
      <trkpt lat="45.800590000" lon="5.608802000">
        <ele>424.300000</ele>
        <time>2025-04-11T11:49:07Z</time>
      </trkpt>
      <trkpt lat="45.800674000" lon="5.608940000">
        <ele>425.400000</ele>
        <time>2025-04-11T11:49:17Z</time>
      </trkpt>
      <trkpt lat="45.800747000" lon="5.609021000">
        <ele>425.500000</ele>
        <time>2025-04-11T11:49:26Z</time>
      </trkpt>
      <trkpt lat="45.800847000" lon="5.609042000">
        <ele>427.300000</ele>
        <time>2025-04-11T11:49:35Z</time>
      </trkpt>
      <trkpt lat="45.800950000" lon="5.609136000">
        <ele>428.500000</ele>
        <time>2025-04-11T11:49:45Z</time>
      </trkpt>
      <trkpt lat="45.801066000" lon="5.609186000">
        <ele>427.800000</ele>
        <time>2025-04-11T11:49:55Z</time>
      </trkpt>
      <trkpt lat="45.801159000" lon="5.609198000">
        <ele>429.000000</ele>
        <time>2025-04-11T11:50:05Z</time>
      </trkpt>
      <trkpt lat="45.801271000" lon="5.609200000">
        <ele>428.400000</ele>
        <time>2025-04-11T11:50:14Z</time>
      </trkpt>
      <trkpt lat="45.801365000" lon="5.609217000">
        <ele>430.700000</ele>
        <time>2025-04-11T11:50:23Z</time>
      </trkpt>
      <trkpt lat="45.801451000" lon="5.609238000">
        <ele>432.000000</ele>
        <time>2025-04-11T11:50:33Z</time>
      </trkpt>
      <trkpt lat="45.801541000" lon="5.609317000">
        <ele>431.800000</ele>
        <time>2025-04-11T11:50:43Z</time>
      </trkpt>
      <trkpt lat="45.801626000" lon="5.609544000">
        <ele>433.300000</ele>
        <time>2025-04-11T11:51:02Z</time>
      </trkpt>
      <trkpt lat="45.801707000" lon="5.609687000">
        <ele>436.600000</ele>
        <time>2025-04-11T11:51:11Z</time>
      </trkpt>
      <trkpt lat="45.801783000" lon="5.609798000">
        <ele>437.200000</ele>
        <time>2025-04-11T11:51:21Z</time>
      </trkpt>
      <trkpt lat="45.801974000" lon="5.610005000">
        <ele>434.300000</ele>
        <time>2025-04-11T11:51:39Z</time>
      </trkpt>
      <trkpt lat="45.802020000" lon="5.610117000">
        <ele>431.400000</ele>
        <time>2025-04-11T11:51:49Z</time>
      </trkpt>
      <trkpt lat="45.802071000" lon="5.610264000">
        <ele>431.600000</ele>
        <time>2025-04-11T11:51:58Z</time>
      </trkpt>
      <trkpt lat="45.802142000" lon="5.610387000">
        <ele>430.400000</ele>
        <time>2025-04-11T11:52:07Z</time>
      </trkpt>
      <trkpt lat="45.802268000" lon="5.610457000">
        <ele>430.500000</ele>
        <time>2025-04-11T11:52:17Z</time>
      </trkpt>
      <trkpt lat="45.802352000" lon="5.610549000">
        <ele>430.100000</ele>
        <time>2025-04-11T11:52:26Z</time>
      </trkpt>
      <trkpt lat="45.802412000" lon="5.610629000">
        <ele>430.100000</ele>
        <time>2025-04-11T11:52:35Z</time>
      </trkpt>
      <trkpt lat="45.802505000" lon="5.610714000">
        <ele>429.500000</ele>
        <time>2025-04-11T11:52:45Z</time>
      </trkpt>
      <trkpt lat="45.802572000" lon="5.610779000">
        <ele>430.100000</ele>
        <time>2025-04-11T11:52:54Z</time>
      </trkpt>
      <trkpt lat="45.802647000" lon="5.610836000">
        <ele>430.000000</ele>
        <time>2025-04-11T11:53:03Z</time>
      </trkpt>
      <trkpt lat="45.802737000" lon="5.610938000">
        <ele>428.500000</ele>
        <time>2025-04-11T11:53:13Z</time>
      </trkpt>
      <trkpt lat="45.802796000" lon="5.611053000">
        <ele>428.200000</ele>
        <time>2025-04-11T11:53:22Z</time>
      </trkpt>
      <trkpt lat="45.802847000" lon="5.611196000">
        <ele>427.800000</ele>
        <time>2025-04-11T11:53:31Z</time>
      </trkpt>
      <trkpt lat="45.802949000" lon="5.611429000">
        <ele>428.900000</ele>
        <time>2025-04-11T11:53:51Z</time>
      </trkpt>
      <trkpt lat="45.802974000" lon="5.611555000">
        <ele>432.600000</ele>
        <time>2025-04-11T11:54:01Z</time>
      </trkpt>
      <trkpt lat="45.802959000" lon="5.611647000">
        <ele>436.500000</ele>
        <time>2025-04-11T11:54:10Z</time>
      </trkpt>
      <trkpt lat="45.802977000" lon="5.611765000">
        <ele>439.400000</ele>
        <time>2025-04-11T11:54:19Z</time>
      </trkpt>
      <trkpt lat="45.803063000" lon="5.611898000">
        <ele>443.200000</ele>
        <time>2025-04-11T11:54:29Z</time>
      </trkpt>
      <trkpt lat="45.803065000" lon="5.611968000">
        <ele>443.500000</ele>
        <time>2025-04-11T11:54:38Z</time>
      </trkpt>
      <trkpt lat="45.803080000" lon="5.612010000">
        <ele>440.900000</ele>
        <time>2025-04-11T11:54:47Z</time>
      </trkpt>
      <trkpt lat="45.803117000" lon="5.612077000">
        <ele>439.600000</ele>
        <time>2025-04-11T11:54:57Z</time>
      </trkpt>
      <trkpt lat="45.803113000" lon="5.612186000">
        <ele>440.700000</ele>
        <time>2025-04-11T12:01:23Z</time>
      </trkpt>
      <trkpt lat="45.803132000" lon="5.612318000">
        <ele>443.800000</ele>
        <time>2025-04-11T12:01:33Z</time>
      </trkpt>
      <trkpt lat="45.803192000" lon="5.612438000">
        <ele>442.300000</ele>
        <time>2025-04-11T12:01:43Z</time>
      </trkpt>
      <trkpt lat="45.803255000" lon="5.612635000">
        <ele>440.100000</ele>
        <time>2025-04-11T12:01:53Z</time>
      </trkpt>
      <trkpt lat="45.803241000" lon="5.612748000">
        <ele>440.500000</ele>
        <time>2025-04-11T12:02:03Z</time>
      </trkpt>
      <trkpt lat="45.803203000" lon="5.612867000">
        <ele>440.000000</ele>
        <time>2025-04-11T12:02:13Z</time>
      </trkpt>
      <trkpt lat="45.803204000" lon="5.612957000">
        <ele>440.400000</ele>
        <time>2025-04-11T12:02:22Z</time>
      </trkpt>
      <trkpt lat="45.803193000" lon="5.613124000">
        <ele>439.800000</ele>
        <time>2025-04-11T12:02:31Z</time>
      </trkpt>
      <trkpt lat="45.803246000" lon="5.613316000">
        <ele>436.800000</ele>
        <time>2025-04-11T12:02:41Z</time>
      </trkpt>
      <trkpt lat="45.803225000" lon="5.613455000">
        <ele>439.700000</ele>
        <time>2025-04-11T12:02:50Z</time>
      </trkpt>
      <trkpt lat="45.803200000" lon="5.613609000">
        <ele>441.800000</ele>
        <time>2025-04-11T12:02:59Z</time>
      </trkpt>
      <trkpt lat="45.803188000" lon="5.613787000">
        <ele>444.100000</ele>
        <time>2025-04-11T12:03:09Z</time>
      </trkpt>
      <trkpt lat="45.803190000" lon="5.613893000">
        <ele>443.500000</ele>
        <time>2025-04-11T12:03:18Z</time>
      </trkpt>
      <trkpt lat="45.803216000" lon="5.613931000">
        <ele>438.800000</ele>
        <time>2025-04-11T12:03:27Z</time>
      </trkpt>
      <trkpt lat="45.803225000" lon="5.613936000">
        <ele>438.300000</ele>
        <time>2025-04-11T12:03:37Z</time>
      </trkpt>
      <trkpt lat="45.803232000" lon="5.613950000">
        <ele>435.200000</ele>
        <time>2025-04-11T12:03:57Z</time>
      </trkpt>
      <trkpt lat="45.803233000" lon="5.613958000">
        <ele>436.400000</ele>
        <time>2025-04-11T12:04:07Z</time>
      </trkpt>
      <trkpt lat="45.803196000" lon="5.614023000">
        <ele>437.700000</ele>
        <time>2025-04-11T12:04:17Z</time>
      </trkpt>
      <trkpt lat="45.803088000" lon="5.614107000">
        <ele>438.900000</ele>
        <time>2025-04-11T12:04:27Z</time>
      </trkpt>
      <trkpt lat="45.803027000" lon="5.614172000">
        <ele>441.500000</ele>
        <time>2025-04-11T12:04:37Z</time>
      </trkpt>
      <trkpt lat="45.802965000" lon="5.614298000">
        <ele>441.900000</ele>
        <time>2025-04-11T12:04:47Z</time>
      </trkpt>
      <trkpt lat="45.802870000" lon="5.614458000">
        <ele>442.100000</ele>
        <time>2025-04-11T12:04:57Z</time>
      </trkpt>
      <trkpt lat="45.802827000" lon="5.614574000">
        <ele>445.000000</ele>
        <time>2025-04-11T12:05:07Z</time>
      </trkpt>
      <trkpt lat="45.802742000" lon="5.614719000">
        <ele>445.800000</ele>
        <time>2025-04-11T12:05:17Z</time>
      </trkpt>
      <trkpt lat="45.802667000" lon="5.614750000">
        <ele>445.200000</ele>
        <time>2025-04-11T12:05:26Z</time>
      </trkpt>
      <trkpt lat="45.802597000" lon="5.614759000">
        <ele>447.000000</ele>
        <time>2025-04-11T12:05:35Z</time>
      </trkpt>
      <trkpt lat="45.802543000" lon="5.614696000">
        <ele>447.200000</ele>
        <time>2025-04-11T12:05:45Z</time>
      </trkpt>
      <trkpt lat="45.802496000" lon="5.614602000">
        <ele>448.300000</ele>
        <time>2025-04-11T12:05:54Z</time>
      </trkpt>
      <trkpt lat="45.802439000" lon="5.614470000">
        <ele>448.600000</ele>
        <time>2025-04-11T12:06:03Z</time>
      </trkpt>
      <trkpt lat="45.802333000" lon="5.614520000">
        <ele>452.000000</ele>
        <time>2025-04-11T12:06:13Z</time>
      </trkpt>
      <trkpt lat="45.802218000" lon="5.614588000">
        <ele>452.900000</ele>
        <time>2025-04-11T12:06:23Z</time>
      </trkpt>
      <trkpt lat="45.802095000" lon="5.614630000">
        <ele>453.100000</ele>
        <time>2025-04-11T12:06:33Z</time>
      </trkpt>
      <trkpt lat="45.801964000" lon="5.614634000">
        <ele>453.500000</ele>
        <time>2025-04-11T12:06:43Z</time>
      </trkpt>
      <trkpt lat="45.801926000" lon="5.614644000">
        <ele>454.000000</ele>
        <time>2025-04-11T12:06:53Z</time>
      </trkpt>
      <trkpt lat="45.801898000" lon="5.614667000">
        <ele>451.800000</ele>
        <time>2025-04-11T12:07:03Z</time>
      </trkpt>
      <trkpt lat="45.801772000" lon="5.614732000">
        <ele>453.000000</ele>
        <time>2025-04-11T12:07:13Z</time>
      </trkpt>
      <trkpt lat="45.801674000" lon="5.614761000">
        <ele>453.800000</ele>
        <time>2025-04-11T12:07:22Z</time>
      </trkpt>
      <trkpt lat="45.801615000" lon="5.614827000">
        <ele>453.900000</ele>
        <time>2025-04-11T12:07:31Z</time>
      </trkpt>
      <trkpt lat="45.801577000" lon="5.615187000">
        <ele>456.100000</ele>
        <time>2025-04-11T12:08:01Z</time>
      </trkpt>
      <trkpt lat="45.801575000" lon="5.615285000">
        <ele>456.200000</ele>
        <time>2025-04-11T12:08:11Z</time>
      </trkpt>
      <trkpt lat="45.801468000" lon="5.615392000">
        <ele>456.500000</ele>
        <time>2025-04-11T12:08:21Z</time>
      </trkpt>
      <trkpt lat="45.801352000" lon="5.615491000">
        <ele>454.600000</ele>
        <time>2025-04-11T12:08:30Z</time>
      </trkpt>
      <trkpt lat="45.801293000" lon="5.615567000">
        <ele>454.600000</ele>
        <time>2025-04-11T12:08:39Z</time>
      </trkpt>
      <trkpt lat="45.801242000" lon="5.615566000">
        <ele>455.000000</ele>
        <time>2025-04-11T12:08:49Z</time>
      </trkpt>
      <trkpt lat="45.801205000" lon="5.615600000">
        <ele>453.700000</ele>
        <time>2025-04-11T12:08:59Z</time>
      </trkpt>
      <trkpt lat="45.801102000" lon="5.615720000">
        <ele>454.100000</ele>
        <time>2025-04-11T12:09:09Z</time>
      </trkpt>
      <trkpt lat="45.800964000" lon="5.615902000">
        <ele>454.500000</ele>
        <time>2025-04-11T12:09:18Z</time>
      </trkpt>
      <trkpt lat="45.800907000" lon="5.616027000">
        <ele>453.100000</ele>
        <time>2025-04-11T12:09:27Z</time>
      </trkpt>
      <trkpt lat="45.800830000" lon="5.616132000">
        <ele>451.700000</ele>
        <time>2025-04-11T12:09:37Z</time>
      </trkpt>
      <trkpt lat="45.800752000" lon="5.616253000">
        <ele>451.700000</ele>
        <time>2025-04-11T12:09:47Z</time>
      </trkpt>
      <trkpt lat="45.800715000" lon="5.616398000">
        <ele>451.200000</ele>
        <time>2025-04-11T12:09:57Z</time>
      </trkpt>
      <trkpt lat="45.800648000" lon="5.616501000">
        <ele>449.500000</ele>
        <time>2025-04-11T12:10:07Z</time>
      </trkpt>
      <trkpt lat="45.800570000" lon="5.616627000">
        <ele>447.900000</ele>
        <time>2025-04-11T12:10:17Z</time>
      </trkpt>
      <trkpt lat="45.800496000" lon="5.616702000">
        <ele>447.500000</ele>
        <time>2025-04-11T12:10:27Z</time>
      </trkpt>
      <trkpt lat="45.800427000" lon="5.616823000">
        <ele>446.900000</ele>
        <time>2025-04-11T12:10:36Z</time>
      </trkpt>
      <trkpt lat="45.800483000" lon="5.617090000">
        <ele>440.100000</ele>
        <time>2025-04-11T12:10:46Z</time>
      </trkpt>
      <trkpt lat="45.800395000" lon="5.617179000">
        <ele>438.200000</ele>
        <time>2025-04-11T12:10:55Z</time>
      </trkpt>
      <trkpt lat="45.800311000" lon="5.617149000">
        <ele>438.500000</ele>
        <time>2025-04-11T12:11:04Z</time>
      </trkpt>
      <trkpt lat="45.800206000" lon="5.617148000">
        <ele>439.400000</ele>
        <time>2025-04-11T12:11:14Z</time>
      </trkpt>
      <trkpt lat="45.800098000" lon="5.617245000">
        <ele>440.000000</ele>
        <time>2025-04-11T12:11:23Z</time>
      </trkpt>
      <trkpt lat="45.800060000" lon="5.617288000">
        <ele>439.600000</ele>
        <time>2025-04-11T12:11:32Z</time>
      </trkpt>
      <trkpt lat="45.800004000" lon="5.617391000">
        <ele>439.300000</ele>
        <time>2025-04-11T12:11:42Z</time>
      </trkpt>
      <trkpt lat="45.799942000" lon="5.617477000">
        <ele>437.500000</ele>
        <time>2025-04-11T12:11:51Z</time>
      </trkpt>
      <trkpt lat="45.799864000" lon="5.617554000">
        <ele>437.700000</ele>
        <time>2025-04-11T12:12:00Z</time>
      </trkpt>
      <trkpt lat="45.799769000" lon="5.617632000">
        <ele>434.700000</ele>
        <time>2025-04-11T12:12:10Z</time>
      </trkpt>
      <trkpt lat="45.799680000" lon="5.617791000">
        <ele>431.300000</ele>
        <time>2025-04-11T12:12:20Z</time>
      </trkpt>
      <trkpt lat="45.799605000" lon="5.617899000">
        <ele>425.800000</ele>
        <time>2025-04-11T12:12:29Z</time>
      </trkpt>
      <trkpt lat="45.799493000" lon="5.617947000">
        <ele>425.400000</ele>
        <time>2025-04-11T12:12:39Z</time>
      </trkpt>
      <trkpt lat="45.799395000" lon="5.618037000">
        <ele>425.800000</ele>
        <time>2025-04-11T12:12:48Z</time>
      </trkpt>
      <trkpt lat="45.799432000" lon="5.618145000">
        <ele>423.700000</ele>
        <time>2025-04-11T12:12:57Z</time>
      </trkpt>
      <trkpt lat="45.799463000" lon="5.618252000">
        <ele>421.800000</ele>
        <time>2025-04-11T12:13:07Z</time>
      </trkpt>
      <trkpt lat="45.799456000" lon="5.618271000">
        <ele>421.400000</ele>
        <time>2025-04-11T12:13:16Z</time>
      </trkpt>
      <trkpt lat="45.799429000" lon="5.618325000">
        <ele>421.100000</ele>
        <time>2025-04-11T12:13:25Z</time>
      </trkpt>
      <trkpt lat="45.799350000" lon="5.618495000">
        <ele>419.700000</ele>
        <time>2025-04-11T12:13:35Z</time>
      </trkpt>
      <trkpt lat="45.799358000" lon="5.618637000">
        <ele>418.600000</ele>
        <time>2025-04-11T12:13:45Z</time>
      </trkpt>
      <trkpt lat="45.799325000" lon="5.618745000">
        <ele>417.000000</ele>
        <time>2025-04-11T12:13:55Z</time>
      </trkpt>
      <trkpt lat="45.799270000" lon="5.618812000">
        <ele>417.100000</ele>
        <time>2025-04-11T12:14:04Z</time>
      </trkpt>
      <trkpt lat="45.799283000" lon="5.618986000">
        <ele>414.800000</ele>
        <time>2025-04-11T12:14:13Z</time>
      </trkpt>
      <trkpt lat="45.799335000" lon="5.619072000">
        <ele>412.100000</ele>
        <time>2025-04-11T12:14:23Z</time>
      </trkpt>
      <trkpt lat="45.799371000" lon="5.619156000">
        <ele>410.900000</ele>
        <time>2025-04-11T12:14:32Z</time>
      </trkpt>
      <trkpt lat="45.799353000" lon="5.619200000">
        <ele>408.500000</ele>
        <time>2025-04-11T12:14:41Z</time>
      </trkpt>
      <trkpt lat="45.799296000" lon="5.619287000">
        <ele>406.400000</ele>
        <time>2025-04-11T12:14:51Z</time>
      </trkpt>
      <trkpt lat="45.799217000" lon="5.619337000">
        <ele>405.700000</ele>
        <time>2025-04-11T12:15:00Z</time>
      </trkpt>
      <trkpt lat="45.799141000" lon="5.619405000">
        <ele>405.900000</ele>
        <time>2025-04-11T12:15:09Z</time>
      </trkpt>
      <trkpt lat="45.799054000" lon="5.619494000">
        <ele>404.700000</ele>
        <time>2025-04-11T12:15:19Z</time>
      </trkpt>
      <trkpt lat="45.798983000" lon="5.619500000">
        <ele>404.100000</ele>
        <time>2025-04-11T12:15:28Z</time>
      </trkpt>
      <trkpt lat="45.798878000" lon="5.619549000">
        <ele>403.300000</ele>
        <time>2025-04-11T12:15:37Z</time>
      </trkpt>
      <trkpt lat="45.798795000" lon="5.619650000">
        <ele>403.400000</ele>
        <time>2025-04-11T12:15:47Z</time>
      </trkpt>
      <trkpt lat="45.798711000" lon="5.619741000">
        <ele>402.500000</ele>
        <time>2025-04-11T12:15:57Z</time>
      </trkpt>
      <trkpt lat="45.798627000" lon="5.619835000">
        <ele>404.900000</ele>
        <time>2025-04-11T12:16:07Z</time>
      </trkpt>
      <trkpt lat="45.798564000" lon="5.619920000">
        <ele>405.800000</ele>
        <time>2025-04-11T12:16:16Z</time>
      </trkpt>
      <trkpt lat="45.798503000" lon="5.620018000">
        <ele>403.600000</ele>
        <time>2025-04-11T12:16:25Z</time>
      </trkpt>
      <trkpt lat="45.798359000" lon="5.620142000">
        <ele>400.000000</ele>
        <time>2025-04-11T12:16:44Z</time>
      </trkpt>
      <trkpt lat="45.798301000" lon="5.620178000">
        <ele>401.000000</ele>
        <time>2025-04-11T12:16:53Z</time>
      </trkpt>
      <trkpt lat="45.798224000" lon="5.620282000">
        <ele>400.400000</ele>
        <time>2025-04-11T12:17:03Z</time>
      </trkpt>
      <trkpt lat="45.798201000" lon="5.620343000">
        <ele>400.600000</ele>
        <time>2025-04-11T12:17:12Z</time>
      </trkpt>
      <trkpt lat="45.798174000" lon="5.620400000">
        <ele>399.500000</ele>
        <time>2025-04-11T12:17:21Z</time>
      </trkpt>
      <trkpt lat="45.798154000" lon="5.620556000">
        <ele>397.200000</ele>
        <time>2025-04-11T12:17:31Z</time>
      </trkpt>
      <trkpt lat="45.798147000" lon="5.620627000">
        <ele>396.500000</ele>
        <time>2025-04-11T12:17:41Z</time>
      </trkpt>
      <trkpt lat="45.798160000" lon="5.620648000">
        <ele>395.600000</ele>
        <time>2025-04-11T12:17:51Z</time>
      </trkpt>
      <trkpt lat="45.798160000" lon="5.620663000">
        <ele>394.700000</ele>
        <time>2025-04-11T12:18:00Z</time>
      </trkpt>
      <trkpt lat="45.798088000" lon="5.620733000">
        <ele>393.900000</ele>
        <time>2025-04-11T12:18:09Z</time>
      </trkpt>
      <trkpt lat="45.798033000" lon="5.620723000">
        <ele>393.200000</ele>
        <time>2025-04-11T12:18:19Z</time>
      </trkpt>
      <trkpt lat="45.797871000" lon="5.620730000">
        <ele>392.900000</ele>
        <time>2025-04-11T12:18:29Z</time>
      </trkpt>
      <trkpt lat="45.797809000" lon="5.620748000">
        <ele>392.300000</ele>
        <time>2025-04-11T12:18:39Z</time>
      </trkpt>
      <trkpt lat="45.797673000" lon="5.620843000">
        <ele>391.900000</ele>
        <time>2025-04-11T12:18:49Z</time>
      </trkpt>
      <trkpt lat="45.797557000" lon="5.620945000">
        <ele>390.600000</ele>
        <time>2025-04-11T12:18:59Z</time>
      </trkpt>
      <trkpt lat="45.797484000" lon="5.620978000">
        <ele>393.400000</ele>
        <time>2025-04-11T12:19:08Z</time>
      </trkpt>
      <trkpt lat="45.797407000" lon="5.621069000">
        <ele>394.500000</ele>
        <time>2025-04-11T12:19:17Z</time>
      </trkpt>
      <trkpt lat="45.797295000" lon="5.621162000">
        <ele>394.600000</ele>
        <time>2025-04-11T12:19:27Z</time>
      </trkpt>
      <trkpt lat="45.797176000" lon="5.621242000">
        <ele>394.400000</ele>
        <time>2025-04-11T12:19:37Z</time>
      </trkpt>
      <trkpt lat="45.797010000" lon="5.621364000">
        <ele>393.500000</ele>
        <time>2025-04-11T12:19:57Z</time>
      </trkpt>
      <trkpt lat="45.796917000" lon="5.621425000">
        <ele>392.900000</ele>
        <time>2025-04-11T12:20:07Z</time>
      </trkpt>
      <trkpt lat="45.796789000" lon="5.621467000">
        <ele>391.400000</ele>
        <time>2025-04-11T12:20:17Z</time>
      </trkpt>
      <trkpt lat="45.796703000" lon="5.621591000">
        <ele>392.200000</ele>
        <time>2025-04-11T12:20:27Z</time>
      </trkpt>
      <trkpt lat="45.796588000" lon="5.621682000">
        <ele>392.300000</ele>
        <time>2025-04-11T12:20:36Z</time>
      </trkpt>
      <trkpt lat="45.796513000" lon="5.621805000">
        <ele>391.800000</ele>
        <time>2025-04-11T12:20:45Z</time>
      </trkpt>
      <trkpt lat="45.796474000" lon="5.621963000">
        <ele>391.100000</ele>
        <time>2025-04-11T12:20:55Z</time>
      </trkpt>
      <trkpt lat="45.796390000" lon="5.622217000">
        <ele>389.900000</ele>
        <time>2025-04-11T12:21:15Z</time>
      </trkpt>
      <trkpt lat="45.796317000" lon="5.622329000">
        <ele>389.900000</ele>
        <time>2025-04-11T12:21:24Z</time>
      </trkpt>
      <trkpt lat="45.796273000" lon="5.622433000">
        <ele>391.500000</ele>
        <time>2025-04-11T12:21:33Z</time>
      </trkpt>
      <trkpt lat="45.796197000" lon="5.622555000">
        <ele>390.300000</ele>
        <time>2025-04-11T12:21:43Z</time>
      </trkpt>
      <trkpt lat="45.796137000" lon="5.622642000">
        <ele>390.800000</ele>
        <time>2025-04-11T12:21:52Z</time>
      </trkpt>
      <trkpt lat="45.796119000" lon="5.622745000">
        <ele>392.100000</ele>
        <time>2025-04-11T12:22:01Z</time>
      </trkpt>
      <trkpt lat="45.796046000" lon="5.622839000">
        <ele>391.000000</ele>
        <time>2025-04-11T12:22:11Z</time>
      </trkpt>
      <trkpt lat="45.795985000" lon="5.622924000">
        <ele>391.900000</ele>
        <time>2025-04-11T12:22:21Z</time>
      </trkpt>
      <trkpt lat="45.795915000" lon="5.622989000">
        <ele>392.600000</ele>
        <time>2025-04-11T12:22:30Z</time>
      </trkpt>
      <trkpt lat="45.795864000" lon="5.623082000">
        <ele>390.600000</ele>
        <time>2025-04-11T12:22:40Z</time>
      </trkpt>
      <trkpt lat="45.795848000" lon="5.623107000">
        <ele>388.700000</ele>
        <time>2025-04-11T12:22:50Z</time>
      </trkpt>
      <trkpt lat="45.795774000" lon="5.623207000">
        <ele>386.400000</ele>
        <time>2025-04-11T12:23:00Z</time>
      </trkpt>
      <trkpt lat="45.795762000" lon="5.623236000">
        <ele>386.800000</ele>
        <time>2025-04-11T12:23:09Z</time>
      </trkpt>
      <trkpt lat="45.795760000" lon="5.623251000">
        <ele>387.200000</ele>
        <time>2025-04-11T12:23:18Z</time>
      </trkpt>
      <trkpt lat="45.795678000" lon="5.623329000">
        <ele>387.000000</ele>
        <time>2025-04-11T12:23:28Z</time>
      </trkpt>
      <trkpt lat="45.795612000" lon="5.623379000">
        <ele>387.300000</ele>
        <time>2025-04-11T12:23:37Z</time>
      </trkpt>
      <trkpt lat="45.795574000" lon="5.623445000">
        <ele>389.400000</ele>
        <time>2025-04-11T12:23:46Z</time>
      </trkpt>
      <trkpt lat="45.795477000" lon="5.623553000">
        <ele>388.900000</ele>
        <time>2025-04-11T12:23:56Z</time>
      </trkpt>
      <trkpt lat="45.795366000" lon="5.623631000">
        <ele>387.400000</ele>
        <time>2025-04-11T12:24:06Z</time>
      </trkpt>
      <trkpt lat="45.795277000" lon="5.623704000">
        <ele>386.800000</ele>
        <time>2025-04-11T12:24:16Z</time>
      </trkpt>
      <trkpt lat="45.795196000" lon="5.623811000">
        <ele>382.000000</ele>
        <time>2025-04-11T12:24:26Z</time>
      </trkpt>
      <trkpt lat="45.795098000" lon="5.623878000">
        <ele>381.500000</ele>
        <time>2025-04-11T12:24:36Z</time>
      </trkpt>
      <trkpt lat="45.794953000" lon="5.623971000">
        <ele>380.000000</ele>
        <time>2025-04-11T12:24:54Z</time>
      </trkpt>
      <trkpt lat="45.794854000" lon="5.623999000">
        <ele>378.600000</ele>
        <time>2025-04-11T12:25:04Z</time>
      </trkpt>
      <trkpt lat="45.794753000" lon="5.624077000">
        <ele>377.700000</ele>
        <time>2025-04-11T12:25:14Z</time>
      </trkpt>
      <trkpt lat="45.794649000" lon="5.624153000">
        <ele>376.800000</ele>
        <time>2025-04-11T12:25:24Z</time>
      </trkpt>
      <trkpt lat="45.794619000" lon="5.624303000">
        <ele>374.300000</ele>
        <time>2025-04-11T12:25:34Z</time>
      </trkpt>
      <trkpt lat="45.794615000" lon="5.624456000">
        <ele>372.300000</ele>
        <time>2025-04-11T12:25:44Z</time>
      </trkpt>
      <trkpt lat="45.794569000" lon="5.624629000">
        <ele>374.200000</ele>
        <time>2025-04-11T12:25:54Z</time>
      </trkpt>
      <trkpt lat="45.794556000" lon="5.624765000">
        <ele>373.900000</ele>
        <time>2025-04-11T12:26:04Z</time>
      </trkpt>
      <trkpt lat="45.794600000" lon="5.624899000">
        <ele>373.200000</ele>
        <time>2025-04-11T12:26:14Z</time>
      </trkpt>
      <trkpt lat="45.794718000" lon="5.624968000">
        <ele>372.800000</ele>
        <time>2025-04-11T12:26:24Z</time>
      </trkpt>
      <trkpt lat="45.794822000" lon="5.625095000">
        <ele>372.200000</ele>
        <time>2025-04-11T12:26:34Z</time>
      </trkpt>
      <trkpt lat="45.794888000" lon="5.625165000">
        <ele>370.500000</ele>
        <time>2025-04-11T12:26:44Z</time>
      </trkpt>
      <trkpt lat="45.794905000" lon="5.625317000">
        <ele>370.500000</ele>
        <time>2025-04-11T12:26:54Z</time>
      </trkpt>
      <trkpt lat="45.794867000" lon="5.625435000">
        <ele>370.800000</ele>
        <time>2025-04-11T12:27:04Z</time>
      </trkpt>
      <trkpt lat="45.794775000" lon="5.625551000">
        <ele>367.800000</ele>
        <time>2025-04-11T12:27:14Z</time>
      </trkpt>
      <trkpt lat="45.794672000" lon="5.625627000">
        <ele>366.900000</ele>
        <time>2025-04-11T12:27:24Z</time>
      </trkpt>
      <trkpt lat="45.794573000" lon="5.625704000">
        <ele>367.000000</ele>
        <time>2025-04-11T12:27:33Z</time>
      </trkpt>
      <trkpt lat="45.794516000" lon="5.625823000">
        <ele>368.500000</ele>
        <time>2025-04-11T12:27:42Z</time>
      </trkpt>
      <trkpt lat="45.794461000" lon="5.625972000">
        <ele>370.200000</ele>
        <time>2025-04-11T12:27:52Z</time>
      </trkpt>
      <trkpt lat="45.794343000" lon="5.626221000">
        <ele>370.000000</ele>
        <time>2025-04-11T12:28:10Z</time>
      </trkpt>
      <trkpt lat="45.794255000" lon="5.626309000">
        <ele>370.900000</ele>
        <time>2025-04-11T12:28:20Z</time>
      </trkpt>
      <trkpt lat="45.794182000" lon="5.626322000">
        <ele>372.600000</ele>
        <time>2025-04-11T12:28:29Z</time>
      </trkpt>
      <trkpt lat="45.794079000" lon="5.626325000">
        <ele>373.100000</ele>
        <time>2025-04-11T12:28:38Z</time>
      </trkpt>
      <trkpt lat="45.793985000" lon="5.626301000">
        <ele>373.300000</ele>
        <time>2025-04-11T12:28:48Z</time>
      </trkpt>
      <trkpt lat="45.793884000" lon="5.626270000">
        <ele>374.400000</ele>
        <time>2025-04-11T12:28:58Z</time>
      </trkpt>
      <trkpt lat="45.793736000" lon="5.626261000">
        <ele>375.200000</ele>
        <time>2025-04-11T12:29:08Z</time>
      </trkpt>
      <trkpt lat="45.793650000" lon="5.626217000">
        <ele>377.000000</ele>
        <time>2025-04-11T12:29:17Z</time>
      </trkpt>
      <trkpt lat="45.793571000" lon="5.626207000">
        <ele>377.800000</ele>
        <time>2025-04-11T12:29:26Z</time>
      </trkpt>
      <trkpt lat="45.793458000" lon="5.626168000">
        <ele>378.600000</ele>
        <time>2025-04-11T12:29:36Z</time>
      </trkpt>
      <trkpt lat="45.793347000" lon="5.626155000">
        <ele>380.600000</ele>
        <time>2025-04-11T12:29:46Z</time>
      </trkpt>
      <trkpt lat="45.793220000" lon="5.626114000">
        <ele>382.400000</ele>
        <time>2025-04-11T12:29:56Z</time>
      </trkpt>
      <trkpt lat="45.793154000" lon="5.626083000">
        <ele>382.400000</ele>
        <time>2025-04-11T12:30:05Z</time>
      </trkpt>
      <trkpt lat="45.793145000" lon="5.626089000">
        <ele>382.900000</ele>
        <time>2025-04-11T12:30:14Z</time>
      </trkpt>
      <trkpt lat="45.793141000" lon="5.626116000">
        <ele>381.900000</ele>
        <time>2025-04-11T12:30:44Z</time>
      </trkpt>
      <trkpt lat="45.793145000" lon="5.626120000">
        <ele>382.500000</ele>
        <time>2025-04-11T12:31:04Z</time>
      </trkpt>
      <trkpt lat="45.793134000" lon="5.626130000">
        <ele>383.700000</ele>
        <time>2025-04-11T12:34:51Z</time>
      </trkpt>
      <trkpt lat="45.793078000" lon="5.626107000">
        <ele>382.100000</ele>
        <time>2025-04-11T12:35:11Z</time>
      </trkpt>
      <trkpt lat="45.792994000" lon="5.626082000">
        <ele>381.400000</ele>
        <time>2025-04-11T12:35:20Z</time>
      </trkpt>
      <trkpt lat="45.792824000" lon="5.626097000">
        <ele>380.600000</ele>
        <time>2025-04-11T12:35:29Z</time>
      </trkpt>
      <trkpt lat="45.792700000" lon="5.626124000">
        <ele>380.600000</ele>
        <time>2025-04-11T12:35:39Z</time>
      </trkpt>
      <trkpt lat="45.792584000" lon="5.626140000">
        <ele>379.800000</ele>
        <time>2025-04-11T12:35:49Z</time>
      </trkpt>
      <trkpt lat="45.792477000" lon="5.626195000">
        <ele>379.700000</ele>
        <time>2025-04-11T12:35:59Z</time>
      </trkpt>
      <trkpt lat="45.792378000" lon="5.626234000">
        <ele>382.100000</ele>
        <time>2025-04-11T12:36:08Z</time>
      </trkpt>
      <trkpt lat="45.792272000" lon="5.626250000">
        <ele>381.200000</ele>
        <time>2025-04-11T12:36:17Z</time>
      </trkpt>
      <trkpt lat="45.792179000" lon="5.626275000">
        <ele>380.700000</ele>
        <time>2025-04-11T12:36:27Z</time>
      </trkpt>
      <trkpt lat="45.792061000" lon="5.626295000">
        <ele>381.200000</ele>
        <time>2025-04-11T12:36:36Z</time>
      </trkpt>
      <trkpt lat="45.791963000" lon="5.626357000">
        <ele>379.900000</ele>
        <time>2025-04-11T12:36:45Z</time>
      </trkpt>
      <trkpt lat="45.791862000" lon="5.626383000">
        <ele>380.200000</ele>
        <time>2025-04-11T12:36:55Z</time>
      </trkpt>
      <trkpt lat="45.791747000" lon="5.626398000">
        <ele>380.200000</ele>
        <time>2025-04-11T12:37:05Z</time>
      </trkpt>
      <trkpt lat="45.791646000" lon="5.626419000">
        <ele>381.200000</ele>
        <time>2025-04-11T12:37:15Z</time>
      </trkpt>
      <trkpt lat="45.791593000" lon="5.626427000">
        <ele>381.600000</ele>
        <time>2025-04-11T12:37:24Z</time>
      </trkpt>
      <trkpt lat="45.791379000" lon="5.626482000">
        <ele>383.700000</ele>
        <time>2025-04-11T12:37:43Z</time>
      </trkpt>
      <trkpt lat="45.791286000" lon="5.626511000">
        <ele>385.600000</ele>
        <time>2025-04-11T12:37:52Z</time>
      </trkpt>
      <trkpt lat="45.791189000" lon="5.626553000">
        <ele>386.500000</ele>
        <time>2025-04-11T12:38:01Z</time>
      </trkpt>
      <trkpt lat="45.791084000" lon="5.626642000">
        <ele>387.300000</ele>
        <time>2025-04-11T12:38:11Z</time>
      </trkpt>
      <trkpt lat="45.790999000" lon="5.626721000">
        <ele>389.200000</ele>
        <time>2025-04-11T12:38:20Z</time>
      </trkpt>
      <trkpt lat="45.790943000" lon="5.626794000">
        <ele>390.100000</ele>
        <time>2025-04-11T12:38:29Z</time>
      </trkpt>
      <trkpt lat="45.790862000" lon="5.626888000">
        <ele>393.400000</ele>
        <time>2025-04-11T12:38:39Z</time>
      </trkpt>
      <trkpt lat="45.790778000" lon="5.626957000">
        <ele>392.700000</ele>
        <time>2025-04-11T12:38:48Z</time>
      </trkpt>
      <trkpt lat="45.790737000" lon="5.626985000">
        <ele>393.400000</ele>
        <time>2025-04-11T12:38:57Z</time>
      </trkpt>
      <trkpt lat="45.790663000" lon="5.627053000">
        <ele>394.300000</ele>
        <time>2025-04-11T12:39:07Z</time>
      </trkpt>
      <trkpt lat="45.790588000" lon="5.627057000">
        <ele>396.200000</ele>
        <time>2025-04-11T12:39:16Z</time>
      </trkpt>
      <trkpt lat="45.790495000" lon="5.627032000">
        <ele>397.500000</ele>
        <time>2025-04-11T12:39:25Z</time>
      </trkpt>
      <trkpt lat="45.790361000" lon="5.626985000">
        <ele>397.100000</ele>
        <time>2025-04-11T12:39:35Z</time>
      </trkpt>
      <trkpt lat="45.790249000" lon="5.627088000">
        <ele>398.300000</ele>
        <time>2025-04-11T12:39:45Z</time>
      </trkpt>
      <trkpt lat="45.790171000" lon="5.627221000">
        <ele>399.800000</ele>
        <time>2025-04-11T12:39:55Z</time>
      </trkpt>
      <trkpt lat="45.790140000" lon="5.627315000">
        <ele>397.800000</ele>
        <time>2025-04-11T12:40:04Z</time>
      </trkpt>
      <trkpt lat="45.790157000" lon="5.627323000">
        <ele>397.200000</ele>
        <time>2025-04-11T12:40:13Z</time>
        <cmt>Fontaine - Lavoir</cmt>
        <desc>Fontaine - Lavoir</desc>
        <sym>watersource</sym>
      </trkpt>
      <trkpt lat="45.790157000" lon="5.627333000">
        <ele>397.900000</ele>
        <time>2025-04-11T12:40:23Z</time>
      </trkpt>
      <trkpt lat="45.790168000" lon="5.627444000">
        <ele>397.300000</ele>
        <time>2025-04-11T12:40:32Z</time>
      </trkpt>
      <trkpt lat="45.790180000" lon="5.627454000">
        <ele>398.000000</ele>
        <time>2025-04-11T12:40:41Z</time>
      </trkpt>
      <trkpt lat="45.790145000" lon="5.627608000">
        <ele>397.500000</ele>
        <time>2025-04-11T12:40:51Z</time>
      </trkpt>
      <trkpt lat="45.790116000" lon="5.627724000">
        <ele>398.400000</ele>
        <time>2025-04-11T12:41:00Z</time>
      </trkpt>
      <trkpt lat="45.790093000" lon="5.627796000">
        <ele>398.100000</ele>
        <time>2025-04-11T12:41:09Z</time>
      </trkpt>
      <trkpt lat="45.790062000" lon="5.627857000">
        <ele>399.400000</ele>
        <time>2025-04-11T12:41:19Z</time>
      </trkpt>
      <trkpt lat="45.789955000" lon="5.627897000">
        <ele>398.200000</ele>
        <time>2025-04-11T12:41:28Z</time>
      </trkpt>
      <trkpt lat="45.789930000" lon="5.627945000">
        <ele>398.700000</ele>
        <time>2025-04-11T12:41:37Z</time>
      </trkpt>
      <trkpt lat="45.789848000" lon="5.628006000">
        <ele>398.200000</ele>
        <time>2025-04-11T12:41:47Z</time>
      </trkpt>
      <trkpt lat="45.789773000" lon="5.628139000">
        <ele>395.500000</ele>
        <time>2025-04-11T12:41:57Z</time>
      </trkpt>
      <trkpt lat="45.789564000" lon="5.628036000">
        <ele>392.500000</ele>
        <time>2025-04-11T12:42:16Z</time>
      </trkpt>
      <trkpt lat="45.789398000" lon="5.628064000">
        <ele>393.800000</ele>
        <time>2025-04-11T12:42:35Z</time>
      </trkpt>
      <trkpt lat="45.789304000" lon="5.628086000">
        <ele>392.500000</ele>
        <time>2025-04-11T12:42:44Z</time>
      </trkpt>
      <trkpt lat="45.789240000" lon="5.628137000">
        <ele>393.200000</ele>
        <time>2025-04-11T12:42:53Z</time>
      </trkpt>
      <trkpt lat="45.789226000" lon="5.628115000">
        <ele>391.200000</ele>
        <time>2025-04-11T12:43:03Z</time>
      </trkpt>
      <trkpt lat="45.789110000" lon="5.628188000">
        <ele>391.100000</ele>
        <time>2025-04-11T12:43:13Z</time>
      </trkpt>
      <trkpt lat="45.788999000" lon="5.628286000">
        <ele>391.100000</ele>
        <time>2025-04-11T12:43:23Z</time>
      </trkpt>
      <trkpt lat="45.788881000" lon="5.628374000">
        <ele>389.300000</ele>
        <time>2025-04-11T12:43:33Z</time>
      </trkpt>
      <trkpt lat="45.788766000" lon="5.628465000">
        <ele>388.100000</ele>
        <time>2025-04-11T12:43:43Z</time>
      </trkpt>
      <trkpt lat="45.788655000" lon="5.628501000">
        <ele>386.000000</ele>
        <time>2025-04-11T12:43:53Z</time>
      </trkpt>
      <trkpt lat="45.788473000" lon="5.628429000">
        <ele>385.800000</ele>
        <time>2025-04-11T12:44:12Z</time>
      </trkpt>
      <trkpt lat="45.788392000" lon="5.628450000">
        <ele>385.600000</ele>
        <time>2025-04-11T12:44:21Z</time>
      </trkpt>
      <trkpt lat="45.788325000" lon="5.628514000">
        <ele>386.100000</ele>
        <time>2025-04-11T12:44:31Z</time>
      </trkpt>
      <trkpt lat="45.788235000" lon="5.628585000">
        <ele>386.200000</ele>
        <time>2025-04-11T12:44:40Z</time>
      </trkpt>
      <trkpt lat="45.788156000" lon="5.628621000">
        <ele>385.900000</ele>
        <time>2025-04-11T12:44:49Z</time>
      </trkpt>
      <trkpt lat="45.788077000" lon="5.628650000">
        <ele>386.500000</ele>
        <time>2025-04-11T12:44:59Z</time>
      </trkpt>
      <trkpt lat="45.787871000" lon="5.628754000">
        <ele>387.600000</ele>
        <time>2025-04-11T12:45:17Z</time>
      </trkpt>
      <trkpt lat="45.787824000" lon="5.628731000">
        <ele>388.000000</ele>
        <time>2025-04-11T12:45:27Z</time>
      </trkpt>
      <trkpt lat="45.787793000" lon="5.628742000">
        <ele>388.800000</ele>
        <time>2025-04-11T12:45:36Z</time>
      </trkpt>
      <trkpt lat="45.787777000" lon="5.628743000">
        <ele>387.900000</ele>
        <time>2025-04-11T12:45:45Z</time>
      </trkpt>
      <trkpt lat="45.787594000" lon="5.628663000">
        <ele>388.100000</ele>
        <time>2025-04-11T12:46:04Z</time>
      </trkpt>
      <trkpt lat="45.787509000" lon="5.628631000">
        <ele>387.900000</ele>
        <time>2025-04-11T12:46:13Z</time>
      </trkpt>
      <trkpt lat="45.787329000" lon="5.628481000">
        <ele>385.100000</ele>
        <time>2025-04-11T12:46:32Z</time>
      </trkpt>
      <trkpt lat="45.787247000" lon="5.628429000">
        <ele>383.800000</ele>
        <time>2025-04-11T12:46:41Z</time>
      </trkpt>
      <trkpt lat="45.787136000" lon="5.628313000">
        <ele>384.300000</ele>
        <time>2025-04-11T12:46:51Z</time>
      </trkpt>
      <trkpt lat="45.787085000" lon="5.628289000">
        <ele>382.400000</ele>
        <time>2025-04-11T12:47:01Z</time>
      </trkpt>
      <trkpt lat="45.786929000" lon="5.628317000">
        <ele>381.500000</ele>
        <time>2025-04-11T12:47:11Z</time>
      </trkpt>
      <trkpt lat="45.786858000" lon="5.628318000">
        <ele>380.500000</ele>
        <time>2025-04-11T12:47:20Z</time>
      </trkpt>
      <trkpt lat="45.786755000" lon="5.628300000">
        <ele>380.800000</ele>
        <time>2025-04-11T12:47:29Z</time>
      </trkpt>
      <trkpt lat="45.786638000" lon="5.628327000">
        <ele>383.800000</ele>
        <time>2025-04-11T12:47:39Z</time>
      </trkpt>
      <trkpt lat="45.786533000" lon="5.628344000">
        <ele>383.300000</ele>
        <time>2025-04-11T12:47:48Z</time>
      </trkpt>
      <trkpt lat="45.786440000" lon="5.628371000">
        <ele>381.200000</ele>
        <time>2025-04-11T12:47:57Z</time>
      </trkpt>
      <trkpt lat="45.786318000" lon="5.628414000">
        <ele>382.100000</ele>
        <time>2025-04-11T12:48:07Z</time>
      </trkpt>
      <trkpt lat="45.786230000" lon="5.628441000">
        <ele>383.600000</ele>
        <time>2025-04-11T12:48:17Z</time>
      </trkpt>
      <trkpt lat="45.786140000" lon="5.628501000">
        <ele>385.300000</ele>
        <time>2025-04-11T12:48:27Z</time>
      </trkpt>
      <trkpt lat="45.786031000" lon="5.628526000">
        <ele>388.100000</ele>
        <time>2025-04-11T12:48:36Z</time>
      </trkpt>
      <trkpt lat="45.785932000" lon="5.628631000">
        <ele>389.500000</ele>
        <time>2025-04-11T12:48:45Z</time>
      </trkpt>
      <trkpt lat="45.785849000" lon="5.628716000">
        <ele>389.400000</ele>
        <time>2025-04-11T12:48:55Z</time>
      </trkpt>
      <trkpt lat="45.785737000" lon="5.628754000">
        <ele>389.300000</ele>
        <time>2025-04-11T12:49:04Z</time>
      </trkpt>
      <trkpt lat="45.785654000" lon="5.628820000">
        <ele>391.000000</ele>
        <time>2025-04-11T12:49:13Z</time>
      </trkpt>
      <trkpt lat="45.785513000" lon="5.628848000">
        <ele>391.100000</ele>
        <time>2025-04-11T12:49:23Z</time>
      </trkpt>
      <trkpt lat="45.785436000" lon="5.628910000">
        <ele>392.300000</ele>
        <time>2025-04-11T12:49:33Z</time>
      </trkpt>
      <trkpt lat="45.785387000" lon="5.629011000">
        <ele>389.800000</ele>
        <time>2025-04-11T12:49:43Z</time>
      </trkpt>
      <trkpt lat="45.785345000" lon="5.629012000">
        <ele>390.900000</ele>
        <time>2025-04-11T12:49:52Z</time>
      </trkpt>
      <trkpt lat="45.785228000" lon="5.629008000">
        <ele>391.700000</ele>
        <time>2025-04-11T12:50:01Z</time>
      </trkpt>
      <trkpt lat="45.785090000" lon="5.629081000">
        <ele>392.600000</ele>
        <time>2025-04-11T12:50:11Z</time>
      </trkpt>
      <trkpt lat="45.785026000" lon="5.629150000">
        <ele>393.600000</ele>
        <time>2025-04-11T12:50:21Z</time>
      </trkpt>
      <trkpt lat="45.784920000" lon="5.629208000">
        <ele>394.100000</ele>
        <time>2025-04-11T12:50:31Z</time>
      </trkpt>
      <trkpt lat="45.784873000" lon="5.629317000">
        <ele>394.200000</ele>
        <time>2025-04-11T12:50:40Z</time>
      </trkpt>
      <trkpt lat="45.784788000" lon="5.629334000">
        <ele>392.500000</ele>
        <time>2025-04-11T12:50:49Z</time>
      </trkpt>
      <trkpt lat="45.784706000" lon="5.629426000">
        <ele>392.000000</ele>
        <time>2025-04-11T12:50:59Z</time>
      </trkpt>
      <trkpt lat="45.784675000" lon="5.629429000">
        <ele>392.300000</ele>
        <time>2025-04-11T12:51:09Z</time>
      </trkpt>
      <trkpt lat="45.784542000" lon="5.629460000">
        <ele>392.000000</ele>
        <time>2025-04-11T12:51:19Z</time>
      </trkpt>
      <trkpt lat="45.784483000" lon="5.629516000">
        <ele>392.200000</ele>
        <time>2025-04-11T12:51:28Z</time>
      </trkpt>
      <trkpt lat="45.784378000" lon="5.629622000">
        <ele>389.900000</ele>
        <time>2025-04-11T12:51:37Z</time>
      </trkpt>
      <trkpt lat="45.784293000" lon="5.629712000">
        <ele>388.200000</ele>
        <time>2025-04-11T12:51:47Z</time>
      </trkpt>
      <trkpt lat="45.784194000" lon="5.629807000">
        <ele>386.400000</ele>
        <time>2025-04-11T12:51:57Z</time>
      </trkpt>
      <trkpt lat="45.784086000" lon="5.629889000">
        <ele>386.200000</ele>
        <time>2025-04-11T12:52:07Z</time>
      </trkpt>
      <trkpt lat="45.783995000" lon="5.629951000">
        <ele>385.400000</ele>
        <time>2025-04-11T12:52:17Z</time>
      </trkpt>
      <trkpt lat="45.783837000" lon="5.630148000">
        <ele>388.100000</ele>
        <time>2025-04-11T12:52:37Z</time>
      </trkpt>
      <trkpt lat="45.783766000" lon="5.630242000">
        <ele>387.900000</ele>
        <time>2025-04-11T12:52:46Z</time>
      </trkpt>
      <trkpt lat="45.783671000" lon="5.630331000">
        <ele>387.000000</ele>
        <time>2025-04-11T12:52:56Z</time>
      </trkpt>
      <trkpt lat="45.783614000" lon="5.630394000">
        <ele>387.500000</ele>
        <time>2025-04-11T12:53:06Z</time>
      </trkpt>
      <trkpt lat="45.783506000" lon="5.630506000">
        <ele>386.400000</ele>
        <time>2025-04-11T12:53:17Z</time>
      </trkpt>
      <trkpt lat="45.783466000" lon="5.630558000">
        <ele>387.300000</ele>
        <time>2025-04-11T12:53:26Z</time>
      </trkpt>
      <trkpt lat="45.783399000" lon="5.630609000">
        <ele>385.000000</ele>
        <time>2025-04-11T12:53:36Z</time>
      </trkpt>
      <trkpt lat="45.783326000" lon="5.630722000">
        <ele>382.500000</ele>
        <time>2025-04-11T12:53:46Z</time>
      </trkpt>
      <trkpt lat="45.783253000" lon="5.630794000">
        <ele>381.700000</ele>
        <time>2025-04-11T12:53:56Z</time>
      </trkpt>
      <trkpt lat="45.783176000" lon="5.630875000">
        <ele>379.600000</ele>
        <time>2025-04-11T12:54:06Z</time>
      </trkpt>
      <trkpt lat="45.783127000" lon="5.630920000">
        <ele>378.500000</ele>
        <time>2025-04-11T12:54:16Z</time>
      </trkpt>
      <trkpt lat="45.783071000" lon="5.631032000">
        <ele>377.900000</ele>
        <time>2025-04-11T12:54:25Z</time>
      </trkpt>
      <trkpt lat="45.783014000" lon="5.631111000">
        <ele>379.400000</ele>
        <time>2025-04-11T12:54:34Z</time>
      </trkpt>
      <trkpt lat="45.782961000" lon="5.631232000">
        <ele>378.500000</ele>
        <time>2025-04-11T12:54:54Z</time>
      </trkpt>
      <trkpt lat="45.782901000" lon="5.631425000">
        <ele>377.600000</ele>
        <time>2025-04-11T12:55:04Z</time>
      </trkpt>
      <trkpt lat="45.782841000" lon="5.631575000">
        <ele>377.400000</ele>
        <time>2025-04-11T12:55:14Z</time>
      </trkpt>
      <trkpt lat="45.782774000" lon="5.631664000">
        <ele>377.100000</ele>
        <time>2025-04-11T12:55:24Z</time>
      </trkpt>
      <trkpt lat="45.782694000" lon="5.631792000">
        <ele>379.400000</ele>
        <time>2025-04-11T12:55:34Z</time>
      </trkpt>
      <trkpt lat="45.782658000" lon="5.631878000">
        <ele>378.000000</ele>
        <time>2025-04-11T12:55:44Z</time>
      </trkpt>
      <trkpt lat="45.782587000" lon="5.631933000">
        <ele>377.700000</ele>
        <time>2025-04-11T12:55:53Z</time>
      </trkpt>
      <trkpt lat="45.782479000" lon="5.632003000">
        <ele>374.700000</ele>
        <time>2025-04-11T12:56:02Z</time>
      </trkpt>
      <trkpt lat="45.782415000" lon="5.632135000">
        <ele>375.300000</ele>
        <time>2025-04-11T12:56:12Z</time>
      </trkpt>
      <trkpt lat="45.782326000" lon="5.632227000">
        <ele>374.700000</ele>
        <time>2025-04-11T12:56:22Z</time>
      </trkpt>
      <trkpt lat="45.782330000" lon="5.632361000">
        <ele>375.400000</ele>
        <time>2025-04-11T12:56:32Z</time>
      </trkpt>
      <trkpt lat="45.782328000" lon="5.632367000">
        <ele>372.300000</ele>
        <time>2025-04-11T12:56:42Z</time>
      </trkpt>
      <trkpt lat="45.782325000" lon="5.632371000">
        <ele>372.300000</ele>
        <time>2025-04-11T12:56:52Z</time>
      </trkpt>
      <trkpt lat="45.782318000" lon="5.632372000">
        <ele>371.500000</ele>
        <time>2025-04-11T12:57:02Z</time>
      </trkpt>
      <trkpt lat="45.782240000" lon="5.632411000">
        <ele>374.200000</ele>
        <time>2025-04-11T13:00:24Z</time>
      </trkpt>
      <trkpt lat="45.782140000" lon="5.632509000">
        <ele>376.800000</ele>
        <time>2025-04-11T13:00:33Z</time>
      </trkpt>
      <trkpt lat="45.782099000" lon="5.632617000">
        <ele>378.800000</ele>
        <time>2025-04-11T13:00:42Z</time>
      </trkpt>
      <trkpt lat="45.782042000" lon="5.632728000">
        <ele>379.300000</ele>
        <time>2025-04-11T13:00:52Z</time>
      </trkpt>
      <trkpt lat="45.781995000" lon="5.632869000">
        <ele>381.600000</ele>
        <time>2025-04-11T13:01:02Z</time>
      </trkpt>
      <trkpt lat="45.781908000" lon="5.632998000">
        <ele>378.800000</ele>
        <time>2025-04-11T13:01:12Z</time>
      </trkpt>
      <trkpt lat="45.781909000" lon="5.633019000">
        <ele>376.800000</ele>
        <time>2025-04-11T13:01:21Z</time>
      </trkpt>
      <trkpt lat="45.781916000" lon="5.633046000">
        <ele>377.800000</ele>
        <time>2025-04-11T13:01:40Z</time>
      </trkpt>
      <trkpt lat="45.781921000" lon="5.633049000">
        <ele>377.900000</ele>
        <time>2025-04-11T13:01:49Z</time>
      </trkpt>
      <trkpt lat="45.781939000" lon="5.633008000">
        <ele>378.000000</ele>
        <time>2025-04-11T13:01:59Z</time>
      </trkpt>
      <trkpt lat="45.781891000" lon="5.633047000">
        <ele>375.300000</ele>
        <time>2025-04-11T13:04:53Z</time>
      </trkpt>
      <trkpt lat="45.781795000" lon="5.633095000">
        <ele>376.800000</ele>
        <time>2025-04-11T13:05:02Z</time>
      </trkpt>
      <trkpt lat="45.781780000" lon="5.633127000">
        <ele>378.800000</ele>
        <time>2025-04-11T13:05:11Z</time>
      </trkpt>
      <trkpt lat="45.781784000" lon="5.633137000">
        <ele>380.100000</ele>
        <time>2025-04-11T13:05:21Z</time>
      </trkpt>
      <trkpt lat="45.781731000" lon="5.633140000">
        <ele>380.800000</ele>
        <time>2025-04-11T13:05:31Z</time>
      </trkpt>
      <trkpt lat="45.781634000" lon="5.633229000">
        <ele>381.100000</ele>
        <time>2025-04-11T13:05:41Z</time>
      </trkpt>
      <trkpt lat="45.781551000" lon="5.633254000">
        <ele>381.200000</ele>
        <time>2025-04-11T13:05:50Z</time>
      </trkpt>
      <trkpt lat="45.781469000" lon="5.633207000">
        <ele>380.900000</ele>
        <time>2025-04-11T13:05:59Z</time>
      </trkpt>
      <trkpt lat="45.781419000" lon="5.633130000">
        <ele>380.500000</ele>
        <time>2025-04-11T13:06:09Z</time>
      </trkpt>
      <trkpt lat="45.781346000" lon="5.633110000">
        <ele>379.200000</ele>
        <time>2025-04-11T13:06:19Z</time>
      </trkpt>
      <trkpt lat="45.781290000" lon="5.633108000">
        <ele>378.200000</ele>
        <time>2025-04-11T13:06:29Z</time>
      </trkpt>
      <trkpt lat="45.781232000" lon="5.633090000">
        <ele>378.400000</ele>
        <time>2025-04-11T13:06:39Z</time>
      </trkpt>
      <trkpt lat="45.781219000" lon="5.633066000">
        <ele>377.300000</ele>
        <time>2025-04-11T13:06:49Z</time>
      </trkpt>
      <trkpt lat="45.781188000" lon="5.633059000">
        <ele>375.400000</ele>
        <time>2025-04-11T13:06:58Z</time>
      </trkpt>
      <trkpt lat="45.781027000" lon="5.633075000">
        <ele>375.100000</ele>
        <time>2025-04-11T13:07:07Z</time>
      </trkpt>
      <trkpt lat="45.780845000" lon="5.633129000">
        <ele>374.300000</ele>
        <time>2025-04-11T13:07:17Z</time>
      </trkpt>
      <trkpt lat="45.780743000" lon="5.633050000">
        <ele>370.800000</ele>
        <time>2025-04-11T13:07:27Z</time>
      </trkpt>
      <trkpt lat="45.780703000" lon="5.632924000">
        <ele>370.500000</ele>
        <time>2025-04-11T13:07:37Z</time>
      </trkpt>
      <trkpt lat="45.780716000" lon="5.632805000">
        <ele>370.100000</ele>
        <time>2025-04-11T13:07:46Z</time>
      </trkpt>
      <trkpt lat="45.780734000" lon="5.632800000">
        <ele>369.800000</ele>
        <time>2025-04-11T13:07:55Z</time>
      </trkpt>
      <trkpt lat="45.780813000" lon="5.632676000">
        <ele>368.200000</ele>
        <time>2025-04-11T13:08:05Z</time>
      </trkpt>
      <trkpt lat="45.780897000" lon="5.632619000">
        <ele>367.200000</ele>
        <time>2025-04-11T13:08:15Z</time>
      </trkpt>
      <trkpt lat="45.780901000" lon="5.632598000">
        <ele>366.800000</ele>
        <time>2025-04-11T13:08:25Z</time>
      </trkpt>
      <trkpt lat="45.780938000" lon="5.632539000">
        <ele>367.100000</ele>
        <time>2025-04-11T13:08:35Z</time>
      </trkpt>
      <trkpt lat="45.780970000" lon="5.632428000">
        <ele>367.000000</ele>
        <time>2025-04-11T13:08:45Z</time>
      </trkpt>
      <trkpt lat="45.781010000" lon="5.632304000">
        <ele>367.200000</ele>
        <time>2025-04-11T13:08:55Z</time>
      </trkpt>
      <trkpt lat="45.781018000" lon="5.632160000">
        <ele>367.100000</ele>
        <time>2025-04-11T13:09:05Z</time>
      </trkpt>
      <trkpt lat="45.781029000" lon="5.632063000">
        <ele>366.900000</ele>
        <time>2025-04-11T13:09:14Z</time>
      </trkpt>
      <trkpt lat="45.781022000" lon="5.631934000">
        <ele>366.000000</ele>
        <time>2025-04-11T13:09:23Z</time>
      </trkpt>
      <trkpt lat="45.781039000" lon="5.631793000">
        <ele>365.500000</ele>
        <time>2025-04-11T13:09:33Z</time>
      </trkpt>
      <trkpt lat="45.781020000" lon="5.631780000">
        <ele>362.300000</ele>
        <time>2025-04-11T13:10:31Z</time>
      </trkpt>
      <trkpt lat="45.781020000" lon="5.631786000">
        <ele>362.900000</ele>
        <time>2025-04-11T13:10:41Z</time>
      </trkpt>
      <trkpt lat="45.780978000" lon="5.631845000">
        <ele>364.100000</ele>
        <time>2025-04-11T13:10:59Z</time>
      </trkpt>
      <trkpt lat="45.780862000" lon="5.632023000">
        <ele>366.500000</ele>
        <time>2025-04-11T13:11:09Z</time>
      </trkpt>
      <trkpt lat="45.780806000" lon="5.632160000">
        <ele>367.200000</ele>
        <time>2025-04-11T13:11:18Z</time>
      </trkpt>
      <trkpt lat="45.780745000" lon="5.632259000">
        <ele>368.200000</ele>
        <time>2025-04-11T13:11:27Z</time>
      </trkpt>
      <trkpt lat="45.780671000" lon="5.632394000">
        <ele>367.000000</ele>
        <time>2025-04-11T13:11:37Z</time>
      </trkpt>
      <trkpt lat="45.780522000" lon="5.632560000">
        <ele>367.900000</ele>
        <time>2025-04-11T13:11:57Z</time>
      </trkpt>
      <trkpt lat="45.780437000" lon="5.632572000">
        <ele>367.400000</ele>
        <time>2025-04-11T13:12:07Z</time>
      </trkpt>
      <trkpt lat="45.780368000" lon="5.632738000">
        <ele>367.900000</ele>
        <time>2025-04-11T13:12:17Z</time>
      </trkpt>
      <trkpt lat="45.780298000" lon="5.632777000">
        <ele>367.400000</ele>
        <time>2025-04-11T13:12:26Z</time>
      </trkpt>
      <trkpt lat="45.780215000" lon="5.632847000">
        <ele>367.900000</ele>
        <time>2025-04-11T13:12:35Z</time>
      </trkpt>
      <trkpt lat="45.780116000" lon="5.632943000">
        <ele>366.900000</ele>
        <time>2025-04-11T13:12:45Z</time>
      </trkpt>
      <trkpt lat="45.780026000" lon="5.633056000">
        <ele>367.300000</ele>
        <time>2025-04-11T13:12:55Z</time>
      </trkpt>
      <trkpt lat="45.779950000" lon="5.633130000">
        <ele>367.800000</ele>
        <time>2025-04-11T13:13:05Z</time>
      </trkpt>
      <trkpt lat="45.779847000" lon="5.633245000">
        <ele>368.300000</ele>
        <time>2025-04-11T13:13:15Z</time>
      </trkpt>
      <trkpt lat="45.779767000" lon="5.633322000">
        <ele>369.300000</ele>
        <time>2025-04-11T13:13:25Z</time>
      </trkpt>
      <trkpt lat="45.779619000" lon="5.633514000">
        <ele>368.700000</ele>
        <time>2025-04-11T13:13:43Z</time>
      </trkpt>
      <trkpt lat="45.779563000" lon="5.633592000">
        <ele>370.400000</ele>
        <time>2025-04-11T13:13:53Z</time>
      </trkpt>
      <trkpt lat="45.779495000" lon="5.633740000">
        <ele>369.900000</ele>
        <time>2025-04-11T13:14:03Z</time>
      </trkpt>
      <trkpt lat="45.779434000" lon="5.633825000">
        <ele>370.100000</ele>
        <time>2025-04-11T13:14:13Z</time>
      </trkpt>
      <trkpt lat="45.779380000" lon="5.633973000">
        <ele>369.300000</ele>
        <time>2025-04-11T13:14:22Z</time>
      </trkpt>
      <trkpt lat="45.779348000" lon="5.634116000">
        <ele>369.200000</ele>
        <time>2025-04-11T13:14:31Z</time>
      </trkpt>
      <trkpt lat="45.779269000" lon="5.634192000">
        <ele>369.100000</ele>
        <time>2025-04-11T13:14:41Z</time>
      </trkpt>
      <trkpt lat="45.779265000" lon="5.634376000">
        <ele>370.500000</ele>
        <time>2025-04-11T13:14:50Z</time>
      </trkpt>
      <trkpt lat="45.779210000" lon="5.634430000">
        <ele>370.400000</ele>
        <time>2025-04-11T13:14:59Z</time>
      </trkpt>
      <trkpt lat="45.779151000" lon="5.634568000">
        <ele>370.500000</ele>
        <time>2025-04-11T13:15:09Z</time>
      </trkpt>
      <trkpt lat="45.779110000" lon="5.634695000">
        <ele>370.000000</ele>
        <time>2025-04-11T13:15:19Z</time>
      </trkpt>
      <trkpt lat="45.779074000" lon="5.634823000">
        <ele>370.000000</ele>
        <time>2025-04-11T13:15:29Z</time>
      </trkpt>
      <trkpt lat="45.779038000" lon="5.635015000">
        <ele>369.500000</ele>
        <time>2025-04-11T13:15:39Z</time>
      </trkpt>
      <trkpt lat="45.778934000" lon="5.635111000">
        <ele>367.100000</ele>
        <time>2025-04-11T13:15:49Z</time>
      </trkpt>
      <trkpt lat="45.778872000" lon="5.635208000">
        <ele>366.600000</ele>
        <time>2025-04-11T13:15:58Z</time>
      </trkpt>
      <trkpt lat="45.778845000" lon="5.635330000">
        <ele>365.900000</ele>
        <time>2025-04-11T13:16:07Z</time>
      </trkpt>
      <trkpt lat="45.778792000" lon="5.635465000">
        <ele>365.100000</ele>
        <time>2025-04-11T13:16:17Z</time>
      </trkpt>
      <trkpt lat="45.778718000" lon="5.635568000">
        <ele>363.900000</ele>
        <time>2025-04-11T13:16:27Z</time>
      </trkpt>
      <trkpt lat="45.778655000" lon="5.635688000">
        <ele>365.500000</ele>
        <time>2025-04-11T13:16:37Z</time>
      </trkpt>
      <trkpt lat="45.778620000" lon="5.635824000">
        <ele>366.100000</ele>
        <time>2025-04-11T13:16:46Z</time>
      </trkpt>
      <trkpt lat="45.778567000" lon="5.635987000">
        <ele>368.000000</ele>
        <time>2025-04-11T13:16:55Z</time>
      </trkpt>
      <trkpt lat="45.778442000" lon="5.636120000">
        <ele>368.700000</ele>
        <time>2025-04-11T13:18:01Z</time>
      </trkpt>
      <trkpt lat="45.778417000" lon="5.636144000">
        <ele>369.100000</ele>
        <time>2025-04-11T13:18:10Z</time>
      </trkpt>
      <trkpt lat="45.778398000" lon="5.636193000">
        <ele>370.800000</ele>
        <time>2025-04-11T13:18:20Z</time>
      </trkpt>
      <trkpt lat="45.778404000" lon="5.636205000">
        <ele>370.800000</ele>
        <time>2025-04-11T13:18:29Z</time>
      </trkpt>
      <trkpt lat="45.778324000" lon="5.636283000">
        <ele>369.600000</ele>
        <time>2025-04-11T13:18:48Z</time>
      </trkpt>
      <trkpt lat="45.778276000" lon="5.636412000">
        <ele>369.300000</ele>
        <time>2025-04-11T13:18:58Z</time>
      </trkpt>
      <trkpt lat="45.778236000" lon="5.636489000">
        <ele>368.700000</ele>
        <time>2025-04-11T13:19:08Z</time>
      </trkpt>
      <trkpt lat="45.778160000" lon="5.636570000">
        <ele>369.200000</ele>
        <time>2025-04-11T13:19:17Z</time>
      </trkpt>
      <trkpt lat="45.778096000" lon="5.636675000">
        <ele>369.900000</ele>
        <time>2025-04-11T13:19:26Z</time>
      </trkpt>
      <trkpt lat="45.777991000" lon="5.636718000">
        <ele>371.400000</ele>
        <time>2025-04-11T13:19:36Z</time>
      </trkpt>
      <trkpt lat="45.777796000" lon="5.636872000">
        <ele>370.500000</ele>
        <time>2025-04-11T13:19:56Z</time>
      </trkpt>
      <trkpt lat="45.777708000" lon="5.636876000">
        <ele>371.300000</ele>
        <time>2025-04-11T13:20:06Z</time>
      </trkpt>
      <trkpt lat="45.777607000" lon="5.636930000">
        <ele>374.000000</ele>
        <time>2025-04-11T13:20:16Z</time>
      </trkpt>
      <trkpt lat="45.777543000" lon="5.636951000">
        <ele>375.000000</ele>
        <time>2025-04-11T13:20:25Z</time>
      </trkpt>
      <trkpt lat="45.777437000" lon="5.637060000">
        <ele>375.600000</ele>
        <time>2025-04-11T13:20:34Z</time>
      </trkpt>
      <trkpt lat="45.777349000" lon="5.637171000">
        <ele>375.900000</ele>
        <time>2025-04-11T13:20:44Z</time>
      </trkpt>
      <trkpt lat="45.777272000" lon="5.637281000">
        <ele>375.000000</ele>
        <time>2025-04-11T13:20:53Z</time>
      </trkpt>
      <trkpt lat="45.777192000" lon="5.637350000">
        <ele>375.500000</ele>
        <time>2025-04-11T13:21:02Z</time>
      </trkpt>
      <trkpt lat="45.777138000" lon="5.637421000">
        <ele>377.300000</ele>
        <time>2025-04-11T13:21:12Z</time>
      </trkpt>
      <trkpt lat="45.777034000" lon="5.637499000">
        <ele>378.100000</ele>
        <time>2025-04-11T13:21:21Z</time>
      </trkpt>
      <trkpt lat="45.776976000" lon="5.637661000">
        <ele>379.300000</ele>
        <time>2025-04-11T13:21:30Z</time>
      </trkpt>
      <trkpt lat="45.776936000" lon="5.637807000">
        <ele>379.300000</ele>
        <time>2025-04-11T13:21:40Z</time>
      </trkpt>
      <trkpt lat="45.776880000" lon="5.638033000">
        <ele>378.400000</ele>
        <time>2025-04-11T13:21:58Z</time>
      </trkpt>
      <trkpt lat="45.776798000" lon="5.638135000">
        <ele>379.900000</ele>
        <time>2025-04-11T13:22:08Z</time>
      </trkpt>
      <trkpt lat="45.776733000" lon="5.638275000">
        <ele>380.000000</ele>
        <time>2025-04-11T13:22:17Z</time>
      </trkpt>
      <trkpt lat="45.776708000" lon="5.638450000">
        <ele>379.500000</ele>
        <time>2025-04-11T13:22:26Z</time>
      </trkpt>
      <trkpt lat="45.776663000" lon="5.638595000">
        <ele>378.000000</ele>
        <time>2025-04-11T13:22:36Z</time>
      </trkpt>
      <trkpt lat="45.776598000" lon="5.638723000">
        <ele>377.600000</ele>
        <time>2025-04-11T13:22:46Z</time>
      </trkpt>
      <trkpt lat="45.776545000" lon="5.638840000">
        <ele>378.600000</ele>
        <time>2025-04-11T13:22:56Z</time>
      </trkpt>
      <trkpt lat="45.776478000" lon="5.638938000">
        <ele>379.300000</ele>
        <time>2025-04-11T13:23:05Z</time>
      </trkpt>
      <trkpt lat="45.776426000" lon="5.638991000">
        <ele>379.900000</ele>
        <time>2025-04-11T13:23:14Z</time>
      </trkpt>
      <trkpt lat="45.776321000" lon="5.639063000">
        <ele>381.000000</ele>
        <time>2025-04-11T13:23:24Z</time>
      </trkpt>
      <trkpt lat="45.776194000" lon="5.639124000">
        <ele>382.200000</ele>
        <time>2025-04-11T13:23:34Z</time>
      </trkpt>
      <trkpt lat="45.776109000" lon="5.639223000">
        <ele>380.900000</ele>
        <time>2025-04-11T13:23:44Z</time>
      </trkpt>
      <trkpt lat="45.776007000" lon="5.639284000">
        <ele>381.400000</ele>
        <time>2025-04-11T13:23:54Z</time>
      </trkpt>
      <trkpt lat="45.775898000" lon="5.639315000">
        <ele>380.600000</ele>
        <time>2025-04-11T13:24:04Z</time>
      </trkpt>
      <trkpt lat="45.775813000" lon="5.639349000">
        <ele>380.300000</ele>
        <time>2025-04-11T13:24:13Z</time>
      </trkpt>
      <trkpt lat="45.775720000" lon="5.639391000">
        <ele>382.600000</ele>
        <time>2025-04-11T13:24:22Z</time>
      </trkpt>
      <trkpt lat="45.775651000" lon="5.639438000">
        <ele>385.700000</ele>
        <time>2025-04-11T13:24:32Z</time>
      </trkpt>
      <trkpt lat="45.775539000" lon="5.639476000">
        <ele>387.900000</ele>
        <time>2025-04-11T13:24:41Z</time>
      </trkpt>
      <trkpt lat="45.775446000" lon="5.639531000">
        <ele>388.200000</ele>
        <time>2025-04-11T13:24:50Z</time>
      </trkpt>
      <trkpt lat="45.775339000" lon="5.639615000">
        <ele>390.000000</ele>
        <time>2025-04-11T13:25:00Z</time>
      </trkpt>
      <trkpt lat="45.775201000" lon="5.639717000">
        <ele>388.500000</ele>
        <time>2025-04-11T13:25:09Z</time>
      </trkpt>
      <trkpt lat="45.775103000" lon="5.639792000">
        <ele>387.700000</ele>
        <time>2025-04-11T13:25:18Z</time>
      </trkpt>
      <trkpt lat="45.775003000" lon="5.639735000">
        <ele>388.800000</ele>
        <time>2025-04-11T13:25:28Z</time>
      </trkpt>
      <trkpt lat="45.774924000" lon="5.639681000">
        <ele>389.100000</ele>
        <time>2025-04-11T13:25:38Z</time>
      </trkpt>
      <trkpt lat="45.774800000" lon="5.639683000">
        <ele>387.700000</ele>
        <time>2025-04-11T13:25:48Z</time>
      </trkpt>
      <trkpt lat="45.774707000" lon="5.639703000">
        <ele>385.400000</ele>
        <time>2025-04-11T13:25:57Z</time>
      </trkpt>
      <trkpt lat="45.774655000" lon="5.639731000">
        <ele>385.400000</ele>
        <time>2025-04-11T13:26:06Z</time>
      </trkpt>
      <trkpt lat="45.774565000" lon="5.639753000">
        <ele>384.400000</ele>
        <time>2025-04-11T13:26:16Z</time>
      </trkpt>
      <trkpt lat="45.774485000" lon="5.639769000">
        <ele>384.900000</ele>
        <time>2025-04-11T13:26:26Z</time>
      </trkpt>
      <trkpt lat="45.774347000" lon="5.639802000">
        <ele>384.100000</ele>
        <time>2025-04-11T13:26:36Z</time>
      </trkpt>
      <trkpt lat="45.774222000" lon="5.639865000">
        <ele>383.100000</ele>
        <time>2025-04-11T13:26:45Z</time>
      </trkpt>
      <trkpt lat="45.774133000" lon="5.639918000">
        <ele>383.100000</ele>
        <time>2025-04-11T13:26:54Z</time>
      </trkpt>
      <trkpt lat="45.774024000" lon="5.639966000">
        <ele>384.900000</ele>
        <time>2025-04-11T13:27:04Z</time>
      </trkpt>
      <trkpt lat="45.773954000" lon="5.640011000">
        <ele>383.500000</ele>
        <time>2025-04-11T13:27:14Z</time>
      </trkpt>
      <trkpt lat="45.773829000" lon="5.640052000">
        <ele>384.100000</ele>
        <time>2025-04-11T13:27:24Z</time>
      </trkpt>
      <trkpt lat="45.773714000" lon="5.640191000">
        <ele>384.200000</ele>
        <time>2025-04-11T13:27:33Z</time>
      </trkpt>
      <trkpt lat="45.773659000" lon="5.640302000">
        <ele>383.500000</ele>
        <time>2025-04-11T13:27:42Z</time>
      </trkpt>
      <trkpt lat="45.773578000" lon="5.640354000">
        <ele>381.400000</ele>
        <time>2025-04-11T13:27:52Z</time>
      </trkpt>
      <trkpt lat="45.773493000" lon="5.640424000">
        <ele>381.700000</ele>
        <time>2025-04-11T13:28:02Z</time>
      </trkpt>
      <trkpt lat="45.773428000" lon="5.640486000">
        <ele>381.600000</ele>
        <time>2025-04-11T13:28:12Z</time>
      </trkpt>
      <trkpt lat="45.773284000" lon="5.640540000">
        <ele>381.500000</ele>
        <time>2025-04-11T13:28:22Z</time>
      </trkpt>
      <trkpt lat="45.773202000" lon="5.640580000">
        <ele>382.000000</ele>
        <time>2025-04-11T13:28:32Z</time>
      </trkpt>
      <trkpt lat="45.773052000" lon="5.640557000">
        <ele>381.000000</ele>
        <time>2025-04-11T13:28:50Z</time>
      </trkpt>
      <trkpt lat="45.773024000" lon="5.640539000">
        <ele>381.100000</ele>
        <time>2025-04-11T13:29:00Z</time>
      </trkpt>
      <trkpt lat="45.772747000" lon="5.640557000">
        <ele>381.000000</ele>
        <time>2025-04-11T13:29:18Z</time>
      </trkpt>
      <trkpt lat="45.772591000" lon="5.640583000">
        <ele>382.200000</ele>
        <time>2025-04-11T13:29:28Z</time>
      </trkpt>
      <trkpt lat="45.772503000" lon="5.640589000">
        <ele>383.200000</ele>
        <time>2025-04-11T13:29:37Z</time>
      </trkpt>
      <trkpt lat="45.772402000" lon="5.640610000">
        <ele>383.400000</ele>
        <time>2025-04-11T13:29:46Z</time>
      </trkpt>
      <trkpt lat="45.772283000" lon="5.640613000">
        <ele>381.500000</ele>
        <time>2025-04-11T13:29:56Z</time>
      </trkpt>
      <trkpt lat="45.772205000" lon="5.640630000">
        <ele>381.300000</ele>
        <time>2025-04-11T13:30:05Z</time>
      </trkpt>
      <trkpt lat="45.772087000" lon="5.640647000">
        <ele>379.900000</ele>
        <time>2025-04-11T13:30:14Z</time>
      </trkpt>
      <trkpt lat="45.771974000" lon="5.640650000">
        <ele>379.100000</ele>
        <time>2025-04-11T13:30:24Z</time>
      </trkpt>
      <trkpt lat="45.771867000" lon="5.640697000">
        <ele>379.100000</ele>
        <time>2025-04-11T13:30:33Z</time>
      </trkpt>
      <trkpt lat="45.771681000" lon="5.640732000">
        <ele>381.100000</ele>
        <time>2025-04-11T13:30:52Z</time>
      </trkpt>
      <trkpt lat="45.771578000" lon="5.640726000">
        <ele>381.200000</ele>
        <time>2025-04-11T13:31:01Z</time>
      </trkpt>
      <trkpt lat="45.771496000" lon="5.640685000">
        <ele>381.100000</ele>
        <time>2025-04-11T13:31:10Z</time>
      </trkpt>
      <trkpt lat="45.771379000" lon="5.640718000">
        <ele>380.300000</ele>
        <time>2025-04-11T13:31:20Z</time>
      </trkpt>
      <trkpt lat="45.771288000" lon="5.640815000">
        <ele>379.400000</ele>
        <time>2025-04-11T13:31:29Z</time>
      </trkpt>
      <trkpt lat="45.771203000" lon="5.640890000">
        <ele>379.500000</ele>
        <time>2025-04-11T13:31:38Z</time>
      </trkpt>
      <trkpt lat="45.771124000" lon="5.641056000">
        <ele>378.800000</ele>
        <time>2025-04-11T13:31:48Z</time>
      </trkpt>
      <trkpt lat="45.771040000" lon="5.641081000">
        <ele>379.900000</ele>
        <time>2025-04-11T13:31:57Z</time>
      </trkpt>
      <trkpt lat="45.770963000" lon="5.641141000">
        <ele>382.000000</ele>
        <time>2025-04-11T13:32:06Z</time>
      </trkpt>
      <trkpt lat="45.770896000" lon="5.641218000">
        <ele>379.400000</ele>
        <time>2025-04-11T13:32:16Z</time>
      </trkpt>
      <trkpt lat="45.770837000" lon="5.641295000">
        <ele>380.600000</ele>
        <time>2025-04-11T13:32:25Z</time>
      </trkpt>
      <trkpt lat="45.770766000" lon="5.641305000">
        <ele>379.000000</ele>
        <time>2025-04-11T13:32:34Z</time>
      </trkpt>
      <trkpt lat="45.770654000" lon="5.641332000">
        <ele>376.100000</ele>
        <time>2025-04-11T13:32:44Z</time>
      </trkpt>
      <trkpt lat="45.770553000" lon="5.641335000">
        <ele>373.900000</ele>
        <time>2025-04-11T13:32:54Z</time>
      </trkpt>
      <trkpt lat="45.770457000" lon="5.641349000">
        <ele>374.100000</ele>
        <time>2025-04-11T13:33:04Z</time>
      </trkpt>
      <trkpt lat="45.770366000" lon="5.641346000">
        <ele>374.800000</ele>
        <time>2025-04-11T13:33:13Z</time>
      </trkpt>
      <trkpt lat="45.770282000" lon="5.641361000">
        <ele>376.600000</ele>
        <time>2025-04-11T13:33:22Z</time>
      </trkpt>
      <trkpt lat="45.770182000" lon="5.641350000">
        <ele>377.100000</ele>
        <time>2025-04-11T13:33:32Z</time>
      </trkpt>
      <trkpt lat="45.770077000" lon="5.641342000">
        <ele>377.500000</ele>
        <time>2025-04-11T13:33:41Z</time>
      </trkpt>
      <trkpt lat="45.769977000" lon="5.641364000">
        <ele>376.100000</ele>
        <time>2025-04-11T13:33:50Z</time>
      </trkpt>
      <trkpt lat="45.769869000" lon="5.641361000">
        <ele>375.400000</ele>
        <time>2025-04-11T13:34:00Z</time>
      </trkpt>
      <trkpt lat="45.769732000" lon="5.641421000">
        <ele>374.100000</ele>
        <time>2025-04-11T13:34:09Z</time>
      </trkpt>
      <trkpt lat="45.769640000" lon="5.641467000">
        <ele>373.700000</ele>
        <time>2025-04-11T13:34:18Z</time>
      </trkpt>
      <trkpt lat="45.769543000" lon="5.641442000">
        <ele>373.100000</ele>
        <time>2025-04-11T13:34:28Z</time>
      </trkpt>
      <trkpt lat="45.769384000" lon="5.641461000">
        <ele>373.900000</ele>
        <time>2025-04-11T13:34:46Z</time>
      </trkpt>
      <trkpt lat="45.769308000" lon="5.641485000">
        <ele>376.100000</ele>
        <time>2025-04-11T13:34:56Z</time>
      </trkpt>
      <trkpt lat="45.769225000" lon="5.641516000">
        <ele>375.600000</ele>
        <time>2025-04-11T13:35:05Z</time>
      </trkpt>
      <trkpt lat="45.769082000" lon="5.641559000">
        <ele>372.900000</ele>
        <time>2025-04-11T13:35:14Z</time>
      </trkpt>
      <trkpt lat="45.768981000" lon="5.641559000">
        <ele>374.700000</ele>
        <time>2025-04-11T13:35:24Z</time>
      </trkpt>
      <trkpt lat="45.768856000" lon="5.641582000">
        <ele>375.700000</ele>
        <time>2025-04-11T13:35:34Z</time>
      </trkpt>
      <trkpt lat="45.768778000" lon="5.641588000">
        <ele>374.000000</ele>
        <time>2025-04-11T13:35:44Z</time>
      </trkpt>
      <trkpt lat="45.768656000" lon="5.641613000">
        <ele>372.100000</ele>
        <time>2025-04-11T13:35:54Z</time>
      </trkpt>
      <trkpt lat="45.768516000" lon="5.641685000">
        <ele>371.200000</ele>
        <time>2025-04-11T13:36:04Z</time>
      </trkpt>
      <trkpt lat="45.768433000" lon="5.641698000">
        <ele>368.900000</ele>
        <time>2025-04-11T13:36:14Z</time>
      </trkpt>
      <trkpt lat="45.768344000" lon="5.641742000">
        <ele>367.000000</ele>
        <time>2025-04-11T13:36:24Z</time>
      </trkpt>
      <trkpt lat="45.768257000" lon="5.641769000">
        <ele>367.500000</ele>
        <time>2025-04-11T13:36:33Z</time>
      </trkpt>
      <trkpt lat="45.768155000" lon="5.641726000">
        <ele>367.400000</ele>
        <time>2025-04-11T13:36:42Z</time>
      </trkpt>
      <trkpt lat="45.767961000" lon="5.641677000">
        <ele>366.900000</ele>
        <time>2025-04-11T13:37:01Z</time>
      </trkpt>
      <trkpt lat="45.767843000" lon="5.641689000">
        <ele>367.500000</ele>
        <time>2025-04-11T13:37:10Z</time>
      </trkpt>
      <trkpt lat="45.767728000" lon="5.641680000">
        <ele>367.600000</ele>
        <time>2025-04-11T13:37:20Z</time>
      </trkpt>
      <trkpt lat="45.767710000" lon="5.641645000">
        <ele>368.400000</ele>
        <time>2025-04-11T13:37:29Z</time>
      </trkpt>
      <trkpt lat="45.767708000" lon="5.641625000">
        <ele>367.700000</ele>
        <time>2025-04-11T13:37:38Z</time>
      </trkpt>
      <trkpt lat="45.767649000" lon="5.641572000">
        <ele>367.300000</ele>
        <time>2025-04-11T13:37:48Z</time>
      </trkpt>
      <trkpt lat="45.767517000" lon="5.641464000">
        <ele>366.500000</ele>
        <time>2025-04-11T13:37:57Z</time>
      </trkpt>
      <trkpt lat="45.767425000" lon="5.641468000">
        <ele>367.600000</ele>
        <time>2025-04-11T13:38:06Z</time>
      </trkpt>
      <trkpt lat="45.767351000" lon="5.641407000">
        <ele>368.800000</ele>
        <time>2025-04-11T13:38:16Z</time>
      </trkpt>
      <trkpt lat="45.767265000" lon="5.641349000">
        <ele>369.800000</ele>
        <time>2025-04-11T13:38:26Z</time>
      </trkpt>
      <trkpt lat="45.767204000" lon="5.641267000">
        <ele>370.700000</ele>
        <time>2025-04-11T13:38:36Z</time>
      </trkpt>
      <trkpt lat="45.767171000" lon="5.641158000">
        <ele>371.400000</ele>
        <time>2025-04-11T13:38:45Z</time>
      </trkpt>
      <trkpt lat="45.767167000" lon="5.641135000">
        <ele>370.700000</ele>
        <time>2025-04-11T13:39:13Z</time>
      </trkpt>
      <trkpt lat="45.767164000" lon="5.641127000">
        <ele>369.900000</ele>
        <time>2025-04-11T13:39:22Z</time>
      </trkpt>
      <trkpt lat="45.767151000" lon="5.641114000">
        <ele>370.900000</ele>
        <time>2025-04-11T13:39:50Z</time>
      </trkpt>
      <trkpt lat="45.767145000" lon="5.641110000">
        <ele>374.000000</ele>
        <time>2025-04-11T13:40:09Z</time>
      </trkpt>
      <trkpt lat="45.767126000" lon="5.641035000">
        <ele>374.500000</ele>
        <time>2025-04-11T13:40:29Z</time>
      </trkpt>
      <trkpt lat="45.767079000" lon="5.640933000">
        <ele>373.300000</ele>
        <time>2025-04-11T13:40:39Z</time>
      </trkpt>
      <trkpt lat="45.767000000" lon="5.640821000">
        <ele>370.800000</ele>
        <time>2025-04-11T13:40:50Z</time>
      </trkpt>
      <trkpt lat="45.766918000" lon="5.640734000">
        <ele>369.800000</ele>
        <time>2025-04-11T13:41:00Z</time>
      </trkpt>
      <trkpt lat="45.766836000" lon="5.640659000">
        <ele>368.200000</ele>
        <time>2025-04-11T13:41:10Z</time>
      </trkpt>
      <trkpt lat="45.766785000" lon="5.640541000">
        <ele>367.600000</ele>
        <time>2025-04-11T13:41:20Z</time>
      </trkpt>
      <trkpt lat="45.766755000" lon="5.640391000">
        <ele>366.100000</ele>
        <time>2025-04-11T13:41:30Z</time>
      </trkpt>
      <trkpt lat="45.766694000" lon="5.640296000">
        <ele>367.400000</ele>
        <time>2025-04-11T13:41:40Z</time>
      </trkpt>
      <trkpt lat="45.766589000" lon="5.640219000">
        <ele>366.800000</ele>
        <time>2025-04-11T13:41:50Z</time>
      </trkpt>
      <trkpt lat="45.766535000" lon="5.640182000">
        <ele>367.000000</ele>
        <time>2025-04-11T13:41:59Z</time>
      </trkpt>
      <trkpt lat="45.766444000" lon="5.640080000">
        <ele>367.200000</ele>
        <time>2025-04-11T13:42:08Z</time>
      </trkpt>
      <trkpt lat="45.766357000" lon="5.640026000">
        <ele>367.900000</ele>
        <time>2025-04-11T13:42:18Z</time>
      </trkpt>
      <trkpt lat="45.766300000" lon="5.639966000">
        <ele>367.200000</ele>
        <time>2025-04-11T13:42:27Z</time>
      </trkpt>
      <trkpt lat="45.766215000" lon="5.639920000">
        <ele>365.300000</ele>
        <time>2025-04-11T13:42:36Z</time>
      </trkpt>
      <trkpt lat="45.766133000" lon="5.639901000">
        <ele>363.900000</ele>
        <time>2025-04-11T13:42:46Z</time>
      </trkpt>
      <trkpt lat="45.766029000" lon="5.639840000">
        <ele>362.200000</ele>
        <time>2025-04-11T13:42:56Z</time>
      </trkpt>
      <trkpt lat="45.765946000" lon="5.639786000">
        <ele>360.200000</ele>
        <time>2025-04-11T13:43:06Z</time>
      </trkpt>
      <trkpt lat="45.765870000" lon="5.639776000">
        <ele>359.000000</ele>
        <time>2025-04-11T13:43:16Z</time>
      </trkpt>
      <trkpt lat="45.765845000" lon="5.639837000">
        <ele>360.400000</ele>
        <time>2025-04-11T13:43:26Z</time>
      </trkpt>
      <trkpt lat="45.765859000" lon="5.639862000">
        <ele>361.100000</ele>
        <time>2025-04-11T13:43:36Z</time>
      </trkpt>
      <trkpt lat="45.765782000" lon="5.639886000">
        <ele>359.300000</ele>
        <time>2025-04-11T13:48:10Z</time>
      </trkpt>
      <trkpt lat="45.765687000" lon="5.639926000">
        <ele>358.300000</ele>
        <time>2025-04-11T13:48:20Z</time>
      </trkpt>
      <trkpt lat="45.765675000" lon="5.639937000">
        <ele>358.500000</ele>
        <time>2025-04-11T13:48:30Z</time>
      </trkpt>
      <trkpt lat="45.765576000" lon="5.639995000">
        <ele>359.100000</ele>
        <time>2025-04-11T13:48:40Z</time>
      </trkpt>
      <trkpt lat="45.765532000" lon="5.640082000">
        <ele>358.400000</ele>
        <time>2025-04-11T13:48:50Z</time>
      </trkpt>
      <trkpt lat="45.765449000" lon="5.640237000">
        <ele>358.300000</ele>
        <time>2025-04-11T13:48:59Z</time>
      </trkpt>
      <trkpt lat="45.765431000" lon="5.640430000">
        <ele>360.400000</ele>
        <time>2025-04-11T13:49:08Z</time>
      </trkpt>
      <trkpt lat="45.765433000" lon="5.640574000">
        <ele>360.600000</ele>
        <time>2025-04-11T13:49:18Z</time>
      </trkpt>
      <trkpt lat="45.765419000" lon="5.640650000">
        <ele>359.500000</ele>
        <time>2025-04-11T13:49:28Z</time>
      </trkpt>
      <trkpt lat="45.765369000" lon="5.640790000">
        <ele>357.300000</ele>
        <time>2025-04-11T13:49:38Z</time>
      </trkpt>
      <trkpt lat="45.765289000" lon="5.640887000">
        <ele>357.000000</ele>
        <time>2025-04-11T13:49:48Z</time>
      </trkpt>
      <trkpt lat="45.765218000" lon="5.640979000">
        <ele>356.100000</ele>
        <time>2025-04-11T13:49:58Z</time>
      </trkpt>
      <trkpt lat="45.765154000" lon="5.641044000">
        <ele>356.700000</ele>
        <time>2025-04-11T13:50:07Z</time>
      </trkpt>
      <trkpt lat="45.765093000" lon="5.641111000">
        <ele>354.900000</ele>
        <time>2025-04-11T13:50:16Z</time>
      </trkpt>
      <trkpt lat="45.765045000" lon="5.641248000">
        <ele>355.600000</ele>
        <time>2025-04-11T13:50:26Z</time>
      </trkpt>
      <trkpt lat="45.765027000" lon="5.641368000">
        <ele>354.100000</ele>
        <time>2025-04-11T13:50:35Z</time>
      </trkpt>
      <trkpt lat="45.765002000" lon="5.641476000">
        <ele>354.500000</ele>
        <time>2025-04-11T13:50:44Z</time>
      </trkpt>
      <trkpt lat="45.764974000" lon="5.641581000">
        <ele>353.400000</ele>
        <time>2025-04-11T13:50:54Z</time>
      </trkpt>
      <trkpt lat="45.764910000" lon="5.641624000">
        <ele>352.700000</ele>
        <time>2025-04-11T13:51:03Z</time>
      </trkpt>
      <trkpt lat="45.764817000" lon="5.641632000">
        <ele>352.000000</ele>
        <time>2025-04-11T13:51:12Z</time>
      </trkpt>
      <trkpt lat="45.764734000" lon="5.641612000">
        <ele>349.800000</ele>
        <time>2025-04-11T13:51:22Z</time>
      </trkpt>
      <trkpt lat="45.764630000" lon="5.641569000">
        <ele>350.300000</ele>
        <time>2025-04-11T13:51:32Z</time>
      </trkpt>
      <trkpt lat="45.764548000" lon="5.641512000">
        <ele>347.900000</ele>
        <time>2025-04-11T13:51:42Z</time>
      </trkpt>
      <trkpt lat="45.764435000" lon="5.641490000">
        <ele>345.500000</ele>
        <time>2025-04-11T13:51:51Z</time>
      </trkpt>
      <trkpt lat="45.764371000" lon="5.641441000">
        <ele>342.500000</ele>
        <time>2025-04-11T13:52:00Z</time>
      </trkpt>
      <trkpt lat="45.764344000" lon="5.641386000">
        <ele>340.600000</ele>
        <time>2025-04-11T13:52:10Z</time>
      </trkpt>
      <trkpt lat="45.764286000" lon="5.641210000">
        <ele>341.400000</ele>
        <time>2025-04-11T13:52:20Z</time>
      </trkpt>
      <trkpt lat="45.764304000" lon="5.641162000">
        <ele>343.600000</ele>
        <time>2025-04-11T13:52:30Z</time>
      </trkpt>
      <trkpt lat="45.764282000" lon="5.641056000">
        <ele>341.800000</ele>
        <time>2025-04-11T13:52:39Z</time>
      </trkpt>
      <trkpt lat="45.764250000" lon="5.640917000">
        <ele>341.300000</ele>
        <time>2025-04-11T13:52:48Z</time>
      </trkpt>
      <trkpt lat="45.764159000" lon="5.640799000">
        <ele>341.600000</ele>
        <time>2025-04-11T13:52:58Z</time>
      </trkpt>
      <trkpt lat="45.764058000" lon="5.640721000">
        <ele>343.500000</ele>
        <time>2025-04-11T13:53:07Z</time>
      </trkpt>
      <trkpt lat="45.763947000" lon="5.640678000">
        <ele>344.700000</ele>
        <time>2025-04-11T13:53:16Z</time>
      </trkpt>
      <trkpt lat="45.763832000" lon="5.640661000">
        <ele>347.100000</ele>
        <time>2025-04-11T13:53:26Z</time>
      </trkpt>
      <trkpt lat="45.763737000" lon="5.640611000">
        <ele>348.000000</ele>
        <time>2025-04-11T13:53:36Z</time>
      </trkpt>
      <trkpt lat="45.763644000" lon="5.640568000">
        <ele>349.600000</ele>
        <time>2025-04-11T13:53:46Z</time>
      </trkpt>
      <trkpt lat="45.763537000" lon="5.640480000">
        <ele>349.700000</ele>
        <time>2025-04-11T13:53:56Z</time>
      </trkpt>
      <trkpt lat="45.763444000" lon="5.640427000">
        <ele>348.200000</ele>
        <time>2025-04-11T13:54:06Z</time>
      </trkpt>
      <trkpt lat="45.763396000" lon="5.640317000">
        <ele>348.800000</ele>
        <time>2025-04-11T13:54:16Z</time>
      </trkpt>
      <trkpt lat="45.763335000" lon="5.640195000">
        <ele>350.100000</ele>
        <time>2025-04-11T13:54:26Z</time>
      </trkpt>
      <trkpt lat="45.763325000" lon="5.640052000">
        <ele>352.800000</ele>
        <time>2025-04-11T13:54:35Z</time>
      </trkpt>
      <trkpt lat="45.763286000" lon="5.639906000">
        <ele>352.900000</ele>
        <time>2025-04-11T13:54:44Z</time>
      </trkpt>
      <trkpt lat="45.763159000" lon="5.639902000">
        <ele>353.800000</ele>
        <time>2025-04-11T13:54:54Z</time>
      </trkpt>
      <trkpt lat="45.763059000" lon="5.639962000">
        <ele>355.800000</ele>
        <time>2025-04-11T13:55:04Z</time>
      </trkpt>
      <trkpt lat="45.762943000" lon="5.640005000">
        <ele>357.300000</ele>
        <time>2025-04-11T13:55:14Z</time>
      </trkpt>
      <trkpt lat="45.762845000" lon="5.640114000">
        <ele>357.900000</ele>
        <time>2025-04-11T13:55:23Z</time>
      </trkpt>
      <trkpt lat="45.762776000" lon="5.640070000">
        <ele>357.300000</ele>
        <time>2025-04-11T13:55:32Z</time>
      </trkpt>
      <trkpt lat="45.762698000" lon="5.640023000">
        <ele>359.600000</ele>
        <time>2025-04-11T13:55:42Z</time>
      </trkpt>
      <trkpt lat="45.762649000" lon="5.639961000">
        <ele>362.000000</ele>
        <time>2025-04-11T13:55:51Z</time>
      </trkpt>
      <trkpt lat="45.762567000" lon="5.639883000">
        <ele>361.800000</ele>
        <time>2025-04-11T13:56:00Z</time>
      </trkpt>
      <trkpt lat="45.762452000" lon="5.639801000">
        <ele>363.000000</ele>
        <time>2025-04-11T13:56:10Z</time>
      </trkpt>
      <trkpt lat="45.762330000" lon="5.639703000">
        <ele>360.900000</ele>
        <time>2025-04-11T13:56:20Z</time>
      </trkpt>
      <trkpt lat="45.762304000" lon="5.639675000">
        <ele>360.200000</ele>
        <time>2025-04-11T13:56:50Z</time>
      </trkpt>
      <trkpt lat="45.762297000" lon="5.639670000">
        <ele>359.100000</ele>
        <time>2025-04-11T13:57:10Z</time>
      </trkpt>
      <trkpt lat="45.762256000" lon="5.639655000">
        <ele>359.600000</ele>
        <time>2025-04-11T13:57:20Z</time>
      </trkpt>
      <trkpt lat="45.762167000" lon="5.639586000">
        <ele>359.600000</ele>
        <time>2025-04-11T13:57:30Z</time>
      </trkpt>
      <trkpt lat="45.762056000" lon="5.639544000">
        <ele>361.400000</ele>
        <time>2025-04-11T13:57:40Z</time>
      </trkpt>
      <trkpt lat="45.761938000" lon="5.639507000">
        <ele>361.300000</ele>
        <time>2025-04-11T13:57:50Z</time>
      </trkpt>
      <trkpt lat="45.761837000" lon="5.639443000">
        <ele>360.900000</ele>
        <time>2025-04-11T13:58:00Z</time>
      </trkpt>
      <trkpt lat="45.761754000" lon="5.639419000">
        <ele>361.100000</ele>
        <time>2025-04-11T13:58:10Z</time>
      </trkpt>
      <trkpt lat="45.761615000" lon="5.639434000">
        <ele>363.200000</ele>
        <time>2025-04-11T13:58:20Z</time>
      </trkpt>
      <trkpt lat="45.761503000" lon="5.639404000">
        <ele>362.900000</ele>
        <time>2025-04-11T13:58:30Z</time>
      </trkpt>
      <trkpt lat="45.761414000" lon="5.639331000">
        <ele>364.000000</ele>
        <time>2025-04-11T13:58:39Z</time>
      </trkpt>
      <trkpt lat="45.761342000" lon="5.639235000">
        <ele>365.000000</ele>
        <time>2025-04-11T13:58:48Z</time>
      </trkpt>
      <trkpt lat="45.761244000" lon="5.639211000">
        <ele>367.300000</ele>
        <time>2025-04-11T13:58:58Z</time>
      </trkpt>
      <trkpt lat="45.761169000" lon="5.639155000">
        <ele>367.500000</ele>
        <time>2025-04-11T13:59:07Z</time>
      </trkpt>
      <trkpt lat="45.760953000" lon="5.639091000">
        <ele>368.200000</ele>
        <time>2025-04-11T13:59:26Z</time>
      </trkpt>
      <trkpt lat="45.760877000" lon="5.639057000">
        <ele>366.600000</ele>
        <time>2025-04-11T13:59:36Z</time>
      </trkpt>
      <trkpt lat="45.760769000" lon="5.639049000">
        <ele>364.300000</ele>
        <time>2025-04-11T13:59:46Z</time>
      </trkpt>
      <trkpt lat="45.760661000" lon="5.639005000">
        <ele>366.600000</ele>
        <time>2025-04-11T13:59:56Z</time>
      </trkpt>
      <trkpt lat="45.760564000" lon="5.639027000">
        <ele>367.000000</ele>
        <time>2025-04-11T14:00:06Z</time>
      </trkpt>
      <trkpt lat="45.760460000" lon="5.638989000">
        <ele>366.400000</ele>
        <time>2025-04-11T14:00:16Z</time>
      </trkpt>
      <trkpt lat="45.760382000" lon="5.638979000">
        <ele>367.100000</ele>
        <time>2025-04-11T14:00:26Z</time>
      </trkpt>
      <trkpt lat="45.760297000" lon="5.639006000">
        <ele>365.800000</ele>
        <time>2025-04-11T14:00:35Z</time>
      </trkpt>
      <trkpt lat="45.760288000" lon="5.639002000">
        <ele>364.700000</ele>
        <time>2025-04-11T14:00:44Z</time>
      </trkpt>
      <trkpt lat="45.760070000" lon="5.639047000">
        <ele>364.500000</ele>
        <time>2025-04-11T14:01:03Z</time>
      </trkpt>
      <trkpt lat="45.759966000" lon="5.639018000">
        <ele>363.100000</ele>
        <time>2025-04-11T14:01:12Z</time>
      </trkpt>
      <trkpt lat="45.759883000" lon="5.638959000">
        <ele>362.000000</ele>
        <time>2025-04-11T14:01:22Z</time>
      </trkpt>
      <trkpt lat="45.759783000" lon="5.638962000">
        <ele>362.900000</ele>
        <time>2025-04-11T14:01:31Z</time>
      </trkpt>
      <trkpt lat="45.759682000" lon="5.638974000">
        <ele>361.800000</ele>
        <time>2025-04-11T14:01:40Z</time>
      </trkpt>
      <trkpt lat="45.759609000" lon="5.638906000">
        <ele>360.800000</ele>
        <time>2025-04-11T14:01:50Z</time>
      </trkpt>
      <trkpt lat="45.759588000" lon="5.638896000">
        <ele>360.800000</ele>
        <time>2025-04-11T14:02:00Z</time>
      </trkpt>
      <trkpt lat="45.759525000" lon="5.638860000">
        <ele>359.700000</ele>
        <time>2025-04-11T14:02:10Z</time>
      </trkpt>
      <trkpt lat="45.759405000" lon="5.638849000">
        <ele>359.900000</ele>
        <time>2025-04-11T14:02:20Z</time>
      </trkpt>
      <trkpt lat="45.759293000" lon="5.638861000">
        <ele>359.500000</ele>
        <time>2025-04-11T14:02:30Z</time>
      </trkpt>
      <trkpt lat="45.759222000" lon="5.638879000">
        <ele>359.200000</ele>
        <time>2025-04-11T14:02:39Z</time>
      </trkpt>
      <trkpt lat="45.759131000" lon="5.638875000">
        <ele>359.700000</ele>
        <time>2025-04-11T14:02:48Z</time>
      </trkpt>
      <trkpt lat="45.759028000" lon="5.638880000">
        <ele>358.800000</ele>
        <time>2025-04-11T14:02:58Z</time>
      </trkpt>
      <trkpt lat="45.758910000" lon="5.638943000">
        <ele>358.000000</ele>
        <time>2025-04-11T14:03:08Z</time>
      </trkpt>
      <trkpt lat="45.758800000" lon="5.638994000">
        <ele>355.900000</ele>
        <time>2025-04-11T14:03:18Z</time>
      </trkpt>
      <trkpt lat="45.758713000" lon="5.638964000">
        <ele>356.300000</ele>
        <time>2025-04-11T14:03:28Z</time>
      </trkpt>
      <trkpt lat="45.758620000" lon="5.638888000">
        <ele>356.300000</ele>
        <time>2025-04-11T14:03:38Z</time>
      </trkpt>
      <trkpt lat="45.758511000" lon="5.638880000">
        <ele>352.700000</ele>
        <time>2025-04-11T14:03:47Z</time>
      </trkpt>
      <trkpt lat="45.758436000" lon="5.638885000">
        <ele>352.600000</ele>
        <time>2025-04-11T14:03:56Z</time>
      </trkpt>
      <trkpt lat="45.758320000" lon="5.638871000">
        <ele>353.500000</ele>
        <time>2025-04-11T14:04:06Z</time>
      </trkpt>
      <trkpt lat="45.758228000" lon="5.638868000">
        <ele>354.500000</ele>
        <time>2025-04-11T14:04:16Z</time>
      </trkpt>
      <trkpt lat="45.758132000" lon="5.638830000">
        <ele>352.700000</ele>
        <time>2025-04-11T14:04:26Z</time>
      </trkpt>
      <trkpt lat="45.758124000" lon="5.638769000">
        <ele>353.100000</ele>
        <time>2025-04-11T14:04:35Z</time>
      </trkpt>
      <trkpt lat="45.758155000" lon="5.638712000">
        <ele>352.800000</ele>
        <time>2025-04-11T14:04:44Z</time>
      </trkpt>
      <trkpt lat="45.758156000" lon="5.638563000">
        <ele>351.300000</ele>
        <time>2025-04-11T14:04:54Z</time>
      </trkpt>
      <trkpt lat="45.758060000" lon="5.638490000">
        <ele>349.100000</ele>
        <time>2025-04-11T14:05:03Z</time>
      </trkpt>
      <trkpt lat="45.758044000" lon="5.638546000">
        <ele>348.300000</ele>
        <time>2025-04-11T14:12:50Z</time>
      </trkpt>
      <trkpt lat="45.758036000" lon="5.638601000">
        <ele>346.900000</ele>
        <time>2025-04-11T14:12:59Z</time>
      </trkpt>
      <trkpt lat="45.758038000" lon="5.638626000">
        <ele>346.100000</ele>
        <time>2025-04-11T14:13:09Z</time>
      </trkpt>
      <trkpt lat="45.758042000" lon="5.638741000">
        <ele>346.600000</ele>
        <time>2025-04-11T14:13:19Z</time>
      </trkpt>
      <trkpt lat="45.757967000" lon="5.638877000">
        <ele>351.300000</ele>
        <time>2025-04-11T14:14:17Z</time>
      </trkpt>
      <trkpt lat="45.757935000" lon="5.638903000">
        <ele>350.900000</ele>
        <time>2025-04-11T14:14:27Z</time>
      </trkpt>
      <trkpt lat="45.757910000" lon="5.638908000">
        <ele>349.900000</ele>
        <time>2025-04-11T14:14:37Z</time>
      </trkpt>
      <trkpt lat="45.757793000" lon="5.638881000">
        <ele>349.200000</ele>
        <time>2025-04-11T14:14:46Z</time>
      </trkpt>
      <trkpt lat="45.757676000" lon="5.638843000">
        <ele>350.300000</ele>
        <time>2025-04-11T14:14:55Z</time>
      </trkpt>
      <trkpt lat="45.757621000" lon="5.638815000">
        <ele>349.900000</ele>
        <time>2025-04-11T14:15:05Z</time>
      </trkpt>
      <trkpt lat="45.757515000" lon="5.638828000">
        <ele>350.900000</ele>
        <time>2025-04-11T14:15:15Z</time>
      </trkpt>
      <trkpt lat="45.757399000" lon="5.638848000">
        <ele>353.300000</ele>
        <time>2025-04-11T14:15:25Z</time>
      </trkpt>
      <trkpt lat="45.757252000" lon="5.638894000">
        <ele>353.400000</ele>
        <time>2025-04-11T14:15:35Z</time>
      </trkpt>
      <trkpt lat="45.757130000" lon="5.638865000">
        <ele>353.800000</ele>
        <time>2025-04-11T14:15:45Z</time>
      </trkpt>
      <trkpt lat="45.757063000" lon="5.638854000">
        <ele>353.300000</ele>
        <time>2025-04-11T14:15:54Z</time>
      </trkpt>
      <trkpt lat="45.757016000" lon="5.638864000">
        <ele>353.300000</ele>
        <time>2025-04-11T14:16:03Z</time>
      </trkpt>
      <trkpt lat="45.756950000" lon="5.638768000">
        <ele>351.400000</ele>
        <time>2025-04-11T14:16:13Z</time>
      </trkpt>
      <trkpt lat="45.756820000" lon="5.638659000">
        <ele>348.100000</ele>
        <time>2025-04-11T14:16:23Z</time>
      </trkpt>
      <trkpt lat="45.756745000" lon="5.638532000">
        <ele>347.500000</ele>
        <time>2025-04-11T14:16:33Z</time>
      </trkpt>
      <trkpt lat="45.756722000" lon="5.638434000">
        <ele>347.900000</ele>
        <time>2025-04-11T14:16:42Z</time>
      </trkpt>
      <trkpt lat="45.756719000" lon="5.638313000">
        <ele>348.400000</ele>
        <time>2025-04-11T14:16:51Z</time>
      </trkpt>
      <trkpt lat="45.756661000" lon="5.638178000">
        <ele>347.700000</ele>
        <time>2025-04-11T14:17:01Z</time>
      </trkpt>
      <trkpt lat="45.756593000" lon="5.638056000">
        <ele>345.800000</ele>
        <time>2025-04-11T14:17:10Z</time>
      </trkpt>
      <trkpt lat="45.756520000" lon="5.637963000">
        <ele>346.300000</ele>
        <time>2025-04-11T14:17:19Z</time>
      </trkpt>
      <trkpt lat="45.756457000" lon="5.637862000">
        <ele>348.000000</ele>
        <time>2025-04-11T14:17:29Z</time>
      </trkpt>
      <trkpt lat="45.756384000" lon="5.637792000">
        <ele>347.000000</ele>
        <time>2025-04-11T14:17:38Z</time>
      </trkpt>
      <trkpt lat="45.756289000" lon="5.637730000">
        <ele>347.400000</ele>
        <time>2025-04-11T14:17:47Z</time>
      </trkpt>
      <trkpt lat="45.756138000" lon="5.637680000">
        <ele>346.200000</ele>
        <time>2025-04-11T14:17:57Z</time>
      </trkpt>
      <trkpt lat="45.756080000" lon="5.637614000">
        <ele>347.800000</ele>
        <time>2025-04-11T14:18:06Z</time>
      </trkpt>
      <trkpt lat="45.756074000" lon="5.637583000">
        <ele>348.900000</ele>
        <time>2025-04-11T14:18:15Z</time>
      </trkpt>
      <trkpt lat="45.755979000" lon="5.637554000">
        <ele>349.500000</ele>
        <time>2025-04-11T14:18:53Z</time>
      </trkpt>
      <trkpt lat="45.755843000" lon="5.637574000">
        <ele>349.000000</ele>
        <time>2025-04-11T14:19:02Z</time>
      </trkpt>
      <trkpt lat="45.755722000" lon="5.637676000">
        <ele>349.300000</ele>
        <time>2025-04-11T14:19:11Z</time>
      </trkpt>
      <trkpt lat="45.755639000" lon="5.637798000">
        <ele>343.700000</ele>
        <time>2025-04-11T14:19:21Z</time>
      </trkpt>
      <trkpt lat="45.755547000" lon="5.637776000">
        <ele>342.900000</ele>
        <time>2025-04-11T14:19:31Z</time>
      </trkpt>
      <trkpt lat="45.755486000" lon="5.637644000">
        <ele>345.300000</ele>
        <time>2025-04-11T14:19:41Z</time>
      </trkpt>
      <trkpt lat="45.755457000" lon="5.637578000">
        <ele>346.300000</ele>
        <time>2025-04-11T14:19:51Z</time>
      </trkpt>
      <trkpt lat="45.755437000" lon="5.637496000">
        <ele>347.600000</ele>
        <time>2025-04-11T14:20:01Z</time>
      </trkpt>
      <trkpt lat="45.755383000" lon="5.637361000">
        <ele>347.200000</ele>
        <time>2025-04-11T14:20:10Z</time>
      </trkpt>
      <trkpt lat="45.755347000" lon="5.637345000">
        <ele>348.400000</ele>
        <time>2025-04-11T14:20:19Z</time>
      </trkpt>
      <trkpt lat="45.755317000" lon="5.637286000">
        <ele>349.700000</ele>
        <time>2025-04-11T14:20:29Z</time>
      </trkpt>
      <trkpt lat="45.755268000" lon="5.637162000">
        <ele>350.100000</ele>
        <time>2025-04-11T14:20:39Z</time>
      </trkpt>
      <trkpt lat="45.755151000" lon="5.637024000">
        <ele>350.000000</ele>
        <time>2025-04-11T14:20:49Z</time>
      </trkpt>
      <trkpt lat="45.755057000" lon="5.636944000">
        <ele>350.600000</ele>
        <time>2025-04-11T14:20:59Z</time>
      </trkpt>
      <trkpt lat="45.754935000" lon="5.636878000">
        <ele>352.600000</ele>
        <time>2025-04-11T14:21:09Z</time>
      </trkpt>
      <trkpt lat="45.754865000" lon="5.636822000">
        <ele>353.600000</ele>
        <time>2025-04-11T14:21:19Z</time>
      </trkpt>
      <trkpt lat="45.754749000" lon="5.636738000">
        <ele>353.400000</ele>
        <time>2025-04-11T14:21:29Z</time>
      </trkpt>
      <trkpt lat="45.754654000" lon="5.636681000">
        <ele>352.500000</ele>
        <time>2025-04-11T14:21:38Z</time>
      </trkpt>
      <trkpt lat="45.754630000" lon="5.636592000">
        <ele>353.500000</ele>
        <time>2025-04-11T14:21:47Z</time>
      </trkpt>
      <trkpt lat="45.754550000" lon="5.636480000">
        <ele>354.100000</ele>
        <time>2025-04-11T14:21:57Z</time>
      </trkpt>
      <trkpt lat="45.754456000" lon="5.636417000">
        <ele>355.400000</ele>
        <time>2025-04-11T14:22:06Z</time>
      </trkpt>
      <trkpt lat="45.754325000" lon="5.636344000">
        <ele>356.600000</ele>
        <time>2025-04-11T14:22:15Z</time>
      </trkpt>
      <trkpt lat="45.754226000" lon="5.636269000">
        <ele>357.700000</ele>
        <time>2025-04-11T14:22:25Z</time>
      </trkpt>
      <trkpt lat="45.754252000" lon="5.636128000">
        <ele>359.800000</ele>
        <time>2025-04-11T14:22:34Z</time>
      </trkpt>
      <trkpt lat="45.754247000" lon="5.636096000">
        <ele>359.800000</ele>
        <time>2025-04-11T14:22:43Z</time>
      </trkpt>
      <trkpt lat="45.754134000" lon="5.635958000">
        <ele>358.800000</ele>
        <time>2025-04-11T14:22:53Z</time>
      </trkpt>
      <trkpt lat="45.754152000" lon="5.635842000">
        <ele>362.500000</ele>
        <time>2025-04-11T14:23:02Z</time>
      </trkpt>
      <trkpt lat="45.754138000" lon="5.635734000">
        <ele>364.700000</ele>
        <time>2025-04-11T14:23:11Z</time>
      </trkpt>
      <trkpt lat="45.754129000" lon="5.635730000">
        <ele>365.800000</ele>
        <time>2025-04-11T14:23:21Z</time>
      </trkpt>
      <trkpt lat="45.753978000" lon="5.635573000">
        <ele>366.500000</ele>
        <time>2025-04-11T14:23:31Z</time>
      </trkpt>
      <trkpt lat="45.753848000" lon="5.635476000">
        <ele>365.600000</ele>
        <time>2025-04-11T14:23:41Z</time>
      </trkpt>
      <trkpt lat="45.753706000" lon="5.635449000">
        <ele>365.100000</ele>
        <time>2025-04-11T14:23:50Z</time>
      </trkpt>
      <trkpt lat="45.753617000" lon="5.635395000">
        <ele>365.500000</ele>
        <time>2025-04-11T14:23:59Z</time>
      </trkpt>
      <trkpt lat="45.753603000" lon="5.635310000">
        <ele>367.000000</ele>
        <time>2025-04-11T14:24:09Z</time>
      </trkpt>
      <trkpt lat="45.753539000" lon="5.635225000">
        <ele>371.200000</ele>
        <time>2025-04-11T14:24:18Z</time>
      </trkpt>
      <trkpt lat="45.753489000" lon="5.635196000">
        <ele>371.500000</ele>
        <time>2025-04-11T14:24:27Z</time>
      </trkpt>
      <trkpt lat="45.753402000" lon="5.635110000">
        <ele>375.000000</ele>
        <time>2025-04-11T14:24:37Z</time>
      </trkpt>
      <trkpt lat="45.753388000" lon="5.635047000">
        <ele>376.500000</ele>
        <time>2025-04-11T14:24:46Z</time>
      </trkpt>
      <trkpt lat="45.753427000" lon="5.634965000">
        <ele>381.800000</ele>
        <time>2025-04-11T14:25:32Z</time>
      </trkpt>
      <trkpt lat="45.753481000" lon="5.634939000">
        <ele>382.600000</ele>
        <time>2025-04-11T14:25:42Z</time>
      </trkpt>
      <trkpt lat="45.753575000" lon="5.634823000">
        <ele>383.800000</ele>
        <time>2025-04-11T14:25:51Z</time>
      </trkpt>
      <trkpt lat="45.753606000" lon="5.634694000">
        <ele>385.400000</ele>
        <time>2025-04-11T14:26:00Z</time>
      </trkpt>
      <trkpt lat="45.753663000" lon="5.634664000">
        <ele>385.900000</ele>
        <time>2025-04-11T14:26:10Z</time>
      </trkpt>
      <trkpt lat="45.753768000" lon="5.634632000">
        <ele>385.800000</ele>
        <time>2025-04-11T14:26:19Z</time>
      </trkpt>
      <trkpt lat="45.753826000" lon="5.634606000">
        <ele>384.700000</ele>
        <time>2025-04-11T14:26:28Z</time>
      </trkpt>
      <trkpt lat="45.753945000" lon="5.634644000">
        <ele>385.800000</ele>
        <time>2025-04-11T14:26:38Z</time>
      </trkpt>
      <trkpt lat="45.754070000" lon="5.634618000">
        <ele>387.700000</ele>
        <time>2025-04-11T14:26:47Z</time>
      </trkpt>
      <trkpt lat="45.754162000" lon="5.634557000">
        <ele>389.600000</ele>
        <time>2025-04-11T14:26:56Z</time>
      </trkpt>
      <trkpt lat="45.754215000" lon="5.634424000">
        <ele>390.700000</ele>
        <time>2025-04-11T14:27:06Z</time>
      </trkpt>
      <trkpt lat="45.754234000" lon="5.634295000">
        <ele>392.400000</ele>
        <time>2025-04-11T14:27:15Z</time>
      </trkpt>
      <trkpt lat="45.754276000" lon="5.634144000">
        <ele>392.000000</ele>
        <time>2025-04-11T14:27:24Z</time>
      </trkpt>
      <trkpt lat="45.754238000" lon="5.633964000">
        <ele>392.400000</ele>
        <time>2025-04-11T14:27:34Z</time>
      </trkpt>
      <trkpt lat="45.754239000" lon="5.633836000">
        <ele>389.900000</ele>
        <time>2025-04-11T14:27:44Z</time>
      </trkpt>
      <trkpt lat="45.754210000" lon="5.633543000">
        <ele>391.800000</ele>
        <time>2025-04-11T14:28:03Z</time>
      </trkpt>
      <trkpt lat="45.754133000" lon="5.633435000">
        <ele>389.100000</ele>
        <time>2025-04-11T14:28:12Z</time>
      </trkpt>
      <trkpt lat="45.754052000" lon="5.633349000">
        <ele>390.400000</ele>
        <time>2025-04-11T14:28:22Z</time>
      </trkpt>
      <trkpt lat="45.753966000" lon="5.633287000">
        <ele>391.300000</ele>
        <time>2025-04-11T14:28:31Z</time>
      </trkpt>
      <trkpt lat="45.753938000" lon="5.633184000">
        <ele>391.600000</ele>
        <time>2025-04-11T14:28:40Z</time>
      </trkpt>
      <trkpt lat="45.753874000" lon="5.633023000">
        <ele>391.600000</ele>
        <time>2025-04-11T14:28:50Z</time>
      </trkpt>
      <trkpt lat="45.753728000" lon="5.632972000">
        <ele>389.600000</ele>
        <time>2025-04-11T14:29:00Z</time>
      </trkpt>
      <trkpt lat="45.753720000" lon="5.632821000">
        <ele>389.900000</ele>
        <time>2025-04-11T14:29:10Z</time>
      </trkpt>
      <trkpt lat="45.753685000" lon="5.632725000">
        <ele>391.500000</ele>
        <time>2025-04-11T14:29:19Z</time>
      </trkpt>
      <trkpt lat="45.753612000" lon="5.632704000">
        <ele>394.300000</ele>
        <time>2025-04-11T14:29:29Z</time>
      </trkpt>
      <trkpt lat="45.753505000" lon="5.632619000">
        <ele>395.900000</ele>
        <time>2025-04-11T14:29:39Z</time>
      </trkpt>
      <trkpt lat="45.753426000" lon="5.632591000">
        <ele>396.500000</ele>
        <time>2025-04-11T14:29:48Z</time>
      </trkpt>
      <trkpt lat="45.753335000" lon="5.632566000">
        <ele>398.300000</ele>
        <time>2025-04-11T14:29:57Z</time>
      </trkpt>
      <trkpt lat="45.753262000" lon="5.632432000">
        <ele>398.900000</ele>
        <time>2025-04-11T14:30:07Z</time>
      </trkpt>
      <trkpt lat="45.753174000" lon="5.632354000">
        <ele>398.500000</ele>
        <time>2025-04-11T14:30:16Z</time>
      </trkpt>
      <trkpt lat="45.753127000" lon="5.632255000">
        <ele>398.900000</ele>
        <time>2025-04-11T14:30:25Z</time>
      </trkpt>
      <trkpt lat="45.753133000" lon="5.632153000">
        <ele>397.700000</ele>
        <time>2025-04-11T14:30:35Z</time>
      </trkpt>
      <trkpt lat="45.753175000" lon="5.632014000">
        <ele>397.200000</ele>
        <time>2025-04-11T14:30:45Z</time>
      </trkpt>
      <trkpt lat="45.753147000" lon="5.631823000">
        <ele>395.300000</ele>
        <time>2025-04-11T14:31:04Z</time>
      </trkpt>
      <trkpt lat="45.753119000" lon="5.631746000">
        <ele>392.100000</ele>
        <time>2025-04-11T14:31:13Z</time>
      </trkpt>
      <trkpt lat="45.752983000" lon="5.631475000">
        <ele>390.100000</ele>
        <time>2025-04-11T14:31:32Z</time>
      </trkpt>
      <trkpt lat="45.753005000" lon="5.631378000">
        <ele>389.100000</ele>
        <time>2025-04-11T14:31:41Z</time>
      </trkpt>
      <trkpt lat="45.753022000" lon="5.631273000">
        <ele>388.900000</ele>
        <time>2025-04-11T14:31:51Z</time>
      </trkpt>
      <trkpt lat="45.753090000" lon="5.631137000">
        <ele>389.100000</ele>
        <time>2025-04-11T14:32:01Z</time>
      </trkpt>
      <trkpt lat="45.753098000" lon="5.630940000">
        <ele>390.000000</ele>
        <time>2025-04-11T14:32:11Z</time>
      </trkpt>
      <trkpt lat="45.752996000" lon="5.630824000">
        <ele>387.800000</ele>
        <time>2025-04-11T14:32:21Z</time>
      </trkpt>
      <trkpt lat="45.753050000" lon="5.630710000">
        <ele>388.400000</ele>
        <time>2025-04-11T14:32:31Z</time>
      </trkpt>
      <trkpt lat="45.753106000" lon="5.630554000">
        <ele>391.900000</ele>
        <time>2025-04-11T14:32:41Z</time>
      </trkpt>
      <trkpt lat="45.753115000" lon="5.630402000">
        <ele>390.800000</ele>
        <time>2025-04-11T14:32:51Z</time>
      </trkpt>
      <trkpt lat="45.753095000" lon="5.630218000">
        <ele>390.800000</ele>
        <time>2025-04-11T14:33:01Z</time>
      </trkpt>
      <trkpt lat="45.753067000" lon="5.630099000">
        <ele>391.700000</ele>
        <time>2025-04-11T14:33:11Z</time>
      </trkpt>
      <trkpt lat="45.752996000" lon="5.629933000">
        <ele>391.200000</ele>
        <time>2025-04-11T14:33:20Z</time>
      </trkpt>
      <trkpt lat="45.752942000" lon="5.629818000">
        <ele>391.900000</ele>
        <time>2025-04-11T14:33:29Z</time>
      </trkpt>
      <trkpt lat="45.752864000" lon="5.629720000">
        <ele>393.000000</ele>
        <time>2025-04-11T14:33:39Z</time>
      </trkpt>
      <trkpt lat="45.752777000" lon="5.629558000">
        <ele>389.800000</ele>
        <time>2025-04-11T14:33:49Z</time>
      </trkpt>
      <trkpt lat="45.752761000" lon="5.629400000">
        <ele>391.000000</ele>
        <time>2025-04-11T14:33:59Z</time>
      </trkpt>
      <trkpt lat="45.752755000" lon="5.629245000">
        <ele>391.900000</ele>
        <time>2025-04-11T14:34:09Z</time>
      </trkpt>
      <trkpt lat="45.752715000" lon="5.629131000">
        <ele>392.100000</ele>
        <time>2025-04-11T14:34:19Z</time>
      </trkpt>
      <trkpt lat="45.752651000" lon="5.629033000">
        <ele>391.000000</ele>
        <time>2025-04-11T14:34:28Z</time>
      </trkpt>
      <trkpt lat="45.752603000" lon="5.628934000">
        <ele>389.500000</ele>
        <time>2025-04-11T14:34:37Z</time>
      </trkpt>
      <trkpt lat="45.752559000" lon="5.628748000">
        <ele>388.400000</ele>
        <time>2025-04-11T14:34:47Z</time>
      </trkpt>
      <trkpt lat="45.752566000" lon="5.628628000">
        <ele>387.800000</ele>
        <time>2025-04-11T14:34:57Z</time>
      </trkpt>
      <trkpt lat="45.752562000" lon="5.628501000">
        <ele>386.200000</ele>
        <time>2025-04-11T14:35:07Z</time>
      </trkpt>
      <trkpt lat="45.752565000" lon="5.628319000">
        <ele>386.900000</ele>
        <time>2025-04-11T14:35:16Z</time>
      </trkpt>
      <trkpt lat="45.752590000" lon="5.628202000">
        <ele>386.700000</ele>
        <time>2025-04-11T14:35:25Z</time>
      </trkpt>
      <trkpt lat="45.752557000" lon="5.628020000">
        <ele>385.900000</ele>
        <time>2025-04-11T14:35:35Z</time>
      </trkpt>
      <trkpt lat="45.752513000" lon="5.627913000">
        <ele>384.400000</ele>
        <time>2025-04-11T14:35:44Z</time>
      </trkpt>
      <trkpt lat="45.752526000" lon="5.627757000">
        <ele>385.400000</ele>
        <time>2025-04-11T14:35:53Z</time>
      </trkpt>
      <trkpt lat="45.752497000" lon="5.627590000">
        <ele>385.100000</ele>
        <time>2025-04-11T14:36:03Z</time>
      </trkpt>
      <trkpt lat="45.752467000" lon="5.627470000">
        <ele>385.800000</ele>
        <time>2025-04-11T14:36:12Z</time>
      </trkpt>
      <trkpt lat="45.752395000" lon="5.627331000">
        <ele>384.100000</ele>
        <time>2025-04-11T14:36:21Z</time>
      </trkpt>
      <trkpt lat="45.752422000" lon="5.627294000">
        <ele>383.100000</ele>
        <time>2025-04-11T14:36:31Z</time>
      </trkpt>
      <trkpt lat="45.752534000" lon="5.627379000">
        <ele>383.100000</ele>
        <time>2025-04-11T14:36:41Z</time>
      </trkpt>
      <trkpt lat="45.752615000" lon="5.627434000">
        <ele>383.400000</ele>
        <time>2025-04-11T14:36:51Z</time>
      </trkpt>
      <trkpt lat="45.752718000" lon="5.627418000">
        <ele>383.000000</ele>
        <time>2025-04-11T14:37:00Z</time>
      </trkpt>
      <trkpt lat="45.752824000" lon="5.627362000">
        <ele>382.800000</ele>
        <time>2025-04-11T14:37:09Z</time>
      </trkpt>
      <trkpt lat="45.752923000" lon="5.627329000">
        <ele>383.700000</ele>
        <time>2025-04-11T14:37:19Z</time>
      </trkpt>
      <trkpt lat="45.753045000" lon="5.627308000">
        <ele>383.200000</ele>
        <time>2025-04-11T14:37:28Z</time>
      </trkpt>
      <trkpt lat="45.753146000" lon="5.627308000">
        <ele>382.200000</ele>
        <time>2025-04-11T14:37:37Z</time>
      </trkpt>
      <trkpt lat="45.753313000" lon="5.627262000">
        <ele>384.100000</ele>
        <time>2025-04-11T14:37:56Z</time>
      </trkpt>
      <trkpt lat="45.753406000" lon="5.627177000">
        <ele>383.800000</ele>
        <time>2025-04-11T14:38:05Z</time>
      </trkpt>
      <trkpt lat="45.753500000" lon="5.627127000">
        <ele>382.000000</ele>
        <time>2025-04-11T14:38:15Z</time>
      </trkpt>
      <trkpt lat="45.753584000" lon="5.627138000">
        <ele>384.000000</ele>
        <time>2025-04-11T14:38:25Z</time>
      </trkpt>
      <trkpt lat="45.753690000" lon="5.627068000">
        <ele>383.200000</ele>
        <time>2025-04-11T14:38:35Z</time>
      </trkpt>
      <trkpt lat="45.753788000" lon="5.627019000">
        <ele>383.400000</ele>
        <time>2025-04-11T14:38:45Z</time>
      </trkpt>
      <trkpt lat="45.753947000" lon="5.626885000">
        <ele>379.400000</ele>
        <time>2025-04-11T14:38:55Z</time>
      </trkpt>
      <trkpt lat="45.754088000" lon="5.626771000">
        <ele>375.800000</ele>
        <time>2025-04-11T14:39:05Z</time>
      </trkpt>
      <trkpt lat="45.754136000" lon="5.626664000">
        <ele>373.500000</ele>
        <time>2025-04-11T14:39:15Z</time>
      </trkpt>
      <trkpt lat="45.754094000" lon="5.626561000">
        <ele>376.100000</ele>
        <time>2025-04-11T14:39:35Z</time>
      </trkpt>
      <trkpt lat="45.754090000" lon="5.626540000">
        <ele>375.100000</ele>
        <time>2025-04-11T14:39:45Z</time>
      </trkpt>
      <trkpt lat="45.754101000" lon="5.626401000">
        <ele>375.200000</ele>
        <time>2025-04-11T14:39:55Z</time>
      </trkpt>
      <trkpt lat="45.754037000" lon="5.626201000">
        <ele>375.300000</ele>
        <time>2025-04-11T14:40:05Z</time>
      </trkpt>
      <trkpt lat="45.753981000" lon="5.626031000">
        <ele>375.200000</ele>
        <time>2025-04-11T14:40:15Z</time>
      </trkpt>
      <trkpt lat="45.753847000" lon="5.625967000">
        <ele>371.600000</ele>
        <time>2025-04-11T14:40:24Z</time>
      </trkpt>
      <trkpt lat="45.753758000" lon="5.625954000">
        <ele>371.700000</ele>
        <time>2025-04-11T14:40:33Z</time>
      </trkpt>
      <trkpt lat="45.753699000" lon="5.625923000">
        <ele>373.000000</ele>
        <time>2025-04-11T14:40:43Z</time>
      </trkpt>
      <trkpt lat="45.753685000" lon="5.625922000">
        <ele>373.200000</ele>
        <time>2025-04-11T14:40:52Z</time>
      </trkpt>
      <trkpt lat="45.753547000" lon="5.625926000">
        <ele>373.600000</ele>
        <time>2025-04-11T14:41:01Z</time>
      </trkpt>
      <trkpt lat="45.753395000" lon="5.625946000">
        <ele>375.100000</ele>
        <time>2025-04-11T14:41:11Z</time>
      </trkpt>
      <trkpt lat="45.753302000" lon="5.625947000">
        <ele>376.600000</ele>
        <time>2025-04-11T14:41:20Z</time>
      </trkpt>
      <trkpt lat="45.753206000" lon="5.625933000">
        <ele>376.100000</ele>
        <time>2025-04-11T14:41:29Z</time>
      </trkpt>
      <trkpt lat="45.753111000" lon="5.625903000">
        <ele>374.900000</ele>
        <time>2025-04-11T14:41:39Z</time>
      </trkpt>
      <trkpt lat="45.753036000" lon="5.625873000">
        <ele>374.300000</ele>
        <time>2025-04-11T14:41:48Z</time>
      </trkpt>
      <trkpt lat="45.752958000" lon="5.625849000">
        <ele>374.300000</ele>
        <time>2025-04-11T14:41:57Z</time>
      </trkpt>
      <trkpt lat="45.752855000" lon="5.625803000">
        <ele>376.100000</ele>
        <time>2025-04-11T14:42:07Z</time>
      </trkpt>
      <trkpt lat="45.752752000" lon="5.625702000">
        <ele>377.200000</ele>
        <time>2025-04-11T14:42:17Z</time>
      </trkpt>
      <trkpt lat="45.752678000" lon="5.625692000">
        <ele>378.300000</ele>
        <time>2025-04-11T14:42:26Z</time>
      </trkpt>
      <trkpt lat="45.752653000" lon="5.625685000">
        <ele>378.000000</ele>
        <time>2025-04-11T14:42:36Z</time>
      </trkpt>
      <trkpt lat="45.752612000" lon="5.625668000">
        <ele>375.500000</ele>
        <time>2025-04-11T14:42:45Z</time>
      </trkpt>
      <trkpt lat="45.752525000" lon="5.625592000">
        <ele>376.200000</ele>
        <time>2025-04-11T14:42:54Z</time>
      </trkpt>
      <trkpt lat="45.752368000" lon="5.625528000">
        <ele>378.200000</ele>
        <time>2025-04-11T14:43:04Z</time>
      </trkpt>
      <trkpt lat="45.752236000" lon="5.625531000">
        <ele>376.700000</ele>
        <time>2025-04-11T14:43:14Z</time>
      </trkpt>
      <trkpt lat="45.752114000" lon="5.625529000">
        <ele>376.700000</ele>
        <time>2025-04-11T14:43:24Z</time>
      </trkpt>
      <trkpt lat="45.751952000" lon="5.625554000">
        <ele>378.000000</ele>
        <time>2025-04-11T14:43:44Z</time>
      </trkpt>
      <trkpt lat="45.751867000" lon="5.625530000">
        <ele>378.600000</ele>
        <time>2025-04-11T14:43:54Z</time>
      </trkpt>
      <trkpt lat="45.751764000" lon="5.625496000">
        <ele>379.100000</ele>
        <time>2025-04-11T14:44:04Z</time>
      </trkpt>
      <trkpt lat="45.751675000" lon="5.625491000">
        <ele>380.000000</ele>
        <time>2025-04-11T14:44:13Z</time>
      </trkpt>
      <trkpt lat="45.751478000" lon="5.625474000">
        <ele>380.100000</ele>
        <time>2025-04-11T14:44:32Z</time>
      </trkpt>
      <trkpt lat="45.751352000" lon="5.625455000">
        <ele>378.900000</ele>
        <time>2025-04-11T14:44:42Z</time>
      </trkpt>
      <trkpt lat="45.751200000" lon="5.625509000">
        <ele>376.800000</ele>
        <time>2025-04-11T14:44:52Z</time>
      </trkpt>
      <trkpt lat="45.751137000" lon="5.625438000">
        <ele>376.200000</ele>
        <time>2025-04-11T14:45:01Z</time>
      </trkpt>
      <trkpt lat="45.751048000" lon="5.625409000">
        <ele>376.500000</ele>
        <time>2025-04-11T14:45:10Z</time>
      </trkpt>
      <trkpt lat="45.750982000" lon="5.625401000">
        <ele>377.000000</ele>
        <time>2025-04-11T14:45:20Z</time>
      </trkpt>
      <trkpt lat="45.750845000" lon="5.625425000">
        <ele>377.400000</ele>
        <time>2025-04-11T14:45:30Z</time>
      </trkpt>
      <trkpt lat="45.750731000" lon="5.625416000">
        <ele>376.900000</ele>
        <time>2025-04-11T14:45:40Z</time>
      </trkpt>
      <trkpt lat="45.750654000" lon="5.625373000">
        <ele>376.000000</ele>
        <time>2025-04-11T14:45:50Z</time>
      </trkpt>
      <trkpt lat="45.750628000" lon="5.625309000">
        <ele>378.300000</ele>
        <time>2025-04-11T14:46:00Z</time>
      </trkpt>
      <trkpt lat="45.750619000" lon="5.625293000">
        <ele>379.300000</ele>
        <time>2025-04-11T14:46:09Z</time>
      </trkpt>
      <trkpt lat="45.750622000" lon="5.625284000">
        <ele>381.000000</ele>
        <time>2025-04-11T14:46:18Z</time>
      </trkpt>
      <trkpt lat="45.750630000" lon="5.625287000">
        <ele>383.100000</ele>
        <time>2025-04-11T14:46:28Z</time>
      </trkpt>
      <trkpt lat="45.750586000" lon="5.625281000">
        <ele>390.700000</ele>
        <time>2025-04-11T14:49:38Z</time>
      </trkpt>
      <trkpt lat="45.750597000" lon="5.625039000">
        <ele>387.400000</ele>
        <time>2025-04-11T14:49:48Z</time>
      </trkpt>
      <trkpt lat="45.750499000" lon="5.624990000">
        <ele>384.900000</ele>
        <time>2025-04-11T14:49:57Z</time>
      </trkpt>
      <trkpt lat="45.750354000" lon="5.625005000">
        <ele>384.900000</ele>
        <time>2025-04-11T14:50:06Z</time>
      </trkpt>
      <trkpt lat="45.750221000" lon="5.624980000">
        <ele>383.200000</ele>
        <time>2025-04-11T14:50:16Z</time>
      </trkpt>
      <trkpt lat="45.750164000" lon="5.625015000">
        <ele>379.500000</ele>
        <time>2025-04-11T14:50:25Z</time>
      </trkpt>
      <trkpt lat="45.750063000" lon="5.625054000">
        <ele>379.600000</ele>
        <time>2025-04-11T14:50:34Z</time>
      </trkpt>
      <trkpt lat="45.749952000" lon="5.625101000">
        <ele>378.000000</ele>
        <time>2025-04-11T14:50:44Z</time>
      </trkpt>
      <trkpt lat="45.749882000" lon="5.625162000">
        <ele>380.800000</ele>
        <time>2025-04-11T14:50:53Z</time>
      </trkpt>
      <trkpt lat="45.749800000" lon="5.625160000">
        <ele>379.000000</ele>
        <time>2025-04-11T14:51:02Z</time>
      </trkpt>
      <trkpt lat="45.749683000" lon="5.625151000">
        <ele>378.600000</ele>
        <time>2025-04-11T14:51:12Z</time>
      </trkpt>
      <trkpt lat="45.749588000" lon="5.625138000">
        <ele>380.100000</ele>
        <time>2025-04-11T14:51:21Z</time>
      </trkpt>
      <trkpt lat="45.749493000" lon="5.625157000">
        <ele>380.700000</ele>
        <time>2025-04-11T14:51:30Z</time>
      </trkpt>
      <trkpt lat="45.749351000" lon="5.625174000">
        <ele>378.500000</ele>
        <time>2025-04-11T14:51:40Z</time>
      </trkpt>
      <trkpt lat="45.749273000" lon="5.625211000">
        <ele>379.800000</ele>
        <time>2025-04-11T14:51:49Z</time>
      </trkpt>
      <trkpt lat="45.749163000" lon="5.625222000">
        <ele>378.500000</ele>
        <time>2025-04-11T14:51:58Z</time>
      </trkpt>
      <trkpt lat="45.749056000" lon="5.625203000">
        <ele>376.500000</ele>
        <time>2025-04-11T14:52:08Z</time>
      </trkpt>
      <trkpt lat="45.748963000" lon="5.625220000">
        <ele>376.600000</ele>
        <time>2025-04-11T14:52:17Z</time>
      </trkpt>
      <trkpt lat="45.748861000" lon="5.625233000">
        <ele>374.700000</ele>
        <time>2025-04-11T14:52:26Z</time>
      </trkpt>
      <trkpt lat="45.748791000" lon="5.625205000">
        <ele>376.400000</ele>
        <time>2025-04-11T14:52:35Z</time>
      </trkpt>
      <trkpt lat="45.748690000" lon="5.625180000">
        <ele>375.800000</ele>
        <time>2025-04-11T14:52:44Z</time>
      </trkpt>
      <trkpt lat="45.748629000" lon="5.625232000">
        <ele>377.200000</ele>
        <time>2025-04-11T14:52:53Z</time>
      </trkpt>
      <trkpt lat="45.748632000" lon="5.625240000">
        <ele>377.600000</ele>
        <time>2025-04-11T14:53:03Z</time>
      </trkpt>
      <trkpt lat="45.748616000" lon="5.625244000">
        <ele>375.800000</ele>
        <time>2025-04-11T14:53:13Z</time>
      </trkpt>
      <trkpt lat="45.748449000" lon="5.625234000">
        <ele>374.400000</ele>
        <time>2025-04-11T14:53:23Z</time>
      </trkpt>
      <trkpt lat="45.748310000" lon="5.625231000">
        <ele>374.800000</ele>
        <time>2025-04-11T14:53:33Z</time>
      </trkpt>
      <trkpt lat="45.748239000" lon="5.625257000">
        <ele>374.000000</ele>
        <time>2025-04-11T14:53:43Z</time>
      </trkpt>
      <trkpt lat="45.748157000" lon="5.625282000">
        <ele>374.500000</ele>
        <time>2025-04-11T14:53:52Z</time>
      </trkpt>
      <trkpt lat="45.748060000" lon="5.625341000">
        <ele>374.300000</ele>
        <time>2025-04-11T14:54:01Z</time>
      </trkpt>
      <trkpt lat="45.747953000" lon="5.625349000">
        <ele>372.800000</ele>
        <time>2025-04-11T14:54:11Z</time>
      </trkpt>
      <trkpt lat="45.747855000" lon="5.625353000">
        <ele>371.000000</ele>
        <time>2025-04-11T14:54:20Z</time>
      </trkpt>
      <trkpt lat="45.747764000" lon="5.625299000">
        <ele>370.800000</ele>
        <time>2025-04-11T14:54:29Z</time>
      </trkpt>
      <trkpt lat="45.747660000" lon="5.625275000">
        <ele>370.600000</ele>
        <time>2025-04-11T14:54:39Z</time>
      </trkpt>
      <trkpt lat="45.747571000" lon="5.625246000">
        <ele>372.500000</ele>
        <time>2025-04-11T14:54:48Z</time>
      </trkpt>
      <trkpt lat="45.747477000" lon="5.625255000">
        <ele>373.300000</ele>
        <time>2025-04-11T14:54:57Z</time>
      </trkpt>
      <trkpt lat="45.747408000" lon="5.625292000">
        <ele>371.400000</ele>
        <time>2025-04-11T14:55:07Z</time>
      </trkpt>
      <trkpt lat="45.747398000" lon="5.625306000">
        <ele>372.500000</ele>
        <time>2025-04-11T14:55:17Z</time>
      </trkpt>
      <trkpt lat="45.747395000" lon="5.625307000">
        <ele>373.000000</ele>
        <time>2025-04-11T14:55:27Z</time>
      </trkpt>
      <trkpt lat="45.747394000" lon="5.625315000">
        <ele>374.300000</ele>
        <time>2025-04-11T14:55:36Z</time>
      </trkpt>
      <trkpt lat="45.747364000" lon="5.625348000">
        <ele>375.300000</ele>
        <time>2025-04-11T14:55:45Z</time>
      </trkpt>
      <trkpt lat="45.747354000" lon="5.625364000">
        <ele>376.100000</ele>
        <time>2025-04-11T14:55:55Z</time>
      </trkpt>
      <trkpt lat="45.747256000" lon="5.625487000">
        <ele>376.400000</ele>
        <time>2025-04-11T14:56:05Z</time>
      </trkpt>
      <trkpt lat="45.747144000" lon="5.625569000">
        <ele>371.600000</ele>
        <time>2025-04-11T14:56:15Z</time>
      </trkpt>
      <trkpt lat="45.747099000" lon="5.625578000">
        <ele>372.400000</ele>
        <time>2025-04-11T14:56:25Z</time>
      </trkpt>
      <trkpt lat="45.747072000" lon="5.625589000">
        <ele>373.800000</ele>
        <time>2025-04-11T14:56:44Z</time>
      </trkpt>
      <trkpt lat="45.746999000" lon="5.625529000">
        <ele>373.300000</ele>
        <time>2025-04-11T14:56:53Z</time>
      </trkpt>
      <trkpt lat="45.746883000" lon="5.625524000">
        <ele>373.700000</ele>
        <time>2025-04-11T14:57:03Z</time>
      </trkpt>
      <trkpt lat="45.746794000" lon="5.625537000">
        <ele>371.400000</ele>
        <time>2025-04-11T14:57:13Z</time>
      </trkpt>
      <trkpt lat="45.746702000" lon="5.625587000">
        <ele>371.800000</ele>
        <time>2025-04-11T14:57:23Z</time>
      </trkpt>
      <trkpt lat="45.746610000" lon="5.625591000">
        <ele>371.900000</ele>
        <time>2025-04-11T14:57:33Z</time>
      </trkpt>
      <trkpt lat="45.746521000" lon="5.625583000">
        <ele>373.200000</ele>
        <time>2025-04-11T14:57:43Z</time>
      </trkpt>
      <trkpt lat="45.746421000" lon="5.625583000">
        <ele>373.700000</ele>
        <time>2025-04-11T14:57:53Z</time>
      </trkpt>
      <trkpt lat="45.746260000" lon="5.625654000">
        <ele>374.300000</ele>
        <time>2025-04-11T14:58:03Z</time>
      </trkpt>
      <trkpt lat="45.746208000" lon="5.625690000">
        <ele>374.300000</ele>
        <time>2025-04-11T14:58:12Z</time>
      </trkpt>
      <trkpt lat="45.746171000" lon="5.625695000">
        <ele>375.500000</ele>
        <time>2025-04-11T14:58:21Z</time>
      </trkpt>
      <trkpt lat="45.746150000" lon="5.625677000">
        <ele>376.500000</ele>
        <time>2025-04-11T14:58:31Z</time>
      </trkpt>
      <trkpt lat="45.746024000" lon="5.625644000">
        <ele>376.500000</ele>
        <time>2025-04-11T14:58:41Z</time>
      </trkpt>
      <trkpt lat="45.745915000" lon="5.625663000">
        <ele>374.400000</ele>
        <time>2025-04-11T14:58:51Z</time>
      </trkpt>
      <trkpt lat="45.745797000" lon="5.625607000">
        <ele>373.500000</ele>
        <time>2025-04-11T14:59:00Z</time>
      </trkpt>
      <trkpt lat="45.745662000" lon="5.625619000">
        <ele>375.600000</ele>
        <time>2025-04-11T14:59:09Z</time>
      </trkpt>
      <trkpt lat="45.745598000" lon="5.625640000">
        <ele>378.300000</ele>
        <time>2025-04-11T14:59:19Z</time>
      </trkpt>
      <trkpt lat="45.745449000" lon="5.625676000">
        <ele>380.000000</ele>
        <time>2025-04-11T14:59:29Z</time>
      </trkpt>
      <trkpt lat="45.745426000" lon="5.625689000">
        <ele>380.400000</ele>
        <time>2025-04-11T14:59:39Z</time>
      </trkpt>
      <trkpt lat="45.745343000" lon="5.625714000">
        <ele>379.500000</ele>
        <time>2025-04-11T14:59:48Z</time>
      </trkpt>
      <trkpt lat="45.745173000" lon="5.625722000">
        <ele>377.900000</ele>
        <time>2025-04-11T14:59:57Z</time>
      </trkpt>
      <trkpt lat="45.745038000" lon="5.625745000">
        <ele>378.400000</ele>
        <time>2025-04-11T15:00:06Z</time>
      </trkpt>
      <trkpt lat="45.744989000" lon="5.625736000">
        <ele>380.900000</ele>
        <time>2025-04-11T15:00:16Z</time>
      </trkpt>
      <trkpt lat="45.744912000" lon="5.625761000">
        <ele>381.500000</ele>
        <time>2025-04-11T15:00:26Z</time>
      </trkpt>
      <trkpt lat="45.744774000" lon="5.625776000">
        <ele>381.100000</ele>
        <time>2025-04-11T15:00:36Z</time>
      </trkpt>
      <trkpt lat="45.744680000" lon="5.625758000">
        <ele>382.100000</ele>
        <time>2025-04-11T15:00:45Z</time>
      </trkpt>
      <trkpt lat="45.744561000" lon="5.625756000">
        <ele>383.900000</ele>
        <time>2025-04-11T15:00:54Z</time>
      </trkpt>
      <trkpt lat="45.744386000" lon="5.625693000">
        <ele>387.100000</ele>
        <time>2025-04-11T15:01:14Z</time>
      </trkpt>
      <trkpt lat="45.744260000" lon="5.625671000">
        <ele>386.600000</ele>
        <time>2025-04-11T15:01:24Z</time>
      </trkpt>
      <trkpt lat="45.744115000" lon="5.625631000">
        <ele>386.700000</ele>
        <time>2025-04-11T15:01:34Z</time>
      </trkpt>
      <trkpt lat="45.744002000" lon="5.625628000">
        <ele>387.600000</ele>
        <time>2025-04-11T15:01:44Z</time>
      </trkpt>
      <trkpt lat="45.743966000" lon="5.625632000">
        <ele>389.100000</ele>
        <time>2025-04-11T15:01:53Z</time>
      </trkpt>
      <trkpt lat="45.743811000" lon="5.625693000">
        <ele>389.600000</ele>
        <time>2025-04-11T15:02:03Z</time>
      </trkpt>
      <trkpt lat="45.743680000" lon="5.625714000">
        <ele>388.400000</ele>
        <time>2025-04-11T15:02:13Z</time>
      </trkpt>
      <trkpt lat="45.743562000" lon="5.625705000">
        <ele>389.200000</ele>
        <time>2025-04-11T15:02:23Z</time>
      </trkpt>
      <trkpt lat="45.743456000" lon="5.625723000">
        <ele>390.400000</ele>
        <time>2025-04-11T15:02:33Z</time>
      </trkpt>
      <trkpt lat="45.743369000" lon="5.625715000">
        <ele>389.000000</ele>
        <time>2025-04-11T15:02:42Z</time>
      </trkpt>
      <trkpt lat="45.743234000" lon="5.625760000">
        <ele>390.800000</ele>
        <time>2025-04-11T15:02:51Z</time>
      </trkpt>
      <trkpt lat="45.743117000" lon="5.625819000">
        <ele>389.900000</ele>
        <time>2025-04-11T15:03:01Z</time>
      </trkpt>
      <trkpt lat="45.743026000" lon="5.625923000">
        <ele>389.100000</ele>
        <time>2025-04-11T15:03:11Z</time>
      </trkpt>
      <trkpt lat="45.742941000" lon="5.626039000">
        <ele>389.200000</ele>
        <time>2025-04-11T15:03:21Z</time>
      </trkpt>
      <trkpt lat="45.742825000" lon="5.626066000">
        <ele>391.100000</ele>
        <time>2025-04-11T15:03:31Z</time>
      </trkpt>
      <trkpt lat="45.742721000" lon="5.626107000">
        <ele>394.300000</ele>
        <time>2025-04-11T15:03:41Z</time>
      </trkpt>
      <trkpt lat="45.742556000" lon="5.626196000">
        <ele>399.000000</ele>
        <time>2025-04-11T15:03:59Z</time>
      </trkpt>
      <trkpt lat="45.742473000" lon="5.626200000">
        <ele>399.500000</ele>
        <time>2025-04-11T15:04:09Z</time>
      </trkpt>
      <trkpt lat="45.742433000" lon="5.626148000">
        <ele>400.300000</ele>
        <time>2025-04-11T15:04:18Z</time>
      </trkpt>
      <trkpt lat="45.742315000" lon="5.625943000">
        <ele>402.300000</ele>
        <time>2025-04-11T15:04:37Z</time>
      </trkpt>
      <trkpt lat="45.742215000" lon="5.625935000">
        <ele>401.900000</ele>
        <time>2025-04-11T15:04:46Z</time>
      </trkpt>
      <trkpt lat="45.742145000" lon="5.625984000">
        <ele>400.800000</ele>
        <time>2025-04-11T15:04:55Z</time>
      </trkpt>
      <trkpt lat="45.742090000" lon="5.625945000">
        <ele>402.900000</ele>
        <time>2025-04-11T15:05:05Z</time>
      </trkpt>
      <trkpt lat="45.742015000" lon="5.625930000">
        <ele>406.200000</ele>
        <time>2025-04-11T15:05:15Z</time>
      </trkpt>
      <trkpt lat="45.741979000" lon="5.625928000">
        <ele>406.300000</ele>
        <time>2025-04-11T15:05:25Z</time>
      </trkpt>
      <trkpt lat="45.741855000" lon="5.625900000">
        <ele>404.000000</ele>
        <time>2025-04-11T15:05:35Z</time>
      </trkpt>
      <trkpt lat="45.741687000" lon="5.625834000">
        <ele>404.900000</ele>
        <time>2025-04-11T15:05:45Z</time>
      </trkpt>
      <trkpt lat="45.741549000" lon="5.625837000">
        <ele>405.100000</ele>
        <time>2025-04-11T15:05:55Z</time>
      </trkpt>
      <trkpt lat="45.741423000" lon="5.625825000">
        <ele>402.800000</ele>
        <time>2025-04-11T15:06:05Z</time>
      </trkpt>
      <trkpt lat="45.741339000" lon="5.625860000">
        <ele>403.400000</ele>
        <time>2025-04-11T15:06:14Z</time>
      </trkpt>
      <trkpt lat="45.741222000" lon="5.625856000">
        <ele>405.800000</ele>
        <time>2025-04-11T15:06:23Z</time>
      </trkpt>
      <trkpt lat="45.741121000" lon="5.625861000">
        <ele>408.200000</ele>
        <time>2025-04-11T15:06:33Z</time>
      </trkpt>
      <trkpt lat="45.741004000" lon="5.625896000">
        <ele>408.800000</ele>
        <time>2025-04-11T15:06:43Z</time>
      </trkpt>
      <trkpt lat="45.740926000" lon="5.626111000">
        <ele>405.100000</ele>
        <time>2025-04-11T15:06:53Z</time>
      </trkpt>
      <trkpt lat="45.740917000" lon="5.626231000">
        <ele>404.300000</ele>
        <time>2025-04-11T15:07:03Z</time>
      </trkpt>
      <trkpt lat="45.740841000" lon="5.626333000">
        <ele>403.200000</ele>
        <time>2025-04-11T15:07:13Z</time>
      </trkpt>
      <trkpt lat="45.740829000" lon="5.626428000">
        <ele>405.500000</ele>
        <time>2025-04-11T15:07:22Z</time>
      </trkpt>
      <trkpt lat="45.740757000" lon="5.626518000">
        <ele>408.500000</ele>
        <time>2025-04-11T15:07:31Z</time>
      </trkpt>
      <trkpt lat="45.740668000" lon="5.626574000">
        <ele>408.200000</ele>
        <time>2025-04-11T15:07:41Z</time>
      </trkpt>
      <trkpt lat="45.740559000" lon="5.626650000">
        <ele>408.600000</ele>
        <time>2025-04-11T15:07:51Z</time>
      </trkpt>
      <trkpt lat="45.740465000" lon="5.626739000">
        <ele>407.100000</ele>
        <time>2025-04-11T15:08:01Z</time>
      </trkpt>
      <trkpt lat="45.740286000" lon="5.626810000">
        <ele>402.900000</ele>
        <time>2025-04-11T15:08:21Z</time>
      </trkpt>
      <trkpt lat="45.740180000" lon="5.626844000">
        <ele>402.200000</ele>
        <time>2025-04-11T15:08:30Z</time>
      </trkpt>
      <trkpt lat="45.740101000" lon="5.626857000">
        <ele>399.200000</ele>
        <time>2025-04-11T15:08:39Z</time>
      </trkpt>
      <trkpt lat="45.739968000" lon="5.626866000">
        <ele>399.900000</ele>
        <time>2025-04-11T15:08:49Z</time>
      </trkpt>
      <trkpt lat="45.739872000" lon="5.626919000">
        <ele>398.100000</ele>
        <time>2025-04-11T15:08:58Z</time>
      </trkpt>
      <trkpt lat="45.739777000" lon="5.626924000">
        <ele>397.500000</ele>
        <time>2025-04-11T15:09:07Z</time>
      </trkpt>
      <trkpt lat="45.739673000" lon="5.626941000">
        <ele>397.000000</ele>
        <time>2025-04-11T15:09:17Z</time>
      </trkpt>
      <trkpt lat="45.739576000" lon="5.626941000">
        <ele>394.600000</ele>
        <time>2025-04-11T15:09:26Z</time>
      </trkpt>
      <trkpt lat="45.739478000" lon="5.626961000">
        <ele>393.200000</ele>
        <time>2025-04-11T15:09:35Z</time>
      </trkpt>
      <trkpt lat="45.739357000" lon="5.627017000">
        <ele>391.400000</ele>
        <time>2025-04-11T15:09:45Z</time>
      </trkpt>
      <trkpt lat="45.739251000" lon="5.627054000">
        <ele>389.400000</ele>
        <time>2025-04-11T15:09:55Z</time>
      </trkpt>
      <trkpt lat="45.739132000" lon="5.627035000">
        <ele>388.500000</ele>
        <time>2025-04-11T15:10:05Z</time>
      </trkpt>
      <trkpt lat="45.739058000" lon="5.627002000">
        <ele>388.300000</ele>
        <time>2025-04-11T15:10:14Z</time>
      </trkpt>
      <trkpt lat="45.738967000" lon="5.626968000">
        <ele>388.100000</ele>
        <time>2025-04-11T15:10:23Z</time>
      </trkpt>
      <trkpt lat="45.738887000" lon="5.626914000">
        <ele>387.700000</ele>
        <time>2025-04-11T15:10:33Z</time>
      </trkpt>
      <trkpt lat="45.738863000" lon="5.626851000">
        <ele>387.300000</ele>
        <time>2025-04-11T15:10:42Z</time>
      </trkpt>
      <trkpt lat="45.738781000" lon="5.626737000">
        <ele>386.300000</ele>
        <time>2025-04-11T15:10:51Z</time>
      </trkpt>
      <trkpt lat="45.738718000" lon="5.626699000">
        <ele>385.900000</ele>
        <time>2025-04-11T15:11:01Z</time>
      </trkpt>
      <trkpt lat="45.738716000" lon="5.626701000">
        <ele>387.300000</ele>
        <time>2025-04-11T15:15:13Z</time>
      </trkpt>
      <trkpt lat="45.738712000" lon="5.626680000">
        <ele>388.800000</ele>
        <time>2025-04-11T15:15:32Z</time>
      </trkpt>
      <trkpt lat="45.738681000" lon="5.626659000">
        <ele>389.900000</ele>
        <time>2025-04-11T15:15:41Z</time>
      </trkpt>
      <trkpt lat="45.738637000" lon="5.626644000">
        <ele>389.600000</ele>
        <time>2025-04-11T15:15:50Z</time>
      </trkpt>
      <trkpt lat="45.738502000" lon="5.626645000">
        <ele>387.200000</ele>
        <time>2025-04-11T15:16:00Z</time>
      </trkpt>
      <trkpt lat="45.738415000" lon="5.626683000">
        <ele>385.500000</ele>
        <time>2025-04-11T15:16:10Z</time>
      </trkpt>
      <trkpt lat="45.738317000" lon="5.626712000">
        <ele>383.500000</ele>
        <time>2025-04-11T15:16:20Z</time>
      </trkpt>
      <trkpt lat="45.738201000" lon="5.626807000">
        <ele>383.500000</ele>
        <time>2025-04-11T15:16:29Z</time>
      </trkpt>
      <trkpt lat="45.738110000" lon="5.626857000">
        <ele>381.000000</ele>
        <time>2025-04-11T15:16:38Z</time>
      </trkpt>
      <trkpt lat="45.737923000" lon="5.626891000">
        <ele>376.600000</ele>
        <time>2025-04-11T15:16:57Z</time>
      </trkpt>
      <trkpt lat="45.737829000" lon="5.626911000">
        <ele>375.600000</ele>
        <time>2025-04-11T15:17:06Z</time>
      </trkpt>
      <trkpt lat="45.737737000" lon="5.626957000">
        <ele>373.400000</ele>
        <time>2025-04-11T15:17:16Z</time>
      </trkpt>
      <trkpt lat="45.737612000" lon="5.627072000">
        <ele>371.100000</ele>
        <time>2025-04-11T15:17:26Z</time>
      </trkpt>
      <trkpt lat="45.737509000" lon="5.627146000">
        <ele>369.900000</ele>
        <time>2025-04-11T15:17:36Z</time>
      </trkpt>
      <trkpt lat="45.737386000" lon="5.627127000">
        <ele>369.600000</ele>
        <time>2025-04-11T15:17:46Z</time>
      </trkpt>
      <trkpt lat="45.737277000" lon="5.627154000">
        <ele>370.500000</ele>
        <time>2025-04-11T15:17:56Z</time>
      </trkpt>
      <trkpt lat="45.737178000" lon="5.627181000">
        <ele>371.100000</ele>
        <time>2025-04-11T15:18:05Z</time>
      </trkpt>
      <trkpt lat="45.737087000" lon="5.627278000">
        <ele>369.700000</ele>
        <time>2025-04-11T15:18:14Z</time>
      </trkpt>
      <trkpt lat="45.736991000" lon="5.627338000">
        <ele>367.800000</ele>
        <time>2025-04-11T15:18:24Z</time>
      </trkpt>
      <trkpt lat="45.736807000" lon="5.627437000">
        <ele>365.600000</ele>
        <time>2025-04-11T15:18:42Z</time>
      </trkpt>
      <trkpt lat="45.736721000" lon="5.627556000">
        <ele>367.300000</ele>
        <time>2025-04-11T15:18:52Z</time>
      </trkpt>
      <trkpt lat="45.736668000" lon="5.627680000">
        <ele>366.900000</ele>
        <time>2025-04-11T15:19:02Z</time>
      </trkpt>
      <trkpt lat="45.736598000" lon="5.627798000">
        <ele>367.100000</ele>
        <time>2025-04-11T15:19:12Z</time>
      </trkpt>
      <trkpt lat="45.736532000" lon="5.627873000">
        <ele>366.000000</ele>
        <time>2025-04-11T15:19:21Z</time>
      </trkpt>
      <trkpt lat="45.736477000" lon="5.627954000">
        <ele>366.100000</ele>
        <time>2025-04-11T15:19:30Z</time>
      </trkpt>
      <trkpt lat="45.736358000" lon="5.627941000">
        <ele>361.500000</ele>
        <time>2025-04-11T15:19:40Z</time>
      </trkpt>
      <trkpt lat="45.736300000" lon="5.627843000">
        <ele>359.500000</ele>
        <time>2025-04-11T15:19:50Z</time>
      </trkpt>
      <trkpt lat="45.736236000" lon="5.627747000">
        <ele>358.900000</ele>
        <time>2025-04-11T15:20:00Z</time>
      </trkpt>
      <trkpt lat="45.736164000" lon="5.627666000">
        <ele>359.300000</ele>
        <time>2025-04-11T15:20:09Z</time>
      </trkpt>
      <trkpt lat="45.736098000" lon="5.627579000">
        <ele>358.700000</ele>
        <time>2025-04-11T15:20:18Z</time>
      </trkpt>
      <trkpt lat="45.735988000" lon="5.627508000">
        <ele>359.100000</ele>
        <time>2025-04-11T15:20:28Z</time>
      </trkpt>
      <trkpt lat="45.735879000" lon="5.627418000">
        <ele>358.100000</ele>
        <time>2025-04-11T15:20:37Z</time>
      </trkpt>
      <trkpt lat="45.735793000" lon="5.627339000">
        <ele>357.500000</ele>
        <time>2025-04-11T15:20:46Z</time>
      </trkpt>
      <trkpt lat="45.735684000" lon="5.627279000">
        <ele>356.200000</ele>
        <time>2025-04-11T15:20:56Z</time>
      </trkpt>
      <trkpt lat="45.735559000" lon="5.627296000">
        <ele>355.300000</ele>
        <time>2025-04-11T15:21:06Z</time>
      </trkpt>
      <trkpt lat="45.735461000" lon="5.627300000">
        <ele>353.200000</ele>
        <time>2025-04-11T15:21:16Z</time>
      </trkpt>
      <trkpt lat="45.735317000" lon="5.627280000">
        <ele>351.600000</ele>
        <time>2025-04-11T15:21:26Z</time>
      </trkpt>
      <trkpt lat="45.735272000" lon="5.627166000">
        <ele>348.700000</ele>
        <time>2025-04-11T15:21:36Z</time>
      </trkpt>
      <trkpt lat="45.735365000" lon="5.626887000">
        <ele>349.300000</ele>
        <time>2025-04-11T15:21:54Z</time>
      </trkpt>
      <trkpt lat="45.735360000" lon="5.626755000">
        <ele>348.000000</ele>
        <time>2025-04-11T15:22:04Z</time>
      </trkpt>
      <trkpt lat="45.735372000" lon="5.626595000">
        <ele>345.400000</ele>
        <time>2025-04-11T15:22:14Z</time>
      </trkpt>
      <trkpt lat="45.735353000" lon="5.626399000">
        <ele>346.200000</ele>
        <time>2025-04-11T15:22:24Z</time>
      </trkpt>
      <trkpt lat="45.735353000" lon="5.626305000">
        <ele>344.700000</ele>
        <time>2025-04-11T15:22:33Z</time>
      </trkpt>
      <trkpt lat="45.735305000" lon="5.626140000">
        <ele>343.800000</ele>
        <time>2025-04-11T15:22:42Z</time>
      </trkpt>
      <trkpt lat="45.735259000" lon="5.625975000">
        <ele>342.100000</ele>
        <time>2025-04-11T15:22:52Z</time>
      </trkpt>
      <trkpt lat="45.735210000" lon="5.625857000">
        <ele>340.600000</ele>
        <time>2025-04-11T15:23:01Z</time>
      </trkpt>
      <trkpt lat="45.735155000" lon="5.625775000">
        <ele>339.400000</ele>
        <time>2025-04-11T15:23:10Z</time>
      </trkpt>
      <trkpt lat="45.735080000" lon="5.625671000">
        <ele>339.700000</ele>
        <time>2025-04-11T15:23:20Z</time>
      </trkpt>
      <trkpt lat="45.734993000" lon="5.625575000">
        <ele>338.300000</ele>
        <time>2025-04-11T15:23:29Z</time>
      </trkpt>
      <trkpt lat="45.734887000" lon="5.625519000">
        <ele>337.200000</ele>
        <time>2025-04-11T15:23:38Z</time>
      </trkpt>
      <trkpt lat="45.734720000" lon="5.625497000">
        <ele>335.400000</ele>
        <time>2025-04-11T15:23:48Z</time>
      </trkpt>
      <trkpt lat="45.734601000" lon="5.625487000">
        <ele>335.100000</ele>
        <time>2025-04-11T15:23:58Z</time>
      </trkpt>
      <trkpt lat="45.734529000" lon="5.625437000">
        <ele>332.600000</ele>
        <time>2025-04-11T15:24:08Z</time>
      </trkpt>
      <trkpt lat="45.734407000" lon="5.625399000">
        <ele>332.000000</ele>
        <time>2025-04-11T15:24:18Z</time>
      </trkpt>
      <trkpt lat="45.734293000" lon="5.625390000">
        <ele>333.500000</ele>
        <time>2025-04-11T15:24:28Z</time>
      </trkpt>
      <trkpt lat="45.734183000" lon="5.625412000">
        <ele>334.900000</ele>
        <time>2025-04-11T15:24:38Z</time>
      </trkpt>
      <trkpt lat="45.734081000" lon="5.625412000">
        <ele>334.300000</ele>
        <time>2025-04-11T15:24:48Z</time>
      </trkpt>
      <trkpt lat="45.733975000" lon="5.625416000">
        <ele>333.600000</ele>
        <time>2025-04-11T15:24:58Z</time>
      </trkpt>
      <trkpt lat="45.733951000" lon="5.625413000">
        <ele>334.500000</ele>
        <time>2025-04-11T15:25:08Z</time>
      </trkpt>
      <trkpt lat="45.733862000" lon="5.625447000">
        <ele>332.600000</ele>
        <time>2025-04-11T15:25:18Z</time>
      </trkpt>
      <trkpt lat="45.733777000" lon="5.625419000">
        <ele>331.900000</ele>
        <time>2025-04-11T15:25:28Z</time>
      </trkpt>
      <trkpt lat="45.733670000" lon="5.625437000">
        <ele>332.300000</ele>
        <time>2025-04-11T15:25:37Z</time>
      </trkpt>
      <trkpt lat="45.733565000" lon="5.625452000">
        <ele>331.100000</ele>
        <time>2025-04-11T15:25:46Z</time>
      </trkpt>
      <trkpt lat="45.733455000" lon="5.625452000">
        <ele>330.700000</ele>
        <time>2025-04-11T15:25:56Z</time>
      </trkpt>
      <trkpt lat="45.733400000" lon="5.625430000">
        <ele>330.600000</ele>
        <time>2025-04-11T15:26:06Z</time>
      </trkpt>
      <trkpt lat="45.733398000" lon="5.625353000">
        <ele>332.200000</ele>
        <time>2025-04-11T15:26:16Z</time>
      </trkpt>
      <trkpt lat="45.733414000" lon="5.625317000">
        <ele>331.500000</ele>
        <time>2025-04-11T15:26:25Z</time>
      </trkpt>
      <trkpt lat="45.733382000" lon="5.625253000">
        <ele>331.500000</ele>
        <time>2025-04-11T15:26:34Z</time>
      </trkpt>
      <trkpt lat="45.733360000" lon="5.625140000">
        <ele>332.400000</ele>
        <time>2025-04-11T15:26:44Z</time>
      </trkpt>
      <trkpt lat="45.733347000" lon="5.624928000">
        <ele>331.600000</ele>
        <time>2025-04-11T15:27:02Z</time>
      </trkpt>
      <trkpt lat="45.733316000" lon="5.624756000">
        <ele>331.200000</ele>
        <time>2025-04-11T15:27:12Z</time>
      </trkpt>
      <trkpt lat="45.733300000" lon="5.624611000">
        <ele>330.100000</ele>
        <time>2025-04-11T15:27:21Z</time>
      </trkpt>
      <trkpt lat="45.733291000" lon="5.624475000">
        <ele>329.900000</ele>
        <time>2025-04-11T15:27:30Z</time>
      </trkpt>
      <trkpt lat="45.733285000" lon="5.624327000">
        <ele>330.100000</ele>
        <time>2025-04-11T15:27:40Z</time>
      </trkpt>
      <trkpt lat="45.733245000" lon="5.624177000">
        <ele>329.400000</ele>
        <time>2025-04-11T15:27:49Z</time>
      </trkpt>
      <trkpt lat="45.733216000" lon="5.624041000">
        <ele>330.100000</ele>
        <time>2025-04-11T15:27:58Z</time>
      </trkpt>
      <trkpt lat="45.733197000" lon="5.623859000">
        <ele>330.700000</ele>
        <time>2025-04-11T15:28:08Z</time>
      </trkpt>
      <trkpt lat="45.733203000" lon="5.623596000">
        <ele>329.900000</ele>
        <time>2025-04-11T15:28:26Z</time>
      </trkpt>
      <trkpt lat="45.733173000" lon="5.623431000">
        <ele>330.200000</ele>
        <time>2025-04-11T15:28:36Z</time>
      </trkpt>
      <trkpt lat="45.733151000" lon="5.623258000">
        <ele>330.000000</ele>
        <time>2025-04-11T15:28:46Z</time>
      </trkpt>
      <trkpt lat="45.733159000" lon="5.623082000">
        <ele>328.500000</ele>
        <time>2025-04-11T15:28:56Z</time>
      </trkpt>
      <trkpt lat="45.733137000" lon="5.622944000">
        <ele>330.100000</ele>
        <time>2025-04-11T15:29:05Z</time>
      </trkpt>
      <trkpt lat="45.733128000" lon="5.622788000">
        <ele>328.700000</ele>
        <time>2025-04-11T15:29:14Z</time>
      </trkpt>
      <trkpt lat="45.733116000" lon="5.622629000">
        <ele>328.900000</ele>
        <time>2025-04-11T15:29:24Z</time>
      </trkpt>
      <trkpt lat="45.733118000" lon="5.622489000">
        <ele>329.500000</ele>
        <time>2025-04-11T15:29:33Z</time>
      </trkpt>
      <trkpt lat="45.733134000" lon="5.622351000">
        <ele>329.400000</ele>
        <time>2025-04-11T15:29:42Z</time>
      </trkpt>
      <trkpt lat="45.733126000" lon="5.622180000">
        <ele>331.000000</ele>
        <time>2025-04-11T15:29:52Z</time>
      </trkpt>
      <trkpt lat="45.733119000" lon="5.622144000">
        <ele>328.600000</ele>
        <time>2025-04-11T15:30:02Z</time>
      </trkpt>
      <trkpt lat="45.733100000" lon="5.622063000">
        <ele>325.100000</ele>
        <time>2025-04-11T15:30:32Z</time>
      </trkpt>
      <trkpt lat="45.733088000" lon="5.621918000">
        <ele>326.700000</ele>
        <time>2025-04-11T15:30:42Z</time>
      </trkpt>
      <trkpt lat="45.733066000" lon="5.621751000">
        <ele>325.500000</ele>
        <time>2025-04-11T15:30:52Z</time>
      </trkpt>
      <trkpt lat="45.733066000" lon="5.621687000">
        <ele>324.400000</ele>
        <time>2025-04-11T15:31:02Z</time>
      </trkpt>
      <trkpt lat="45.733026000" lon="5.621553000">
        <ele>326.000000</ele>
        <time>2025-04-11T15:31:12Z</time>
      </trkpt>
      <trkpt lat="45.732964000" lon="5.621532000">
        <ele>328.000000</ele>
        <time>2025-04-11T15:31:21Z</time>
      </trkpt>
      <trkpt lat="45.732898000" lon="5.621365000">
        <ele>327.800000</ele>
        <time>2025-04-11T15:31:30Z</time>
      </trkpt>
      <trkpt lat="45.732884000" lon="5.621241000">
        <ele>328.500000</ele>
        <time>2025-04-11T15:31:40Z</time>
      </trkpt>
      <trkpt lat="45.732865000" lon="5.621155000">
        <ele>328.400000</ele>
        <time>2025-04-11T15:31:49Z</time>
      </trkpt>
      <trkpt lat="45.732860000" lon="5.621163000">
        <ele>327.900000</ele>
        <time>2025-04-11T15:31:58Z</time>
      </trkpt>
    </trkseg>
  </trk>
</gpx>
